[[{"header":{"parameterUnit":"m.s-1","parameterCategory":1,"la1":30.6,"la2":29.2853,"lo1":-89.7004,"lo2":-87.6739,"dy":0.0162,"dx":0.0183,"nx":112,"ny":82,"refTime":"2024-03-16T06:00:00:Z","depth":0,"parameterNumber":2,"parameterNumberName":"U-component_of_WINDS"},"data":[0.0,0.0,0.0,0.0,0.0,0.0,0.0,0.0,0.0,0.0,0.0,0.0,0.0,0.0,0.0,0.0,0.0,0.0,0.0,0.0,0.0,0.0,0.0,0.0,0.0,0.0,0.0,0.0,0.0,0.0,0.0,0.0,0.0,0.0,0.0,0.0,0.0,0.0,0.0,0.0,0.0,0.0,0.0,0.0,0.0,0.0,0.0,0.0,0.0,0.0,0.0,0.0,0.0,0.0,0.0,0.0,0.0,0.0,0.0,0.0,0.0,0.0,0.0,0.0,0.0,0.0,0.0,0.0,0.0,0.0,0.0,0.0,0.0,0.0,0.0,0.0,0.0,0.0,0.0,0.0,0.0,0.0,0.0,0.0,0.0,0.0,0.0,0.0,0.0,0.0,0.0,7.2461,8.6445,9.4609,9.3125,9.1914,8.4375,6.832,0.0,0.0,0.0,0.0,0.0,0.0,0.0,0.0,0.0,0.0,0.0,0.0,0.0,0.0,0.0,0.0,0.0,0.0,0.0,0.0,0.0,0.0,0.0,0.0,0.0,0.0,0.0,0.0,0.0,0.0,0.0,0.0,0.0,0.0,0.0,0.0,0.0,0.0,0.0,0.0,0.0,0.0,0.0,0.0,0.0,0.0,0.0,0.0,0.0,0.0,0.0,0.0,0.0,0.0,0.0,0.0,0.0,0.0,0.0,0.0,0.0,0.0,0.0,0.0,0.0,0.0,0.0,0.0,0.0,0.0,0.0,0.0,0.0,0.0,0.0,0.0,0.0,0.0,0.0,0.0,0.0,0.0,0.0,0.0,0.0,0.0,0.0,0.0,0.0,0.0,0.0,0.0,0.0,0.0,0.0,0.0,0.0,0.0,0.0,0.0,0.0,0.0,0.0,0.0,6.7656,8.3281,9.1094,9.5078,9.4844,8.875,8.0429,6.9765,0.0,0.0,0.0,0.0,0.0,0.0,0.0,0.0,0.0,0.0,0.0,0.0,0.0,0.0,0.0,0.0,0.0,0.0,0.0,0.0,0.0,0.0,0.0,0.0,0.0,0.0,0.0,0.0,0.0,0.0,0.0,0.0,0.0,0.0,0.0,0.0,0.0,0.0,0.0,0.0,0.0,0.0,0.0,0.0,0.0,0.0,0.0,0.0,0.0,0.0,0.0,0.0,0.0,0.0,0.0,0.0,0.0,0.0,0.0,0.0,0.0,0.0,0.0,0.0,0.0,0.0,0.0,0.0,0.0,0.0,0.0,0.0,0.0,0.0,0.0,0.0,0.0,0.0,0.0,0.0,0.0,0.0,0.0,0.0,0.0,0.0,0.0,0.0,0.0,0.0,0.0,0.0,0.0,0.0,0.0,0.0,0.0,0.0,0.0,0.0,0.0,0.0,0.0,6.4922,7.3359,8.7344,9.3476,9.6015,9.4609,8.9101,8.0859,6.9492,6.582,0.0,0.0,0.0,0.0,0.0,0.0,0.0,0.0,0.0,0.0,0.0,0.0,0.0,0.0,0.0,0.0,0.0,0.0,0.0,0.0,0.0,0.0,0.0,0.0,0.0,0.0,0.0,0.0,0.0,0.0,0.0,0.0,0.0,0.0,0.0,0.0,0.0,0.0,0.0,0.0,0.0,0.0,0.0,0.0,0.0,0.0,0.0,0.0,0.0,0.0,0.0,0.0,0.0,0.0,0.0,0.0,0.0,0.0,0.0,0.0,0.0,0.0,0.0,0.0,0.0,0.0,0.0,0.0,0.0,0.0,0.0,0.0,0.0,0.0,0.0,0.0,0.0,0.0,0.0,0.0,0.0,0.0,0.0,0.0,0.0,0.0,0.0,0.0,0.0,0.0,0.0,0.0,0.0,0.0,0.0,0.0,0.0,0.0,0.0,0.0,0.0,0.0,7.2305,7.8867,8.9492,9.4336,9.5937,9.3789,8.8359,8.0156,6.8633,6.2851,0.0,0.0,0.0,0.0,0.0,0.0,0.0,0.0,0.0,0.0,0.0,0.0,0.0,0.0,0.0,0.0,0.0,0.0,0.0,0.0,0.0,0.0,0.0,0.0,0.0,0.0,0.0,0.0,0.0,0.0,0.0,0.0,0.0,0.0,0.0,0.0,0.0,0.0,0.0,0.0,0.0,0.0,0.0,0.0,0.0,0.0,0.0,0.0,0.0,0.0,0.0,0.0,0.0,0.0,0.0,0.0,0.0,0.0,0.0,0.0,0.0,0.0,0.0,0.0,0.0,0.0,0.0,0.0,0.0,0.0,0.0,0.0,0.0,0.0,0.0,0.0,0.0,0.0,0.0,0.0,0.0,0.0,0.0,0.0,0.0,0.0,0.0,0.0,0.0,0.0,0.0,0.0,0.0,0.0,0.0,0.0,0.0,0.0,0.0,0.0,0.0,0.0,7.4219,8.2617,9.1484,9.3476,9.3789,9.2773,8.3633,7.4805,6.7461,5.914,0.0,0.0,0.0,0.0,0.0,0.0,0.0,0.0,0.0,0.0,0.0,0.0,0.0,0.0,0.0,0.0,0.0,0.0,0.0,0.0,0.0,0.0,0.0,0.0,0.0,0.0,0.0,0.0,0.0,0.0,0.0,0.0,0.0,0.0,0.0,0.0,0.0,0.0,0.0,0.0,0.0,0.0,0.0,0.0,0.0,0.0,0.0,0.0,0.0,0.0,0.0,0.0,0.0,0.0,0.0,0.0,0.0,0.0,0.0,0.0,0.0,0.0,0.0,0.0,0.0,0.0,0.0,0.0,0.0,0.0,0.0,0.0,0.0,0.0,0.0,0.0,0.0,0.0,0.0,0.0,0.0,0.0,0.0,0.0,0.0,0.0,0.0,0.0,0.0,0.0,0.0,0.0,0.0,0.0,0.0,0.0,0.0,0.0,0.0,0.0,0.0,0.0,7.3125,8.1445,0.0,9.3203,9.3711,9.1172,8.4961,7.6875,6.6719,0.0,0.0,0.0,0.0,0.0,0.0,0.0,0.0,0.0,0.0,0.0,0.0,0.0,0.0,0.0,0.0,0.0,0.0,0.0,0.0,0.0,0.0,0.0,0.0,0.0,0.0,0.0,0.0,0.0,0.0,0.0,0.0,0.0,0.0,0.0,0.0,0.0,0.0,0.0,0.0,0.0,0.0,0.0,0.0,0.0,0.0,0.0,0.0,0.0,0.0,0.0,0.0,0.0,0.0,0.0,0.0,0.0,0.0,0.0,0.0,0.0,0.0,0.0,0.0,0.0,0.0,0.0,0.0,0.0,0.0,0.0,0.0,0.0,0.0,0.0,0.0,0.0,0.0,0.0,0.0,0.0,0.0,0.0,0.0,0.0,0.0,0.0,0.0,0.0,0.0,0.0,0.0,0.0,0.0,0.0,0.0,0.0,0.0,0.0,0.0,0.0,0.0,6.4648,7.2851,8.0976,0.0,9.1719,9.207,8.9414,8.3242,7.539,6.5781,0.0,0.0,0.0,0.0,0.0,0.0,0.0,0.0,0.0,0.0,0.0,0.0,0.0,0.0,0.0,0.0,0.0,0.0,0.0,0.0,0.0,0.0,0.0,0.0,0.0,0.0,0.0,0.0,0.0,0.0,0.0,0.0,0.0,0.0,0.0,0.0,0.0,0.0,0.0,0.0,0.0,0.0,0.0,0.0,0.0,0.0,0.0,0.0,0.0,0.0,0.0,0.0,0.0,0.0,0.0,0.0,0.0,0.0,0.0,0.0,0.0,0.0,0.0,0.0,0.0,0.0,0.0,0.0,0.0,0.0,0.0,0.0,0.0,0.0,0.0,0.0,0.0,0.0,0.0,0.0,0.0,0.0,0.0,0.0,0.0,0.0,0.0,0.0,0.0,0.0,0.0,0.0,0.0,0.0,0.0,0.0,0.0,0.0,0.0,0.0,0.0,0.0,6.4922,7.3867,8.1992,8.8047,8.8672,8.8359,8.7539,7.7187,6.8906,0.0,0.0,0.0,0.0,0.0,0.0,0.0,0.0,0.0,0.0,0.0,0.0,0.0,0.0,0.0,0.0,0.0,0.0,0.0,0.0,0.0,0.0,0.0,0.0,0.0,0.0,0.0,0.0,0.0,0.0,0.0,0.0,0.0,0.0,0.0,0.0,0.0,0.0,0.0,0.0,0.0,0.0,0.0,0.0,0.0,0.0,0.0,0.0,0.0,0.0,0.0,0.0,0.0,0.0,0.0,0.0,0.0,0.0,0.0,0.0,0.0,0.0,0.0,0.0,0.0,0.0,0.0,0.0,0.0,0.0,0.0,0.0,0.0,0.0,0.0,0.0,0.0,0.0,0.0,0.0,0.0,0.0,0.0,0.0,0.0,0.0,0.0,0.0,0.0,0.0,0.0,0.0,0.0,0.0,0.0,0.0,0.0,0.0,0.0,0.0,0.0,0.0,0.0,6.5,7.3867,8.1562,8.6406,8.75,8.6992,8.4922,7.8359,7.1211,6.3867,0.0,0.0,0.0,0.0,0.0,0.0,0.0,0.0,0.0,0.0,0.0,0.0,0.0,0.0,0.0,0.0,0.0,0.0,0.0,0.0,0.0,0.0,0.0,0.0,0.0,0.0,0.0,0.0,0.0,0.0,0.0,0.0,0.0,0.0,0.0,0.0,0.0,0.0,0.0,0.0,0.0,0.0,0.0,0.0,0.0,0.0,0.0,0.0,0.0,0.0,0.0,0.0,0.0,0.0,0.0,0.0,0.0,0.0,0.0,0.0,0.0,0.0,0.0,0.0,0.0,0.0,0.0,0.0,0.0,0.0,0.0,0.0,0.0,0.0,0.0,0.0,0.0,0.0,0.0,0.0,0.0,0.0,0.0,0.0,0.0,0.0,0.0,0.0,0.0,0.0,0.0,0.0,0.0,0.0,0.0,0.0,0.0,0.0,0.0,0.0,0.0,0.0,6.5,7.3281,8.0351,8.4687,8.5625,8.5312,8.3711,7.789,7.1406,6.4453,0.0,0.0,0.0,0.0,0.0,0.0,0.0,0.0,0.0,0.0,0.0,0.0,0.0,0.0,0.0,0.0,0.0,0.0,0.0,0.0,0.0,0.0,0.0,0.0,0.0,0.0,0.0,0.0,0.0,0.0,0.0,0.0,0.0,0.0,0.0,0.0,0.0,0.0,0.0,0.0,0.0,0.0,0.0,0.0,0.0,0.0,0.0,0.0,0.0,0.0,0.0,0.0,0.0,0.0,0.0,0.0,0.0,0.0,0.0,0.0,0.0,0.0,0.0,0.0,0.0,0.0,0.0,0.0,0.0,0.0,0.0,0.0,0.0,0.0,0.0,0.0,0.0,0.0,0.0,0.0,0.0,0.0,0.0,0.0,0.0,0.0,0.0,0.0,0.0,0.0,0.0,0.0,0.0,0.0,0.0,0.0,0.0,0.0,0.0,0.0,0.0,0.0,6.4961,7.2305,7.8711,8.3008,8.3476,8.3398,8.3242,7.6406,7.0195,6.5664,0.0,0.0,0.0,0.0,0.0,0.0,0.0,0.0,0.0,0.0,0.0,0.0,0.0,0.0,0.0,0.0,0.0,0.0,0.0,0.0,0.0,0.0,0.0,0.0,0.0,0.0,0.0,0.0,0.0,0.0,0.0,0.0,0.0,0.0,0.0,0.0,0.0,0.0,0.0,0.0,0.0,0.0,0.0,0.0,0.0,0.0,0.0,0.0,0.0,0.0,0.0,0.0,0.0,0.0,0.0,0.0,0.0,0.0,0.0,0.0,5.7756,0.0,0.0,0.0,0.0,0.0,0.0,0.0,0.0,0.0,0.0,0.0,0.0,0.0,0.0,0.0,0.0,0.0,0.0,0.0,0.0,0.0,0.0,0.0,0.0,0.0,0.0,0.0,0.0,0.0,0.0,0.0,0.0,0.0,0.0,0.0,0.0,0.0,0.0,0.0,0.0,0.0,6.5039,7.1797,7.7812,8.2109,8.2578,8.2031,8.0664,7.5937,7.0312,6.3945,0.0,0.0,0.0,0.0,0.0,0.0,0.0,0.0,0.0,0.0,0.0,0.0,0.0,0.0,0.0,0.0,0.0,0.0,0.0,0.0,0.0,0.0,0.0,0.0,0.0,0.0,0.0,0.0,0.0,0.0,0.0,0.0,0.0,0.0,0.0,0.0,0.0,0.0,0.0,0.0,0.0,0.0,0.0,0.0,0.0,0.0,0.0,0.0,0.0,0.0,0.0,0.0,0.0,0.0,0.0,0.0,0.0,0.0,0.0,0.0,0.0,6.0123,0.0,0.0,0.0,0.0,0.0,0.0,0.0,0.0,0.0,0.0,0.0,0.0,0.0,0.0,0.0,0.0,0.0,0.0,0.0,0.0,0.0,0.0,0.0,0.0,0.0,0.0,0.0,0.0,0.0,0.0,0.0,0.0,0.0,0.0,0.0,0.0,0.0,0.0,0.0,0.0,6.5,7.125,7.6914,8.1211,8.2031,8.1758,8.0429,7.6406,7.1523,6.5859,6.0273,0.0,0.0,0.0,0.0,0.0,0.0,0.0,0.0,0.0,0.0,0.0,0.0,0.0,0.0,0.0,0.0,0.0,0.0,0.0,0.0,0.0,0.0,0.0,0.0,0.0,0.0,0.0,0.0,0.0,0.0,0.0,0.0,0.0,0.0,0.0,0.0,0.0,0.0,0.0,0.0,0.0,0.0,0.0,0.0,0.0,0.0,0.0,0.0,0.0,0.0,0.0,0.0,0.0,0.0,7.2637,7.3702,7.374,7.4306,7.4988,7.0194,6.6343,6.3372,0.0,0.0,0.0,0.0,0.0,0.0,0.0,0.0,0.0,0.0,0.0,0.0,0.0,0.0,0.0,0.0,0.0,0.0,0.0,0.0,0.0,0.0,0.0,0.0,0.0,6.1045,6.0937,0.0,0.0,0.0,0.0,0.0,0.0,0.0,0.0,0.0,0.0,0.0,0.0,6.4961,7.0742,7.6094,8.0547,8.1523,8.1484,8.0625,7.6914,7.2695,6.8242,6.2187,5.7148,0.0,0.0,0.0,0.0,0.0,0.0,0.0,0.0,0.0,0.0,0.0,0.0,0.0,0.0,0.0,0.0,0.0,0.0,0.0,0.0,0.0,0.0,0.0,0.0,0.0,0.0,0.0,0.0,0.0,0.0,0.0,0.0,5.6514,5.584,0.0,0.0,0.0,0.0,0.0,0.0,0.0,0.0,0.0,0.0,0.0,0.0,0.0,0.0,7.085,7.4655,7.5964,7.4899,7.88,8.0043,7.8841,7.9604,8.0778,8.2292,8.2265,0.0,6.854,6.6307,0.0,0.0,0.0,0.0,0.0,0.0,0.0,0.0,0.0,0.0,0.0,0.0,0.0,0.0,0.0,0.0,0.0,0.0,0.0,0.0,0.0,0.0,6.4131,6.417,6.4348,6.418,0.0,5.9883,5.7031,5.5312,0.0,0.0,0.0,0.0,0.0,0.0,0.0,0.0,6.5039,7.0195,7.539,8.0469,8.0429,7.9726,7.8906,7.6211,7.2461,6.7383,6.4101,6.0469,5.625,5.3594,0.0,0.0,0.0,0.0,0.0,0.0,0.0,0.0,0.0,0.0,0.0,0.0,0.0,0.0,0.0,0.0,0.0,0.0,0.0,0.0,0.0,0.0,0.0,0.0,0.0,0.0,0.0,0.0,0.0,5.6673,5.8635,5.6835,5.9727,6.025,0.0,0.0,0.0,0.0,0.0,0.0,0.0,0.0,0.0,6.9514,7.208,7.4841,7.7839,8.0677,8.2676,8.3879,8.6684,8.8147,8.8342,8.8226,8.8838,8.9947,8.8915,8.5657,8.0601,7.4707,6.9373,6.4701,0.0,0.0,0.0,0.0,0.0,6.3461,6.4547,0.0,0.0,0.0,0.0,0.0,0.0,0.0,0.0,0.0,0.0,0.0,0.0,0.0,0.0,6.8262,6.9215,6.9445,6.7752,6.5669,6.2713,0.0,5.6601,5.5508,5.3633,0.0,0.0,0.0,0.0,0.0,6.4336,7.0078,7.5156,7.8515,7.9375,7.9375,7.8555,7.6094,7.3008,6.9258,6.5234,6.1523,5.8203,5.5078,5.2422,0.0,0.0,0.0,0.0,0.0,0.0,0.0,0.0,0.0,0.0,0.0,0.0,0.0,0.0,0.0,0.0,0.0,0.0,0.0,0.0,0.0,0.0,0.0,0.0,0.0,0.0,0.0,0.0,5.9473,6.1473,5.805,6.2512,6.3551,0.0,0.0,0.0,0.0,0.0,0.0,6.7402,7.0753,7.387,7.6659,7.9396,8.2399,8.5542,8.7231,8.9378,9.1874,9.3371,9.4791,9.5943,9.506,9.5021,9.552,9.3408,9.1757,8.9954,8.2131,7.5523,7.0131,6.7793,6.5972,6.4792,6.5842,6.6767,6.7744,6.9425,7.0555,7.094,6.9219,0.0,6.6231,6.1887,0.0,0.0,0.0,0.0,6.2975,6.5418,0.0,6.997,7.1708,7.3044,7.338,7.1189,6.9898,6.7346,0.0,5.9436,5.8103,5.5488,0.0,0.0,0.0,0.0,6.1699,6.4379,6.9986,7.4531,7.664,7.7773,7.8164,7.7539,7.5312,7.293,7.0547,6.6172,6.2617,6.0273,5.6836,5.3789,5.1211,0.0,0.0,0.0,0.0,0.0,0.0,0.0,0.0,0.0,0.0,0.0,0.0,0.0,0.0,0.0,0.0,0.0,0.0,0.0,0.0,0.0,0.0,0.0,0.0,0.0,0.0,0.0,0.0,0.0,6.005,6.7436,0.0,0.0,0.0,0.0,6.7782,7.0206,7.2745,7.5284,7.8668,8.2034,8.5382,8.8725,9.1719,9.4366,9.6021,9.6943,9.7135,9.8019,9.8519,9.8596,9.7712,9.7328,9.7325,9.6442,9.4674,9.191,8.5819,8.1647,7.8749,7.4637,7.2492,7.1607,7.0876,7.1145,7.1785,7.1061,7.1413,7.251,7.4764,7.441,7.2105,6.707,6.4941,0.0,0.0,6.5009,6.6244,6.8794,7.07,7.2438,7.411,7.4601,7.4187,7.2438,7.092,6.8618,0.0,6.2846,6.1456,5.8893,0.0,5.8094,5.7279,6.0326,6.3566,6.6167,6.979,7.3086,7.5703,7.5312,7.4844,7.4805,7.3164,7.1406,6.9687,6.6992,6.4687,6.289,5.9531,5.6484,5.3867,5.1406,0.0,0.0,0.0,0.0,0.0,0.0,0.0,0.0,0.0,0.0,0.0,0.0,0.0,0.0,0.0,0.0,0.0,0.0,0.0,0.0,0.0,0.0,0.0,0.0,0.0,0.0,0.0,0.0,6.9398,7.513,0.0,0.0,7.1168,7.2283,7.4014,7.6976,7.9823,8.2369,8.6293,8.9498,9.1759,9.4062,9.6213,9.825,9.8865,9.9403,9.9942,10.0288,10.0404,10.0404,9.9519,9.9173,9.9094,9.7672,9.6557,9.5443,9.2249,8.7829,8.2765,7.9646,7.7531,7.6293,7.6515,7.6823,7.7224,7.7962,7.8115,7.7616,7.578,7.3649,7.1387,6.904,6.8116,6.7885,6.7885,6.8871,7.042,7.2381,7.3793,7.4947,7.6092,7.5938,7.5216,7.4072,7.2976,7.1441,6.8878,6.5561,6.2757,6.1296,5.9997,5.9116,5.8929,6.179,6.452,6.6096,6.982,7.2773,7.3906,7.4258,7.4453,7.4609,7.1992,7.0156,6.9531,6.5469,6.2344,6.0625,5.7773,5.5,5.2383,5.0391,4.8789,0.0,0.0,0.0,0.0,0.0,0.0,0.0,0.0,0.0,0.0,0.0,0.0,0.0,0.0,0.0,0.0,0.0,0.0,0.0,0.0,0.0,0.0,0.0,0.0,0.0,0.0,7.5822,7.6361,8.1939,8.3747,7.8631,7.89,8.0131,8.1862,8.4824,8.7594,8.9829,9.3474,9.5824,9.6713,9.8365,9.9634,10.048,10.048,10.0788,10.1289,10.1289,10.1289,10.1289,10.048,10.0096,9.9981,9.825,9.748,9.7364,9.5674,9.2177,8.7612,8.5074,8.2995,8.1523,8.1523,8.1523,8.1638,8.2477,8.2208,8.0977,7.7885,7.5319,7.3321,7.2506,7.2035,7.1871,7.2206,7.3063,7.4226,7.561,7.6186,7.6562,7.716,7.6621,7.5707,7.4533,7.3899,7.3004,7.1245,6.8064,6.5193,6.3745,6.2463,6.168,6.1757,6.3935,6.5986,6.7208,7.0181,7.2257,7.2452,7.2752,7.2851,7.2695,7.0117,6.8164,6.7305,6.3476,6.0508,5.8828,5.6211,5.3984,5.2305,5.0039,4.832,4.7148,0.0,0.0,0.0,0.0,0.0,0.0,0.0,0.0,0.0,0.0,0.0,0.0,0.0,0.0,0.0,0.0,0.0,0.0,0.0,0.0,0.0,0.0,0.0,6.7205,7.613,8.1977,8.0516,8.7671,9.0133,8.3516,8.6632,8.971,9.1364,9.3787,9.5903,9.7519,9.9981,10.1019,10.0173,10.1828,10.2174,10.1289,10.1289,10.1289,10.1289,10.1289,10.1289,10.1289,10.048,10.0096,10.0019,9.825,9.7481,9.7364,9.5712,9.4483,9.3445,9.0908,8.894,8.7281,8.5637,8.5022,8.4868,8.3912,8.3061,8.2201,8.1362,7.9946,7.8423,7.7623,7.6801,7.6284,7.7121,7.7352,7.7583,7.8339,7.7962,7.7385,7.7352,7.6698,7.5592,7.3918,7.3543,7.2996,7.1321,7.0294,6.8948,6.6436,6.6013,6.5974,6.5974,6.6846,0.0,6.9679,7.0821,7.1503,7.1541,7.0781,6.992,6.9023,6.746,6.5468,6.289,6.1093,5.9413,5.7812,5.5195,5.3789,5.3867,5.0586,4.8086,4.6367,0.0,0.0,0.0,0.0,0.0,0.0,0.0,0.0,0.0,0.0,0.0,0.0,0.0,0.0,0.0,0.0,0.0,0.0,0.0,0.0,0.0,0.0,7.4168,7.5207,8.2054,8.8363,9.2172,9.5826,9.748,9.6211,9.6634,9.7134,9.7596,9.8827,9.9788,10.0212,10.152,10.1865,10.1019,10.2597,10.2789,10.1289,10.1904,10.1904,10.1289,10.1289,10.1289,10.1289,10.048,10.0096,10.0019,9.825,9.7481,9.7441,9.6365,9.5058,9.3522,9.1598,9.0171,8.9098,8.8025,8.7252,8.6401,8.4297,8.3451,8.3022,8.1593,8.0785,8.0215,7.9377,7.8946,7.8677,7.8292,7.8639,7.9138,7.9408,7.9261,7.8946,7.8344,7.7535,7.6659,7.5553,7.4361,7.335,7.2877,7.158,7.0167,6.8871,6.8116,6.7718,6.7718,0.0,0.0,6.9717,7.0514,7.1387,7.2118,7.202,7.132,6.9962,6.7187,6.4414,6.1874,5.8373,5.5913,5.4813,5.3465,5.2187,5.1133,4.9648,4.8672,0.0,0.0,0.0,0.0,0.0,0.0,0.0,0.0,0.0,0.0,0.0,0.0,0.0,0.0,0.0,0.0,0.0,0.0,0.0,0.0,0.0,0.0,7.6784,8.267,8.5978,8.9863,9.4172,9.9058,10.1212,10.2212,10.2404,10.1981,10.1673,10.1673,10.2097,10.2404,10.2404,10.3212,10.3097,10.1903,10.352,10.3597,10.1903,10.2289,10.2328,10.1789,10.1481,10.1289,10.1289,10.048,10.0135,0.0,9.825,9.7481,9.7402,9.6249,9.4943,0.0,0.0,0.0,0.0,0.0,8.7598,8.6594,8.4791,8.3907,8.3401,8.2016,8.1362,8.1016,8.0484,8.0331,8.0254,7.9754,7.9946,8.0331,8.0331,8.0061,7.9561,7.8707,7.7891,7.6967,7.5745,7.4668,7.3773,7.307,0.0,0.0,7.0333,6.9475,6.8924,6.8924,6.9398,6.9833,0.0,7.0629,7.1014,7.1283,7.1025,6.997,6.801,6.5422,0.0,0.0,0.0,5.3957,5.2011,5.1851,0.0,0.0,0.0,4.918,0.0,0.0,0.0,0.0,4.6641,4.6289,0.0,0.0,0.0,0.0,0.0,0.0,0.0,0.0,0.0,0.0,0.0,0.0,0.0,0.0,0.0,0.0,8.3785,9.0594,9.7288,9.8481,9.975,10.2712,10.4405,10.5097,10.4289,10.4212,10.4212,10.4212,10.4097,10.3982,10.3905,0.0,0.0,0.0,0.0,10.4405,10.2594,10.2712,10.2713,10.2597,10.1712,10.1289,10.1289,10.0404,9.9942,9.9863,9.8095,9.7364,9.7248,9.5635,9.4443,9.3522,9.3361,9.1899,8.9713,8.8025,8.6834,0.0,0.0,0.0,0.0,8.2432,8.1701,8.1093,8.1093,8.1093,8.1093,8.1093,8.1093,8.1093,8.1093,8.0523,7.9715,7.8723,7.7946,7.6967,7.5216,7.4793,7.4255,7.2773,7.2311,7.1964,7.1168,7.0371,6.9833,6.9833,6.9833,0.0,7.0821,7.0898,7.0667,7.0063,0.0,0.0,6.5226,6.3438,6.0949,5.7525,5.5577,5.3128,4.999,5.0741,5.0453,4.8816,4.9561,4.9644,4.8984,4.8906,4.8945,4.8984,4.7344,4.6523,0.0,0.0,0.0,0.0,0.0,0.0,0.0,0.0,0.0,0.0,0.0,0.0,0.0,0.0,0.0,8.1439,8.8632,9.5672,10.1789,10.4405,10.5713,10.5713,10.6597,10.6905,10.602,10.5905,10.5905,10.5905,10.529,10.4597,10.3905,10.4713,0.0,10.1597,10.452,10.502,10.2597,10.3328,10.3289,10.2597,0.0,0.0,10.1212,9.975,9.9058,9.894,9.7287,9.6519,9.6442,9.5405,9.4097,9.2595,9.121,9.036,8.9701,8.8012,8.6863,8.5901,8.4374,8.3253,8.2394,8.1593,8.1208,8.1093,8.1093,8.1093,0.0,8.1093,8.1093,8.1093,8.1093,8.0977,8.0446,7.8877,7.84,7.7805,7.6092,7.5178,7.4601,7.4293,7.3091,7.2157,7.1964,7.1245,7.0667,7.0667,7.0667,7.0706,7.0898,7.0898,7.1091,7.1657,7.0952,6.9682,6.7821,6.4869,6.1659,5.8312,5.519,5.2897,5.1511,5.1742,5.1432,5.0465,5.0039,5.0081,5.0625,4.9375,4.9101,4.9766,4.8828,4.8008,0.0,0.0,0.0,0.0,0.0,0.0,0.0,0.0,0.0,0.0,0.0,6.6282,6.9667,0.0,8.2247,8.7748,9.398,9.9788,10.4482,10.6597,10.7713,10.7713,10.8406,10.8598,10.7713,10.7713,10.7521,10.7098,10.6597,10.5982,10.5213,10.5482,10.4982,10.3289,10.529,10.5597,10.3905,10.4287,10.4135,10.3174,10.2366,10.1712,10.1289,10.0019,9.9211,9.8748,9.7441,9.6673,9.6211,9.4864,9.3631,9.2322,9.0559,8.9633,8.9157,8.7858,8.6858,8.5863,8.417,8.3317,8.2771,8.1477,8.1093,8.1093,8.1093,8.1093,8.1093,8.1093,8.1093,8.1093,8.1093,8.1093,8.0785,7.9453,7.9161,7.8681,7.7006,7.6284,7.5745,7.487,7.4024,7.3168,7.2349,7.1849,7.1426,7.0975,7.0898,7.0898,7.0898,7.0898,7.0898,7.0937,7.0541,6.9451,6.7333,6.4022,6.0981,5.8484,5.6267,5.4513,5.3241,5.3263,5.2685,5.1414,5.1106,5.099,5.1016,5.0267,5.0108,5.0547,5.0156,4.9375,0.0,0.0,0.0,0.0,0.0,0.0,0.0,0.0,6.2243,6.4974,6.8359,7.2476,7.7784,8.2939,8.8171,9.3557,9.8442,10.2712,10.5905,10.729,10.8213,10.9098,10.9598,10.9713,10.8983,10.8906,10.8598,10.779,10.779,10.7405,10.6213,10.6521,10.6097,10.4905,10.5905,10.602,10.5097,10.5095,10.4672,10.3905,10.3021,10.2097,10.1289,10.0288,9.9481,9.8749,9.771,9.6788,9.5942,9.4362,9.3207,9.2361,9.0787,8.9633,8.8815,8.7781,8.6748,8.567,8.4318,8.3618,8.3118,8.1778,8.1208,8.1093,8.1093,8.1093,8.1093,8.1093,8.1093,8.1093,8.1093,8.1093,8.09,8.0023,7.9815,7.9345,7.766,7.7314,7.6852,7.5255,7.4832,7.4216,7.2706,7.2311,7.1887,7.1014,7.0898,7.0898,7.0898,7.0898,7.0667,6.9986,6.9794,6.8679,6.6128,6.3051,6.055,5.8886,5.7978,5.6742,5.5045,5.4821,5.4014,5.2415,5.2165,5.1742,5.1106,5.1068,5.1048,5.1063,5.1102,5.0379,6.5205,6.2243,6.0435,6.1435,6.1089,6.1473,0.0,0.0,6.9475,7.2745,7.6746,8.0554,8.3516,8.8209,9.2826,9.648,10.0096,10.3405,10.602,10.779,10.9098,10.9983,10.9483,10.8983,10.8906,10.8906,10.8598,10.779,10.8406,10.7713,10.5405,10.6713,10.6482,10.4097,10.5597,10.602,10.5097,10.5097,10.4713,10.3905,10.3021,10.2097,10.1212,9.9673,9.8904,9.8711,9.7134,9.5942,9.5058,9.4099,9.3213,9.2399,9.1441,9.0556,8.956,8.8012,8.6401,8.5022,8.483,8.3747,8.2394,8.224,8.1701,8.1093,8.1093,8.1093,8.1093,8.1093,8.1093,8.1093,8.1093,8.1093,8.09,8.0023,7.9792,7.9331,7.7654,7.7293,7.7006,7.6053,7.5216,7.4379,7.3495,7.2706,7.1887,7.1014,7.0898,7.0898,7.0898,7.0898,7.086,7.0783,7.014,6.8679,6.6128,6.4116,6.231,6.0627,5.9681,5.8466,5.6783,5.5989,5.5126,5.422,5.2684,5.1896,5.178,5.1222,5.0932,5.0906,5.1039,5.0603,6.5782,6.3551,0.0,0.0,6.5128,6.7513,7.0783,7.3245,7.5784,7.9169,8.3247,8.7017,8.9556,9.3787,9.7711,0.0,10.2904,10.5405,10.6905,10.729,10.7598,10.7905,10.679,10.7213,11.0098,10.9983,10.929,10.8482,10.9213,10.8482,10.602,10.7021,10.6982,10.5405,10.6521,10.7021,10.6597,10.6597,10.6213,10.529,10.3982,10.2905,10.1981,10.0788,9.975,9.8711,9.702,9.6095,9.5635,9.4252,9.3482,9.3054,9.171,9.0636,8.9752,8.8589,8.7396,8.6209,8.5253,8.4099,8.2945,8.2471,8.1778,8.1093,8.1093,8.1093,8.1093,8.1093,8.1093,8.1093,8.1093,8.1093,8.1016,8.0669,8.0561,8.0215,7.9031,7.8361,7.7766,7.6929,7.6053,7.5178,7.4341,7.3514,7.2646,7.1772,7.1206,7.0898,7.0898,7.0898,7.0898,7.0898,7.0179,6.9064,6.7487,6.5782,6.4103,6.2348,6.1473,6.0219,5.8519,5.812,5.7066,5.522,5.4472,5.3628,5.2647,5.1857,5.1742,5.2223,5.1299,5.1206,6.5897,0.0,0.0,6.709,7.0398,7.4014,7.6553,7.9477,8.2554,8.5709,8.9363,9.271,9.5018,9.8173,10.1096,10.2981,10.502,10.6713,10.7598,10.6905,10.6097,10.5097,10.352,10.3982,10.7982,10.879,10.8983,10.8598,10.9598,10.9098,10.6521,10.7713,10.7905,10.679,10.7598,10.8021,10.8021,10.779,10.729,10.6405,10.4674,10.3406,10.2597,10.1212,9.9827,9.8366,9.6942,9.6288,9.6172,9.4406,9.3674,9.3551,9.1825,9.0825,9.0136,8.9359,8.832,8.7166,8.5483,8.4335,8.3451,8.2554,8.1778,8.1093,8.1093,8.1093,8.1093,8.1093,8.1093,8.1093,8.1093,8.1093,8.1093,8.1093,8.1093,8.0862,7.9984,7.9285,7.8545,7.7506,7.6813,7.6015,7.4909,7.4207,7.3532,7.2685,7.2003,7.1464,7.0975,7.0898,7.0898,7.0898,7.0179,6.9436,6.8835,6.7192,6.559,6.4116,6.3229,6.2021,6.0296,5.9988,5.8873,5.678,5.6049,5.5109,5.3879,5.28,5.2589,5.3167,5.1953,5.203,6.5667,6.7051,6.9283,7.336,7.6976,8.0208,8.2747,8.6555,9.0287,9.2864,9.5441,9.7827,9.9558,10.0596,10.2097,10.4597,10.579,10.6713,10.7598,10.6905,10.5213,10.1827,9.9981,9.9327,0.0,10.4097,10.6905,10.7713,10.929,10.9098,10.6521,10.879,10.9406,10.7713,10.8406,10.8906,10.8906,10.8098,10.729,10.6405,10.4713,10.3405,10.252,10.0019,9.8404,9.7518,9.6673,9.6288,9.6172,9.4406,9.3674,9.3551,9.1825,9.1171,9.1056,9.0175,8.8825,8.7166,8.5483,8.4335,8.3451,8.2554,8.1778,8.1093,8.1093,8.1093,8.1093,8.1093,8.1093,8.1093,8.1093,8.1093,8.1093,8.1093,8.1093,8.0862,7.9984,7.9792,7.9254,7.7622,7.7275,7.6736,7.4985,7.4678,7.4399,7.357,7.3443,7.28,7.1129,7.0898,7.0898,7.0898,7.0179,6.9679,6.9679,6.8052,6.6692,6.5859,6.5009,6.3762,6.2098,6.1228,6.0358,5.9412,5.6973,5.5665,5.5626,5.3968,5.3182,5.3205,5.3144,5.3144,6.7475,7.086,7.5476,8.0285,8.4016,8.7478,9.1171,9.3557,9.5211,9.6057,9.6019,9.5826,9.5826,9.7019,9.8981,10.2097,10.5213,10.7405,10.7713,10.7905,10.5597,9.8788,9.8481,0.0,0.0,0.0,0.0,10.5713,10.7598,10.8213,10.729,10.9098,10.9406,10.779,10.8983,10.9213,10.8098,10.8406,10.8098,10.7213,10.4982,10.2866,10.0866,9.9442,9.8327,9.7479,9.6634,9.6288,9.6211,9.5058,9.421,9.3589,9.2476,9.171,9.1095,9.0213,8.9213,8.8098,8.6978,8.5247,8.3548,8.3272,8.224,8.1093,8.1093,8.1093,8.1093,8.1093,8.1093,8.1093,8.1093,8.1093,8.1093,8.1093,8.1093,8.1016,8.0746,8.0215,7.9638,7.9062,7.8507,7.7728,7.6621,7.5938,7.5062,7.3716,7.3504,7.3289,7.2685,7.2646,7.2415,7.1811,7.1541,7.0898,6.9794,6.8641,6.7372,6.5974,6.5051,6.3858,6.2194,6.182,6.0973,5.9504,5.8681,5.7665,5.6571,5.5434,5.4857,5.4839,5.3699,5.3776,7.2206,7.7053,8.2593,8.7709,9.1287,9.4287,9.7019,9.8057,9.8096,9.6865,9.5018,9.3287,9.2133,9.1825,9.3364,9.825,10.1096,10.3712,10.6405,10.6213,10.3482,9.7442,9.6865,9.6211,0.0,0.0,0.0,10.3789,10.6097,10.7213,10.7213,10.9406,10.9983,10.8598,10.9598,10.9713,10.8598,10.8213,10.729,10.5905,10.4174,10.2404,10.0481,9.9327,9.8518,9.7902,9.6788,9.6288,9.6249,9.5366,9.4672,9.4093,9.3246,9.2592,9.2014,9.1133,9.0098,8.8909,8.744,8.5472,8.3625,8.3618,8.2471,8.1131,8.1439,8.1323,8.1093,8.1093,8.1093,8.1093,8.1093,8.1093,8.1093,8.1093,8.1093,8.1093,8.1093,8.0669,8.0177,7.9869,7.9361,7.8699,7.7861,7.7015,7.6092,7.5024,7.4591,7.4186,7.3581,7.3504,7.3311,7.2706,7.2388,7.1772,7.0667,6.9229,6.7922,6.6846,6.5705,6.4308,6.2606,6.2512,6.1728,5.9988,5.9681,5.8835,5.7473,5.6609,5.5994,5.5665,5.4605,5.4682,7.9554,8.5324,9.0441,9.548,9.8519,10.0289,10.0212,10.0096,9.8942,9.5403,9.2556,9.0133,0.0,0.0,8.594,9.3441,9.4364,9.6711,10.4097,10.2481,9.9865,0.0,0.0,0.0,0.0,0.0,0.0,10.2212,0.0,10.629,10.6521,10.9713,11.1098,11.0214,11.0214,11.0175,11.0098,10.7598,10.5097,10.2597,10.2597,10.2097,10.1212,9.9558,9.8788,9.8632,9.698,9.6288,9.6249,9.5405,9.5058,9.4905,9.4093,9.3743,9.3628,9.2784,9.1441,8.9598,8.7094,8.5099,8.3682,8.3664,8.2509,8.1285,8.2086,8.1739,8.1093,8.1093,8.1093,8.1093,8.1093,8.1131,8.1131,8.1093,8.1131,8.1131,8.1093,8.1093,8.0862,8.0023,7.9831,7.953,7.8723,7.7869,7.7352,7.7314,7.6621,7.5485,7.3841,7.362,7.3581,7.3543,7.2783,7.2234,7.2195,6.991,6.8448,6.8398,6.6846,6.518,6.3438,6.3306,6.2521,6.0896,5.9988,5.9158,5.8366,5.7511,5.6708,5.5818,5.5818,5.5818,8.6709,9.2326,9.7288,10.1712,10.2904,10.2789,10.2097,9.9981,9.6673,9.1402,8.6748,8.2362,0.0,0.0,0.0,8.9363,9.5942,0.0,10.552,10.6982,0.0,9.9211,0.0,9.925,9.648,9.7596,0.0,0.0,10.4212,10.5597,10.8098,11.0291,11.1098,11.0214,11.0214,10.9598,10.829,10.6405,10.4482,10.2597,10.2597,10.1789,10.0404,9.9288,9.8442,9.7749,9.6749,9.6288,9.6288,9.6057,9.5597,9.4982,9.4751,9.4251,9.3597,9.2792,9.1828,9.0594,8.8705,8.6517,8.4561,8.4581,8.3433,8.2029,8.2247,8.1739,8.1093,8.1093,8.1093,8.1093,8.1093,8.1516,8.1855,8.1246,8.1554,8.1855,8.1208,8.1093,8.1016,8.0823,8.0254,7.9754,7.9492,7.8762,7.7985,7.7391,7.7121,7.6583,7.5485,7.5332,7.5101,7.4456,7.3649,7.2909,7.2272,7.0475,6.909,6.8437,6.741,6.6013,6.4347,6.3614,6.2814,6.1766,6.0896,6.0027,5.9196,5.8979,5.8445,5.7653,5.7653,5.7653,9.4364,9.9404,10.3405,10.6097,10.5905,10.4097,10.0596,9.6903,9.1979,8.417,7.9092,0.0,7.0398,7.3168,0.0,0.0,0.0,0.0,10.4597,10.6482,10.6097,0.0,10.3097,0.0,10.0481,10.1481,10.2981,0.0,10.4982,10.6097,10.879,11.0214,11.0714,11.0214,10.9483,10.829,10.6597,10.5213,10.3905,10.2597,10.2212,10.152,10.0596,9.975,9.8865,9.8019,0.0,9.6634,9.6288,9.6288,9.6019,9.5558,9.5558,9.5058,9.4176,9.3331,9.2254,9.0979,8.9286,8.7517,8.594,8.5549,8.4286,8.2951,8.3317,8.2887,8.2201,8.2201,8.2201,8.2201,8.2201,8.2509,8.2663,8.183,8.1977,8.2086,8.1246,8.1093,8.1093,8.1093,8.0708,8.0369,8.0369,7.9677,7.8915,7.8477,7.7776,7.7121,7.6621,7.6245,7.5668,7.4793,7.3995,7.3149,7.2272,7.0294,6.9102,6.8963,6.7462,6.6128,6.5218,6.3974,6.2921,6.2136,6.1228,6.0396,5.9504,5.9496,5.9095,5.8303,5.8303,5.8303,10.1904,10.5905,10.8482,10.9098,10.7713,10.4405,9.7519,9.2287,8.6055,7.5938,7.1206,6.7821,6.4397,6.6936,7.2091,7.9977,0.0,9.4403,10.3212,10.4405,10.4982,10.6521,10.6097,10.529,10.4597,10.5213,10.5982,10.679,10.6905,10.7521,10.879,10.979,11.0291,10.9983,10.8482,10.6905,10.5097,10.4289,10.3482,10.2597,10.1712,10.1289,10.1289,10.0288,9.9519,9.875,0.0,0.0,9.6288,9.6288,9.6288,9.6288,9.6288,9.5751,9.4905,9.4022,9.2713,9.1133,8.9294,8.8214,8.7396,8.6401,8.506,8.3912,8.4658,8.4273,8.3618,8.3618,8.3618,8.3618,8.3618,8.3695,8.351,8.2534,8.2407,8.2201,8.1285,8.1093,8.1093,8.1093,8.1093,8.1093,8.1093,8.0446,7.9946,7.9831,7.8554,7.7545,7.7314,7.6544,7.5707,7.4947,7.4034,7.3178,7.2426,7.014,6.8998,6.964,6.7513,6.6167,6.6051,6.427,6.2963,6.229,6.1304,6.0435,5.9681,5.9681,5.9311,5.8635,5.8635,5.8635,10.779,11.0291,11.1714,11.1214,10.8213,10.3405,9.5865,8.8671,0.0,0.0,6.6782,6.3397,6.0012,6.4436,7.1591,8.0631,8.7825,9.5711,10.5597,10.7021,10.7405,0.0,10.829,10.8213,0.0,0.0,0.0,0.0,0.0,10.9406,10.8906,11.0406,11.0598,10.9213,10.8213,10.6905,10.5097,10.4289,10.3482,10.2597,10.1712,10.1289,10.1212,9.975,9.8942,9.8711,0.0,0.0,9.6288,9.6288,9.6288,9.6288,9.6288,9.5751,9.4905,9.4016,9.3092,9.1937,8.9524,8.8594,8.8199,8.6594,8.5445,8.4714,8.483,8.4291,8.3605,8.3605,8.3605,8.3605,8.3605,8.4138,8.4291,8.2688,8.283,8.2964,8.1439,8.1093,8.1093,8.1093,8.1093,8.1093,8.1093,8.0977,8.0631,7.9908,7.9561,7.8861,7.7468,7.6544,7.5938,7.5784,7.4427,7.3455,7.3289,7.1541,7.0271,6.9708,6.8629,6.7641,6.6923,6.4603,6.3218,6.3084,6.1574,6.0742,6.0589,6.0589,6.0512,6.0396,6.0396,6.0396,11.1906,11.3407,11.3714,11.2406,10.7598,10.0712,9.1248,0.0,0.0,6.4474,6.1166,5.9242,5.678,6.2589,6.9629,7.5438,8.2439,9.0594,10.0404,10.252,10.4482,10.8406,10.9713,11.0406,0.0,0.0,0.0,0.0,0.0,0.0,11.0291,11.0214,10.9213,10.6982,10.6982,10.6405,10.5097,10.4289,10.3712,10.3289,10.1904,10.1289,10.1289,10.048,9.9634,9.875,9.7979,0.0,9.6288,9.6288,9.6288,9.6288,9.6288,9.5751,9.4905,9.4016,9.3204,9.2207,9.0059,8.9325,8.9118,8.7858,8.6555,8.5522,8.5522,8.5214,8.4907,8.4907,8.4907,8.4907,8.4907,8.5214,8.5214,8.3951,8.3285,8.2586,8.1362,8.1093,8.1093,8.1093,8.1093,8.1093,8.1093,8.1093,8.0977,8.0523,8.01,7.9369,7.81,7.7169,7.6322,7.5408,7.4591,7.3773,7.2916,7.1657,7.0733,7.0336,6.9102,6.8218,6.7795,6.5782,6.4436,6.3993,6.2329,6.1497,6.1497,6.1012,6.0781,6.0781,6.0781,6.0781,11.4791,11.5676,11.5215,11.2791,10.6405,9.7827,8.6632,7.7515,0.0,5.8973,5.6857,5.6357,5.5241,6.0742,6.6705,0.0,7.6669,8.4478,9.4595,9.7788,10.1481,0.0,11.0406,0.0,11.2599,0.0,0.0,0.0,0.0,0.0,11.1214,10.9213,10.729,10.5405,10.5713,10.552,10.4789,10.3982,10.3597,10.3597,10.1904,10.1096,10.1289,10.0712,9.9865,9.8786,9.844,0.0,0.0,9.6288,9.6288,9.6288,9.6288,9.5635,9.4635,9.3941,9.3054,9.2014,9.0444,8.9902,8.9778,8.8936,8.7781,8.6632,8.6632,8.6632,8.6594,8.644,8.6363,8.6324,8.617,8.6094,8.5901,8.5099,8.3555,8.2124,8.1477,8.1208,8.1093,8.1093,8.1093,8.1093,8.1093,8.1093,8.1093,8.1093,8.0523,7.9715,7.8646,7.7938,7.689,7.5139,7.4832,7.4178,7.285,7.1811,7.1168,7.1168,6.964,6.8679,6.8681,6.6885,6.5576,6.4879,6.3214,6.2267,6.2098,6.142,6.0973,6.0781,6.0781,6.0781,11.6099,11.6984,11.6407,11.1598,10.4713,9.5942,8.4132,0.0,6.6513,5.8627,5.6357,5.6011,5.6626,5.8665,6.282,7.0783,7.4591,8.09,9.3364,9.7904,10.2212,10.8213,0.0,0.0,11.2599,0.0,0.0,0.0,0.0,0.0,0.0,10.7213,10.5713,10.629,10.4905,10.4097,10.3982,10.3212,10.2712,10.2712,10.0981,10.0596,10.1212,9.8904,9.8212,9.8711,0.0,0.0,0.0,9.6288,9.6288,9.6288,9.6288,9.5289,9.383,9.3714,9.2674,9.1171,9.0213,8.9906,8.9752,8.8948,8.8594,8.8469,8.8469,8.8469,8.8315,8.7512,8.7281,8.7089,8.6324,8.6094,8.5901,8.5099,8.3555,8.2278,8.2201,8.1624,8.1093,8.1093,8.1093,8.1093,8.1093,8.1093,8.1093,8.1093,8.1016,8.0369,7.8723,7.8438,7.7766,7.6053,7.5178,7.4639,7.4486,7.2976,7.208,7.208,7.0514,6.9602,6.9563,6.7205,6.5859,6.5807,6.4039,6.2834,6.2098,6.2021,6.1574,6.0781,6.0781,6.0781,11.4714,11.6792,11.6792,11.2714,10.3712,9.3172,8.3324,0.0,6.3589,5.7473,5.5934,5.5818,5.6126,5.7165,5.9781,6.5243,6.609,6.9975,8.1208,8.4863,9.0248,10.0789,10.4482,0.0,0.0,0.0,0.0,0.0,0.0,0.0,0.0,10.6597,10.529,10.4212,10.3982,10.3597,10.3097,10.2789,10.2597,10.2597,10.1404,10.0712,10.0481,9.9558,9.8711,9.798,0.0,0.0,0.0,9.6288,9.6288,9.6288,9.6288,9.5903,9.5135,9.4095,9.3284,9.2515,9.1171,9.0675,9.0598,9.029,9.021,9.0013,8.9017,8.8675,8.8598,8.8291,8.7786,8.7319,8.6973,8.6478,8.5901,8.5099,8.4368,8.3708,8.3195,8.2394,8.1816,8.1816,8.1439,8.1093,8.1093,8.1093,8.1093,8.1093,8.1093,8.0669,7.9415,7.9276,7.8643,7.6967,7.6015,7.5255,7.4755,7.4063,7.3283,7.2234,7.158,7.0744,6.9756,6.8191,6.7141,6.6615,6.4949,6.3949,6.3589,6.2574,6.1944,6.1574,6.1012,6.0781,11.1598,11.5407,11.6792,11.2599,10.2597,9.1364,8.2362,0.0,6.1858,5.6742,5.5703,5.5703,5.5703,5.6203,5.7627,6.0819,6.0742,6.3666,7.336,7.6861,8.2708,9.4249,0.0,0.0,0.0,0.0,0.0,0.0,0.0,0.0,0.0,10.5905,10.4713,10.2712,10.2904,10.2789,10.2212,10.1981,10.1904,10.1789,10.0712,10.0019,9.9712,9.9211,9.8442,9.748,0.0,0.0,0.0,9.6288,9.6288,9.6288,9.6288,9.598,9.5365,9.417,9.34,9.2784,9.1595,9.121,9.121,9.121,9.121,9.0979,8.9829,8.9409,8.9371,8.914,8.844,8.7704,8.7473,8.6935,8.6286,8.5445,8.506,8.4714,8.4125,8.3317,8.2593,8.2355,8.1855,8.1362,8.1131,8.1093,8.1093,8.1093,8.1093,8.0785,7.9908,7.9815,7.9268,7.7784,7.6899,7.6015,7.5139,7.487,7.4178,7.3042,7.2465,7.1657,7.0514,6.9344,6.8487,6.7872,6.6205,6.5218,6.4987,6.3281,6.2344,6.2098,6.1228,6.0781,10.679,11.2714,11.6407,11.0406,10.1289,9.1018,8.0862,7.0629,6.1858,5.6742,5.5703,5.5703,5.5703,5.5703,5.6549,5.9127,6.0973,6.5013,7.3514,7.8361,8.3593,0.0,0.0,0.0,0.0,0.0,0.0,0.0,0.0,0.0,0.0,10.4789,10.3482,10.2597,10.1789,10.1289,10.1289,10.0481,10.0096,10.0096,9.8365,9.798,9.875,9.7096,9.6749,0.0,0.0,0.0,0.0,9.6288,9.6288,9.6288,9.6288,9.5249,9.371,9.3714,9.2674,9.121,9.121,9.121,9.121,9.121,9.121,9.121,9.1171,9.1171,9.1018,9.0136,8.9286,8.8507,8.7627,8.7396,8.7166,8.6286,8.5483,8.4907,8.4907,8.4181,8.3336,8.2471,8.2278,8.2047,8.1246,8.1093,8.1093,8.1093,8.1093,8.0785,7.9908,7.9792,7.9453,7.8608,7.7784,7.6929,7.6053,7.5178,7.4716,7.4678,7.3091,7.2195,7.2157,7.0591,6.9667,6.9656,6.7975,6.6692,6.5859,6.4155,6.2872,6.2098,6.1228,6.0781,9.5326,9.9712,10.1789,9.6442,8.8748,8.0708,7.4014,6.6359,5.9742,5.6395,5.5703,5.5703,5.5703,5.5703,5.728,6.2204,6.2935,6.5089,7.1245,0.0,0.0,9.0325,10.0596,0.0,0.0,0.0,0.0,0.0,0.0,0.0,0.0,10.3891,10.3482,10.2597,10.1789,10.1019,10.0481,10.0212,9.9788,9.9211,9.8634,9.8211,9.7904,9.7365,0.0,0.0,0.0,0.0,0.0,9.6288,9.6288,9.6288,9.6288,9.598,9.5326,9.4134,9.3749,9.3557,9.1787,9.1595,9.2014,9.1402,9.121,9.121,9.121,9.0787,9.0136,8.9294,8.929,8.9325,8.8521,8.7863,8.7319,8.705,8.6324,8.5747,8.5747,8.506,8.4407,8.4099,8.3093,8.2201,8.197,8.1439,8.1093,8.1093,8.1093,8.1016,8.0746,8.0708,8.0331,7.9453,7.9177,7.8438,7.7006,7.6092,7.5332,7.4755,7.4178,7.3399,7.2234,7.1129,6.9975,6.8833,6.7691,6.6692,6.5897,6.4757,6.3449,6.2098,6.1228,6.0781,8.5632,9.0364,9.2518,8.8671,8.1977,7.5053,7.0321,6.3935,5.8396,5.6165,5.5703,5.5703,5.5703,5.5703,5.7011,6.1089,6.155,0.0,0.0,0.0,0.0,9.1056,0.0,0.0,0.0,0.0,0.0,0.0,0.0,0.0,0.0,0.0,10.26,10.1797,10.1203,10.0633,10.0122,9.948,9.9019,9.8788,9.8173,9.7557,9.7057,9.7057,0.0,0.0,0.0,0.0,0.0,9.6288,9.6288,9.6288,9.5942,9.5595,9.5134,9.3787,9.3403,9.3326,9.1751,9.1556,9.1937,9.1364,9.121,9.1133,9.0825,9.0556,9.0321,8.979,8.979,8.9713,8.8909,8.806,8.7325,8.6978,8.6478,8.6094,8.6094,8.5709,8.5253,8.4983,8.3753,8.267,8.2355,8.1662,8.1093,8.1093,8.1093,8.1093,8.1093,8.1093,8.09,8.0331,7.9984,7.9254,7.7861,7.6976,7.613,7.5255,7.487,7.4101,7.2745,7.186,7.0744,6.9344,6.8191,6.7333,6.6846,6.5333,6.3743,6.2098,6.1535,6.1112,0.0,8.3324,8.6632,8.4786,7.8938,7.2552,6.8513,6.2704,0.0,5.6049,5.5703,5.5703,5.578,5.5742,5.6088,5.7242,5.8165,0.0,0.0,7.3553,0.0,0.0,0.0,0.0,0.0,0.0,0.0,0.0,0.0,0.0,0.0,0.0,10.0985,10.0021,9.9869,9.9926,9.9994,9.8236,9.775,9.8596,9.6981,9.6251,9.6288,9.6288,0.0,0.0,0.0,0.0,0.0,9.6288,9.6288,9.6211,9.5326,9.4518,9.371,9.2828,9.2021,9.1364,9.1252,9.1252,9.1287,9.121,9.121,9.1056,9.0175,9.0514,9.1159,9.1129,9.0521,8.9752,8.8986,8.8067,8.7183,8.6368,8.617,8.6094,8.6094,8.6094,8.5863,8.506,8.4181,8.3297,8.2471,8.1662,8.1093,8.1093,8.1093,8.1093,8.1093,8.1093,8.1093,8.1093,8.0369,7.953,7.8685,7.7823,7.6929,7.6053,7.5216,7.4418,7.362,7.2745,7.1849,7.0937,6.9258,6.836,6.8321,6.5859,6.3858,6.229,6.2213,6.1728,6.5743,0.0,7.0514,6.7513,6.4897,6.2474,0.0,5.8434,5.7011,5.5934,5.5703,5.5895,5.6549,5.6126,5.7049,6.1166,0.0,0.0,6.9629,0.0,0.0,0.0,0.0,0.0,0.0,0.0,0.0,0.0,0.0,0.0,0.0,0.0,9.9368,9.669,9.7094,9.7629,9.8192,9.6603,9.618,9.6903,9.5933,9.5741,9.6288,9.6288,0.0,0.0,0.0,0.0,9.6288,9.6288,9.6288,9.6211,9.5326,9.4864,9.4518,9.3056,9.2749,9.2941,9.1672,9.1633,9.2095,9.1441,9.121,9.1056,9.0175,9.0517,9.1052,9.0367,9.0059,8.9867,8.9667,8.8512,8.7363,8.7166,8.6594,8.6094,8.6094,8.6094,8.5863,8.506,8.4181,8.3297,8.2471,8.1662,8.1093,8.1093,8.1093,8.1093,8.1093,8.1093,8.1093,8.1093,8.0939,8.0446,7.9569,7.813,7.6929,7.6053,7.5822,7.5293,7.4456,7.3619,7.2492,7.0937,6.9258,6.809,6.741,6.6167,6.5051,6.3988,6.333,6.2929,6.1358,6.2512,6.3205,6.1743,6.0165,5.8704,5.778,5.6973,5.628,5.578,5.5703,5.5818,5.6319,5.6319,5.7319,0.0,6.2704,0.0,0.0,0.0,0.0,0.0,0.0,0.0,0.0,0.0,0.0,0.0,0.0,0.0,0.0,0.0,9.7674,9.5547,9.5155,9.547,9.6573,9.5403,9.5134,9.5852,9.5425,9.5407,9.5821,9.6136,0.0,0.0,0.0,0.0,9.6288,9.6288,9.6288,9.6172,9.4903,9.4403,9.421,9.2518,9.2172,9.2402,9.1518,9.1518,9.1825,9.1364,9.121,9.1133,9.0636,9.0556,9.0514,9.0021,8.9332,8.8867,8.9239,8.8084,8.6819,8.6819,8.644,8.6094,8.6094,8.6094,8.5863,8.506,8.4516,8.3817,8.2509,8.1932,8.1516,8.117,8.1093,8.1093,8.1093,8.1093,8.1093,8.1093,8.1093,8.0592,7.93,7.8715,7.79,7.6698,7.6207,7.563,7.4755,7.3937,7.2514,7.0371,6.9436,6.8578,6.7705,6.7269,6.6423,6.518,6.473,6.4037,6.1281,6.1281,6.1281,6.1627,5.9973,5.828,5.8127,5.6973,5.5857,5.5742,5.5703,5.578,5.6049,5.6896,0.0,0.0,0.0,0.0,0.0,0.0,0.0,0.0,0.0,0.0,0.0,0.0,0.0,0.0,0.0,0.0,0.0,0.0,0.0,9.5364,9.3896,9.3708,9.4838,9.4084,9.4217,9.5138,9.4971,9.4963,9.5189,9.5862,0.0,0.0,0.0,0.0,9.5981,9.5981,9.5943,9.579,9.4177,9.3522,9.3326,9.1787,9.121,9.121,9.121,9.121,9.121,9.121,9.121,9.1171,9.0902,9.0283,8.9739,8.971,8.8679,8.7795,8.8512,8.7512,8.6247,8.6132,8.6094,8.6094,8.6094,8.6094,8.5863,8.506,8.478,8.4227,8.274,8.2394,8.2124,8.1554,8.1362,8.1285,8.1285,8.117,8.1093,8.1093,8.1093,8.0484,7.9031,7.9331,7.9054,7.7776,7.6746,7.5745,7.4755,7.3918,7.2419,7.014,6.9948,6.9459,6.8586,6.8616,6.7808,6.6282,6.6128,6.5295,6.3435,6.3474,6.2435,6.0396,5.9088,5.8127,5.7357,5.6973,5.6588,5.5857,5.5703,5.6165,5.7627,5.9165,6.0973,0.0,0.0,0.0,0.0,0.0,0.0,0.0,0.0,0.0,0.0,0.0,0.0,0.0,0.0,0.0,0.0,0.0,0.0,9.452,9.3565,9.2868,9.2351,9.2199,9.2896,9.4291,9.3664,9.3991,9.5189,9.5318,9.5363,0.0,0.0,9.501,9.4424,9.4424,9.4399,9.4179,9.3186,9.2753,9.2556,9.1556,9.121,9.121,9.121,9.121,9.121,9.121,9.121,9.0941,8.9517,8.8983,8.8867,8.8859,8.8709,8.8525,8.8666,8.7968,8.7012,8.6286,8.6094,8.6094,8.6094,8.6094,8.5863,8.506,8.4318,8.3734,8.3445,8.2785,8.2509,8.3118,8.2586,8.2124,8.2124,8.1516,8.1093,8.1093,8.1093,8.0977,8.0746,7.9469,7.8892,7.9369,7.7938,7.6361,7.4793,7.3927,7.2993,7.1849,7.1091,7.0294,6.9498,6.9487,6.8987,6.7999,6.7244,6.6769,6.1666,6.155,6.1089,6.0396,6.0281,6.0012,5.8665,5.8011,5.7588,5.7203,5.7088,5.752,5.8948,0.0,6.5734,7.194,0.0,0.0,0.0,0.0,0.0,0.0,0.0,0.0,0.0,0.0,0.0,0.0,0.0,0.0,0.0,0.0,0.0,0.0,9.2831,9.2207,9.1803,9.1803,9.2159,9.2821,9.2987,9.3387,9.4009,9.3932,9.3896,9.3858,0.0,9.3023,9.276,9.276,9.2692,9.2581,9.1735,9.1397,9.1337,9.0794,9.0606,9.0646,9.1064,9.121,9.121,9.121,9.121,9.0979,8.971,8.9056,8.8675,8.87,8.8021,8.7529,8.8444,8.7709,8.6594,8.6209,8.6094,8.6094,8.6094,8.6094,8.5863,8.506,8.4939,8.4664,8.3747,8.367,8.367,8.3632,8.2869,8.2292,8.2317,8.1593,8.1093,8.1093,8.1093,8.09,8.0446,8.0092,7.9315,7.7831,7.7468,7.6544,7.4793,7.4361,7.3542,7.2234,7.1811,7.1168,7.0333,7.0333,6.991,6.9075,6.8679,6.827,6.0396,6.0089,6.0012,6.0896,6.1281,6.1396,6.1089,6.0248,5.9777,6.0527,6.0265,6.03,0.0,6.5384,0.0,0.0,0.0,0.0,0.0,0.0,0.0,0.0,0.0,0.0,0.0,0.0,0.0,0.0,0.0,0.0,0.0,0.0,0.0,0.0,9.2244,9.1803,9.1803,9.1803,9.1803,9.1803,9.2399,9.283,9.295,9.2688,9.2561,9.2523,9.1695,9.1207,9.1037,9.1037,9.1076,9.098,9.0378,9.0147,9.0094,8.9944,8.9855,8.9946,9.0723,9.0914,9.0989,9.1136,9.1056,9.0748,8.9863,8.9056,8.8402,8.843,8.7291,8.6453,8.7987,8.7406,8.6363,8.617,8.6094,8.6094,8.6094,8.6094,8.594,8.5291,8.5522,8.5478,8.4388,8.4593,8.4753,8.4258,8.3456,8.2836,8.2624,8.1893,8.1285,8.1131,8.1093,8.0746,7.9869,8.0631,7.9708,7.6515,7.6736,7.6399,7.5062,7.4832,7.4101,7.2811,7.2388,7.1849,7.1206,7.1014,7.0591,6.9986,6.9794,6.936,6.2397,6.1897,6.0935,6.1781,6.0819,6.0704,6.4551,6.4346,6.4138,6.7088,6.6146,0.0,0.0,7.1445,0.0,0.0,0.0,0.0,0.0,0.0,0.0,0.0,0.0,0.0,0.0,0.0,0.0,0.0,0.0,0.0,0.0,0.0,0.0,0.0,0.0,9.1803,9.1803,9.1803,9.1803,9.1803,9.1839,9.2262,9.295,9.2156,9.1809,9.1771,9.0951,9.0212,8.9592,8.9592,8.9514,8.9435,8.9397,8.931,8.9197,8.9173,8.9136,8.9276,8.9946,9.016,9.0284,9.0989,9.0671,8.9863,8.9017,8.8209,8.7483,8.7512,8.6824,8.6324,8.7281,8.7396,8.7089,8.6286,8.6094,8.6094,8.6094,8.6094,8.6094,8.6017,8.5445,8.5176,8.5824,8.533,8.5137,8.5824,8.5214,8.4439,8.3618,8.2771,8.1932,8.117,8.1093,8.0746,7.9869,8.0631,7.9977,7.7352,7.6506,7.6053,7.5899,7.5139,7.4639,7.4524,7.2976,7.2157,7.208,7.1283,7.086,7.0821,7.0063,6.9679,6.005,6.0473,6.0742,6.055,6.1166,6.2477,6.4747,6.6413,6.7965,6.9795,7.0756,0.0,0.0,0.0,0.0,0.0,0.0,0.0,0.0,0.0,0.0,0.0,0.0,0.0,0.0,0.0,0.0,0.0,0.0,0.0,0.0,0.0,0.0,0.0,0.0,9.0555,9.1069,9.0555,9.0555,9.1069,9.1069,9.099,9.0747,8.9935,8.9529,8.9492,8.8679,8.7888,8.7215,8.7692,8.7311,8.6463,8.6943,8.7433,8.7861,8.8271,8.8446,8.856,8.9276,8.9476,8.9545,8.9711,8.9531,8.9113,8.8144,8.7637,8.7291,8.6748,8.6363,8.6286,8.7166,8.7012,8.6517,8.617,8.6094,8.6094,8.6094,8.6094,8.6094,8.6094,8.5863,8.5747,8.6055,8.5863,8.5747,8.6055,8.4945,8.3951,8.3638,8.2401,8.1439,8.1131,8.1093,8.0977,8.0669,8.0407,7.9869,7.8938,7.8545,7.7651,7.6053,7.6207,7.5822,7.4716,7.4063,7.3504,7.2993,7.2685,7.2531,7.2531,7.2195,7.1772,5.8127,5.8511,5.9065,5.8626,6.071,6.3602,6.6142,6.8975,7.1837,7.4636,7.574,7.6387,7.6707,0.0,0.0,0.0,0.0,0.0,0.0,0.0,0.0,0.0,0.0,0.0,0.0,0.0,0.0,0.0,0.0,0.0,0.0,0.0,0.0,0.0,0.0,8.9674,9.0225,8.9711,8.9564,8.9858,8.9858,8.9711,8.9381,8.8573,8.8059,8.7766,8.6958,8.6151,8.5453,8.604,8.56,8.4682,8.549,8.6151,8.6696,8.7443,8.7773,8.7861,8.8261,8.8425,8.8383,8.8246,8.8194,8.7947,8.7312,8.7033,8.6868,8.6286,8.6094,8.6247,8.6858,8.6555,8.6094,8.6094,8.6094,8.6094,8.6094,8.6094,8.6094,8.6094,8.6094,8.6094,8.6094,8.6094,8.6094,8.6094,8.4907,8.3912,8.3638,8.2362,8.1362,8.1131,8.1093,8.1093,8.1093,8.0523,8.01,7.9831,8.0046,7.9045,7.6524,7.6976,7.6621,7.5139,7.4832,7.4437,7.385,7.3619,7.3504,7.3504,7.3504,7.3042,5.7242,5.6357,5.583,5.6255,5.9268,6.3667,6.9444,7.2443,7.5864,8.2471,8.1369,7.9203,7.9444,0.0,0.0,0.0,0.0,0.0,0.0,0.0,0.0,0.0,0.0,0.0,0.0,0.0,0.0,0.0,0.0,0.0,0.0,0.0,0.0,0.0,0.0,0.0,8.9381,8.9381,8.8977,8.8169,8.8169,8.861,8.9344,8.8536,8.7729,8.6921,8.6114,8.5306,8.4609,8.4572,8.4572,8.4682,8.549,8.5783,8.5894,8.6701,8.6995,8.6985,8.687,8.6877,8.6868,8.6741,8.6548,8.6379,8.6379,8.6278,8.6094,8.6094,8.6094,8.6094,8.6094,8.6094,8.6094,8.6094,8.6094,8.6094,8.6094,8.6094,8.6094,8.6094,8.6094,8.6094,8.6094,8.6094,8.6094,8.6094,8.5406,8.4593,8.3695,8.2848,8.197,8.117,8.1093,8.1093,8.1093,8.1093,8.0746,7.9869,8.0631,7.9946,7.7393,7.7323,7.6929,7.6015,7.5139,7.4716,7.4716,7.3918,7.3505,7.3505,7.3505,7.3082,5.7396,5.7489,5.8336,5.9958,0.0,6.7844,7.4014,7.5994,7.8344,8.4666,8.4703,8.3487,8.3076,0.0,0.0,0.0,0.0,0.0,0.0,0.0,0.0,0.0,0.0,0.0,0.0,0.0,0.0,0.0,0.0,0.0,0.0,0.0,0.0,0.0,0.0,0.0,8.7729,8.6591,8.6187,8.6518,8.593,8.6077,8.6848,8.6628,8.6077,8.5306,8.5049,8.4499,8.3728,8.3141,8.3581,8.4609,8.4866,8.4976,8.5049,8.5857,8.5783,8.5337,8.5308,8.5263,8.5334,8.565,8.5712,8.5743,8.6088,8.6146,8.6094,8.6094,8.6094,8.6094,8.6094,8.6094,8.6094,8.6094,8.6094,8.6094,8.6094,8.6094,8.6286,8.6896,8.6517,8.6286,8.6935,8.6517,8.6094,8.6094,8.5406,8.433,8.2855,8.197,8.1362,8.1131,8.1093,8.1093,8.1093,8.1093,8.0977,8.0746,8.0977,7.9946,7.7393,7.843,7.8074,7.6053,7.6322,7.6207,7.563,7.537,7.5255,7.5255,7.5255,7.4793,5.698,5.7813,5.9493,6.2008,6.6248,7.1517,7.8142,0.0,0.0,0.0,8.7386,8.6121,8.6035,0.0,0.0,0.0,0.0,0.0,0.0,0.0,0.0,0.0,0.0,0.0,0.0,0.0,0.0,0.0,0.0,0.0,0.0,0.0,0.0,0.0,0.0,0.0,8.604,8.4792,8.4535,8.5306,8.4168,8.3911,8.4389,8.5013,8.4866,8.4095,8.3471,8.27,8.1966,8.1782,8.2296,8.3251,8.3875,8.4132,8.4242,8.5013,8.5013,8.4499,8.3875,8.3875,8.4036,8.3392,8.372,8.4465,8.4762,8.5207,8.5709,8.6017,8.6094,8.617,8.6517,8.6363,8.6094,8.6094,8.6094,8.6094,8.6094,8.6094,8.6247,8.6781,8.6445,8.6291,8.6786,8.617,8.5599,8.5599,8.4637,8.3368,8.1977,8.14,8.1093,8.1093,8.1093,8.1093,8.1093,8.1093,8.1093,8.1093,8.1093,8.0254,7.8346,7.9238,7.8883,7.7024,7.7506,7.7352,7.6544,7.6544,7.6322,7.6015,7.6015,7.5553,5.6415,5.7682,5.9836,6.336,6.9035,0.0,8.2109,8.6672,8.9822,9.1176,0.0,8.7655,0.0,0.0,0.0,0.0,0.0,0.0,0.0,0.0,0.0,0.0,0.0,0.0,0.0,0.0,0.0,0.0,0.0,0.0,0.0,0.0,0.0,0.0,0.0,0.0,8.4278,8.3471,8.3434,0.0,8.2663,8.1966,8.2039,8.3581,8.3838,8.2994,8.1525,8.0461,7.9837,8.0571,8.0901,8.1048,8.259,8.3141,8.3177,8.3985,8.4242,8.3948,8.248,8.248,8.27,8.0625,8.1139,8.2711,8.2824,8.3806,8.4983,8.5786,8.6017,8.6209,8.6973,8.6555,8.5945,8.6017,8.6055,8.6094,8.6094,8.6094,8.6132,8.6209,8.6142,8.6146,8.6209,8.5483,8.4868,8.4791,8.3374,8.2067,8.1323,8.1131,8.1093,8.1093,8.1093,8.1093,8.1093,8.1093,8.1093,8.1093,8.1093,8.0746,7.9946,7.9922,7.9499,7.85,7.8584,7.819,7.7314,7.7352,7.6929,7.6015,7.6092,7.5668,5.7197,5.8367,6.1312,6.8147,7.6818,8.4419,8.7365,8.9735,9.0806,8.9305,8.9931,0.0,0.0,0.0,0.0,0.0,0.0,0.0,0.0,0.0,0.0,0.0,0.0,0.0,0.0,0.0,0.0,0.0,0.0,0.0,0.0,0.0,0.0,0.0,0.0,8.1782,8.1782,8.0975,8.0645,0.0,8.0461,8.0314,8.0351,8.1342,8.1342,8.0534,8.0204,7.9947,7.98,7.9984,8.0057,8.0167,8.1122,8.1122,8.0681,8.1489,8.1379,8.0755,8.0424,8.0424,8.0588,8.0592,8.0879,8.1454,8.2411,8.3397,8.4258,8.4983,8.5214,8.5368,8.5522,8.5109,8.4729,8.5214,8.5747,8.6094,8.6094,8.6094,8.6286,8.7012,8.6594,8.6291,8.7012,8.5901,8.4637,8.3971,8.2971,8.2247,8.2047,8.1477,8.1093,8.1093,8.1093,8.1093,8.1093,8.1093,8.1093,8.1093,8.1093,8.1016,8.0823,8.0823,8.0092,7.85,7.9177,7.8792,7.7309,7.7929,7.7468,7.6015,7.6698,7.6544,5.7049,5.9665,6.4606,7.4088,8.2012,8.7874,8.9562,9.0922,9.1436,9.0188,0.0,0.0,0.0,0.0,0.0,0.0,0.0,0.0,0.0,0.0,0.0,0.0,0.0,0.0,0.0,0.0,0.0,0.0,0.0,0.0,0.0,0.0,0.0,0.0,8.0865,8.0424,8.0424,7.9617,7.9396,7.9764,7.8993,7.8589,7.8626,7.9874,7.9984,7.9213,7.9213,7.8993,7.8626,7.9029,7.9213,7.9286,8.0094,8.0167,7.9837,8.0277,8.0167,7.9727,7.936,7.947,7.9717,7.9261,7.9781,8.0718,8.1434,8.2146,8.2945,8.4066,8.422,8.4205,8.5023,8.4719,8.4443,8.5496,8.566,8.5709,8.6017,8.6094,8.6132,8.6209,8.617,8.6132,8.6209,8.5132,8.3856,8.2586,8.2009,8.1739,8.1739,8.1362,8.1093,8.1093,8.1093,8.1093,8.1093,8.1093,8.1093,8.1093,8.1093,8.1093,8.1093,8.1093,8.0669,7.9754,8.0177,7.9792,7.85,7.893,7.8237,7.6647,7.7506,7.7391,5.6093,6.1042,6.8543,7.9203,8.4995,0.0,9.0188,9.1106,9.1583,9.1583,0.0,0.0,0.0,0.0,0.0,0.0,0.0,0.0,0.0,0.0,0.0,0.0,0.0,0.0,0.0,0.0,0.0,0.0,0.0,0.0,0.0,0.0,8.0975,7.9617,7.9433,7.936,7.936,7.8699,7.8699,7.936,7.7965,7.7304,7.7378,7.8736,7.8993,7.8369,7.8369,7.7965,7.7378,7.8075,7.8369,7.8442,7.9103,7.936,7.936,7.936,7.936,7.925,7.8626,7.8809,7.914,7.7781,7.848,7.9916,8.004,8.0557,8.1406,8.3066,8.3028,8.2893,8.442,8.4183,8.3977,8.5263,8.5145,8.4907,8.5747,8.5901,8.5637,8.483,8.5214,8.5406,8.4599,8.3824,8.2887,8.1323,8.1093,8.1093,8.1093,8.1093,8.1093,8.1093,8.1093,8.1093,8.1093,8.1093,8.1093,8.1093,8.1093,8.1093,8.1093,8.1093,8.1093,8.1093,8.1093,8.0669,7.9792,7.9961,7.9161,7.7508,7.8353,7.8305,5.3981,6.2142,7.2316,8.0184,8.4676,8.7766,0.0,0.0,9.0776,0.0,0.0,0.0,0.0,0.0,0.0,0.0,0.0,0.0,0.0,0.0,0.0,0.0,0.0,0.0,0.0,0.0,0.0,0.0,0.0,0.0,0.0,7.947,7.8993,7.8772,7.8038,7.7635,7.7635,7.7561,7.7561,7.7635,7.7414,7.7304,7.7341,7.7561,7.7598,7.7488,7.7488,7.7414,7.7341,7.7451,7.7488,7.7488,7.7598,7.7635,7.7635,7.7635,7.7635,7.7635,7.7524,7.7561,7.7635,7.7378,7.75,7.7842,7.8391,7.916,8.0075,8.1583,8.1533,8.1318,8.2202,8.1809,8.1409,8.2386,8.2772,8.3303,8.4753,8.506,8.483,8.3951,8.3874,8.3682,8.2803,8.2561,8.2163,8.1246,8.1093,8.1093,8.1093,8.1093,8.1093,8.1093,8.1093,8.1093,8.1093,8.1093,8.1093,8.1093,8.1093,8.1093,8.1093,8.1093,8.1093,8.1093,8.1093,8.0669,7.9792,8.0554,8.0023,7.8346,7.9229,7.9191,5.84,6.4315,7.1248,7.947,8.3618,8.6297,8.872,8.9968,9.0482,0.0,0.0,0.0,0.0,0.0,0.0,0.0,0.0,0.0,0.0,0.0,0.0,0.0,0.0,0.0,0.0,0.0,0.0,0.0,0.0,8.0351,7.9176,7.8772,7.8369,7.7892,7.7524,7.7304,7.7304,7.7304,7.7304,7.7304,7.7304,7.7304,7.7304,7.7304,7.7304,7.7304,7.7304,7.7304,7.7304,7.7304,7.7304,7.7304,7.7304,7.7304,7.7304,7.7304,7.7304,7.7304,7.7304,7.7304,7.7304,7.7304,7.757,7.794,7.8202,7.8574,7.9065,8.0124,8.0037,7.9779,8.0577,8.0748,8.0892,8.1642,8.2195,8.2765,8.332,8.3824,8.4087,8.367,8.3208,8.2753,8.2369,8.2285,8.2047,8.1208,8.1093,8.1093,8.1093,8.1093,8.1093,8.1093,8.1093,8.1093,8.1093,8.1093,8.1093,8.1093,8.1093,8.1093,8.1093,8.1093,8.1093,8.1093,8.1093,8.09,8.0523,8.09,8.0446,7.9261,8.0123,8.0054,5.9742,6.3539,6.7834,7.6166,8.0498,8.3544,0.0,0.0,8.9344,0.0,0.0,0.0,0.0,0.0,0.0,0.0,0.0,0.0,0.0,0.0,0.0,0.0,0.0,0.0,0.0,0.0,0.0,0.0,0.0,7.914,7.8295,7.8259,7.7965,7.7341,7.7304,7.7304,7.7304,7.7304,7.7304,7.7304,7.7304,7.7304,7.7304,7.7304,7.7304,7.7304,7.7304,7.7304,7.7304,7.7304,7.7304,7.7304,7.7304,7.7304,7.7304,7.7304,7.7304,7.7304,7.7304,7.7304,7.7304,7.7304,7.7629,7.8034,7.8062,7.8085,7.822,7.9067,7.8798,7.8516,7.9486,8.0042,8.0503,8.1215,8.1777,8.2219,8.2288,8.2624,8.2964,8.2964,8.2432,8.2009,8.2009,8.2009,8.1816,8.117,8.1093,8.1093,8.1093,8.1093,8.1093,8.1093,8.1093,8.1093,8.1093,8.1093,8.1093,8.1093,8.1093,8.1093,8.1093,8.1093,8.1093,8.1093,8.1093,8.1093,8.1093,8.1093,8.0785,8.0138,8.0823,8.0746,5.3041,5.7189,6.2365,6.9009,7.4221,7.8956,0.0,0.0,0.0,0.0,0.0,0.0,0.0,0.0,0.0,0.0,0.0,0.0,0.0,0.0,0.0,0.0,0.0,0.0,0.0,0.0,0.0,0.0,0.0,7.8295,7.7414,7.7378,7.7378,7.7304,7.7304,7.7304,7.7304,7.7304,7.7304,7.7304,7.7304,7.7304,7.7304,7.7304,7.7304,7.7304,7.7304,7.7304,7.7304,7.7304,7.7304,7.7304,7.7304,7.7304,7.7304,7.7304,7.7304,7.7304,7.7304,7.7304,7.7304,7.7304,7.7304,7.7365,7.7341,7.7341,7.7549,7.8405,7.8038,7.7744,7.9168,7.9402,7.9466,8.0245,8.081,8.1381,8.2131,8.1739,8.1208,8.1208,8.117,8.117,8.117,8.117,8.1131,8.1093,8.1093,8.1093,8.1093,8.1093,8.1093,8.1093,8.1093,8.1093,8.1093,8.1093,8.1093,8.1093,8.1093,8.1093,8.1093,8.1093,8.1093,8.1093,8.1093,8.1093,8.1093,8.1093,8.1093,8.1016,8.1093,8.1093,5.473,5.6418,5.8988,6.6035,7.066,7.4331,7.7635,8.1819,8.4903,0.0,0.0,0.0,0.0,0.0,0.0,0.0,0.0,0.0,0.0,0.0,0.0,0.0,0.0,0.0,0.0,0.0,0.0,0.0,0.0,0.0,7.7341,7.7304,7.7304,7.7304,7.7304,7.7084,7.6533,7.6019,7.6019,7.6533,7.6533,7.6827,7.7304,7.7304,7.7304,7.7304,7.7304,7.7304,7.7304,7.7304,7.7304,7.7304,7.7304,7.7304,7.7304,7.7304,7.7304,7.7304,7.7304,7.7304,7.7304,7.7304,7.7304,7.7304,7.7304,7.7304,7.7378,7.7708,7.7561,7.7512,7.85,7.8975,7.9471,8.0583,8.0635,8.0669,8.1362,8.1285,8.1093,8.1093,8.1516,8.1739,8.117,8.1516,8.1701,8.117,8.1093,8.1093,8.1093,8.1093,8.1093,8.1093,8.1093,8.1093,8.1093,8.1093,8.1093,8.1093,8.1093,8.1093,8.1093,8.1093,8.1093,8.1093,8.1093,8.1093,8.1093,8.1093,8.1093,8.1093,8.1093,8.1093,5.4289,5.4987,5.6822,6.3576,6.6659,6.9339,7.4184,0.0,8.1012,0.0,0.0,0.0,0.0,0.0,0.0,0.0,0.0,0.0,0.0,0.0,0.0,0.0,0.0,0.0,0.0,0.0,0.0,0.0,0.0,0.0,7.7304,7.7304,7.7194,7.6937,7.69,7.6533,7.5726,7.5175,7.5322,7.6093,7.6093,7.6533,7.7304,7.7047,7.7047,7.7304,7.7011,7.7084,7.7304,7.7304,7.7304,7.7304,7.7304,7.7304,7.7304,7.7304,7.7304,7.7304,7.7304,7.7304,7.7304,7.7304,7.7304,7.7304,7.7304,7.7304,7.7304,7.7304,7.7451,7.7794,7.847,7.9029,7.9665,8.0317,8.01,7.9977,8.0618,8.0767,8.0823,8.1054,8.1516,8.1708,8.1215,8.1554,8.1816,8.1516,8.1246,8.1208,8.1477,8.1246,8.1093,8.1093,8.1093,8.1093,8.1093,8.1093,8.1093,8.1093,8.1093,8.1093,8.1093,8.1093,8.1093,8.1093,8.1093,8.1093,8.1093,8.1093,8.1093,8.1093,8.1093,8.1093,0.0,0.0,0.0,6.119,6.2034,6.398,7.345,0.0,7.4625,0.0,0.0,0.0,0.0,0.0,0.0,0.0,0.0,0.0,0.0,0.0,0.0,0.0,0.0,0.0,0.0,0.0,0.0,0.0,0.0,7.7304,7.7304,7.7304,7.6937,7.613,7.6056,7.5652,7.4882,7.4845,7.5249,7.6019,7.6019,7.646,7.7268,7.646,7.6533,7.7268,7.6497,7.6607,7.7304,7.7304,7.7304,7.7304,7.7304,7.7304,7.7304,7.7304,7.7304,7.7304,7.7304,7.7304,7.7304,7.7304,7.7304,7.7304,7.7304,7.7304,7.7304,7.7304,7.7806,7.844,7.9007,7.9616,7.996,7.9352,7.9198,7.9362,8.0003,8.0091,8.0292,8.0977,8.1131,8.1138,8.1118,8.1106,8.14,8.2163,8.1593,8.14,8.2201,8.1593,8.1093,8.1131,8.1131,8.1131,8.1131,8.1131,8.1131,8.1093,8.1093,8.1093,8.1093,8.1093,8.1093,8.1093,8.1093,8.1093,8.1093,8.1093,8.1093,8.1093,8.1093,8.1093,5.2601,0.0,0.0,0.0,0.0,0.0,6.3135,6.6256,6.9486,0.0,0.0,0.0,0.0,0.0,0.0,0.0,0.0,0.0,0.0,0.0,0.0,0.0,0.0,0.0,0.0,0.0,0.0,0.0,7.7304,7.7304,7.7304,7.6754,7.635,7.6093,7.4955,7.4258,7.4037,7.345,7.356,7.4368,7.4368,7.5102,7.6423,7.6203,7.6533,7.7304,7.7084,7.7121,7.7304,7.7304,7.7304,7.7304,7.7304,7.7304,7.7304,7.7304,7.7304,7.7304,7.7304,7.7304,7.7304,7.7304,7.7304,7.7304,7.7304,7.7304,7.7304,7.7304,7.7451,7.7752,7.8397,7.8995,7.9418,7.9215,7.9178,7.9389,7.9939,8.0091,8.0292,8.0977,8.1554,8.1785,8.1215,8.1593,8.2047,8.2278,8.1606,8.1414,8.2201,8.1593,8.1323,8.1932,8.197,8.197,8.197,8.197,8.1739,8.1131,8.1093,8.1093,8.1093,8.1093,8.1093,8.1093,8.1093,8.1093,8.1093,8.1093,8.1093,8.1093,8.1093,8.1093,0.0,0.0,5.4032,0.0,0.0,0.0,6.0089,6.2144,6.4383,0.0,0.0,0.0,0.0,0.0,0.0,0.0,0.0,0.0,0.0,0.0,0.0,0.0,0.0,0.0,0.0,0.0,0.0,7.7304,7.7304,7.7157,7.6827,7.6056,7.5469,7.5102,7.4184,7.3523,7.3193,7.2716,7.2899,7.3707,7.3707,7.4368,7.5579,7.5249,7.5542,7.6313,7.5946,7.6019,7.635,7.668,7.7011,7.7304,7.7304,7.7304,7.7304,7.7304,7.7304,7.7304,7.7304,7.7304,7.7304,7.7304,7.7304,7.7304,7.7304,7.7304,7.7304,7.7304,7.7488,7.7799,7.8191,7.8544,7.8713,7.8492,7.8603,7.8965,7.9616,7.9932,8.0292,8.0977,8.1477,8.1662,8.117,8.1477,8.2047,8.2771,8.2106,8.2035,8.3233,8.2663,8.2317,8.281,8.2824,8.2862,8.2862,8.2509,8.224,8.2163,8.1816,8.1778,8.2124,8.1816,8.1593,8.1593,8.1246,8.1093,8.1093,8.1093,8.1093,8.1093,8.1093,8.1093,0.0,0.0,0.0,0.0,0.0,0.0,6.0823,6.0419,5.9942,6.2952,0.0,0.0,0.0,0.0,0.0,0.0,0.0,0.0,0.0,0.0,0.0,0.0,0.0,0.0,0.0,7.7304,7.7268,7.7194,7.7084,7.6717,7.6019,7.5212,7.4441,7.3707,7.3597,7.323,7.2496,7.2496,7.2863,7.356,7.356,7.4001,7.4735,7.4037,7.4147,7.4882,7.4147,7.4258,7.4955,7.5763,7.6533,7.7194,7.7304,7.7304,7.7304,7.7304,7.7304,7.7304,7.7304,7.7304,7.7304,7.7304,7.7304,7.7304,7.7304,7.7304,7.7304,7.7304,7.7708,7.8174,7.8174,7.8174,7.8027,7.7451,7.7843,7.8443,7.9086,7.9677,8.0292,8.0862,8.1054,8.1131,8.1208,8.1246,8.1855,8.3464,8.2984,8.3028,8.4658,8.4119,8.3657,8.3734,8.3715,8.3759,8.3759,8.3054,8.2855,8.3541,8.2855,8.274,8.3426,8.2701,8.2278,8.2163,8.1439,8.1093,8.1093,8.1093,8.1093,8.1093,8.1093,8.1093,0.0,0.0,0.0,0.0,0.0,0.0,5.6528,5.7189,5.8621,0.0,0.0,0.0,0.0,0.0,0.0,0.0,0.0,0.0,0.0,0.0,0.0,0.0,0.0,0.0,0.0,7.7304,7.7047,7.6387,7.5726,7.5322,7.5139,7.4368,7.3854,7.3707,7.3083,7.2679,7.2496,7.2496,7.2569,7.2716,7.2716,7.3156,7.3927,7.378,7.4147,7.4918,7.4735,7.4771,7.4955,7.5763,7.6203,7.6387,7.7047,7.7304,7.7304,7.7304,7.7304,7.7304,7.7304,7.7304,7.7304,7.7304,7.7304,7.7304,7.7304,7.7304,7.7304,7.7304,7.7414,7.7488,7.7488,7.7488,7.7451,7.7341,7.7843,7.8443,7.9086,7.9677,8.0138,8.0254,8.0823,8.1439,8.197,8.2201,8.2848,8.4419,8.3901,8.372,8.4786,8.4138,8.3868,8.4561,8.4637,8.4676,8.4676,8.4484,8.417,8.3618,8.3439,8.3105,8.2605,8.2381,8.199,8.1362,8.117,8.1093,8.1093,8.1093,8.1093,8.1093,8.1093,8.1093,0.0,0.0,0.0,5.7409,0.0,0.0,0.0,5.6198,5.6565,5.7776,0.0,0.0,0.0,0.0,0.0,0.0,0.0,0.0,0.0,0.0,0.0,0.0,0.0,0.0,0.0,7.5873,7.5763,7.4955,7.4515,7.4147,7.3744,7.3303,7.2936,7.2532,7.2129,7.1908,7.1908,7.1908,7.2092,7.2496,7.2092,7.2312,7.3083,7.2679,7.2936,7.3707,7.3707,7.3707,7.378,7.4551,7.5139,7.5616,7.6864,7.7304,7.7304,7.7304,7.7304,7.7304,7.7304,7.7304,7.7304,7.7304,7.7304,7.7304,7.7304,7.7304,7.7304,7.7304,7.7304,7.7304,7.7304,7.7304,7.7304,7.7304,7.7843,7.8374,7.8688,7.9515,8.0254,8.0254,8.1269,8.1906,8.1301,8.1536,8.2407,8.4016,8.3868,8.4066,8.533,8.5137,8.5022,8.5445,8.5483,8.5483,8.5483,8.5137,8.4868,8.4856,8.4445,8.4066,8.3605,8.3176,8.2401,8.1131,8.1093,8.1093,8.1093,8.1093,8.1093,8.1093,8.1093,8.1093,0.0,0.0,0.0,0.0,0.0,5.8694,0.0,0.0,0.0,0.0,0.0,0.0,0.0,0.0,0.0,0.0,0.0,0.0,0.0,0.0,0.0,0.0,0.0,0.0,0.0,7.3487,7.345,7.323,7.2642,7.2239,7.2055,7.2055,7.1762,7.1101,7.1064,7.1138,7.1321,7.1321,7.1725,7.2496,7.1688,7.1725,7.2459,7.1688,7.1762,7.2496,7.2496,7.2496,7.2569,7.3377,7.4074,7.4845,7.646,7.7194,7.7304,7.7304,7.7304,7.7304,7.7304,7.7304,7.7304,7.7304,7.7304,7.7304,7.7304,7.7304,7.7304,7.7304,7.7304,7.7304,7.7304,7.7304,7.7304,7.7304,7.7671,7.8137,7.8247,7.929,8.0238,8.0239,8.1632,8.2351,8.0867,8.1186,8.2073,8.3374,8.372,8.4335,8.5709,8.6017,8.6094,8.6094,8.6094,8.6094,8.6094,8.5483,8.5406,8.6055,8.5483,8.4983,8.4676,8.3664,8.2471,8.1131,8.1093,8.1093,8.1093,8.1093,8.1093,8.1093,8.1093,8.1093,0.0,0.0,0.0,0.0,6.3906,0.0,0.0,0.0,0.0,0.0,0.0,0.0,0.0,0.0,0.0,0.0,0.0,0.0,0.0,0.0,0.0,0.0,0.0,0.0,0.0,0.0,6.9376,7.1431,6.8935,6.8201,7.0257,7.0367,7.033,7.022,7.022,7.0587,7.1321,7.1321,7.1725,7.2496,7.1688,7.1725,7.2459,7.1688,7.1762,7.2496,7.2496,7.2496,7.2569,7.3377,7.3744,7.4001,7.5616,7.668,7.7304,7.7304,7.7304,7.7304,7.7304,7.7304,7.7304,7.7304,7.7304,7.7304,7.7304,7.7304,7.7304,7.7304,7.7304,7.7304,7.7304,7.7304,7.7304,7.7304,7.7378,7.7561,7.8137,7.898,7.9623,7.9596,8.124,8.2549,8.234,8.2995,8.358,8.3618,8.4247,8.483,8.5022,8.567,8.6094,8.6094,8.6094,8.6094,8.6094,8.6017,8.6017,8.6094,8.6017,8.5291,8.3835,8.2215,8.1285,8.1093,8.1093,8.1093,8.1093,8.1093,8.1093,8.1093,8.1093,8.1093,0.0,0.0,0.0,0.0,0.0,0.0,0.0,0.0,5.807,0.0,0.0,0.0,0.0,0.0,0.0,0.0,0.0,0.0,0.0,0.0,0.0,0.0,0.0,0.0,0.0,0.0,0.0,0.0,0.0,6.6256,6.7247,6.8641,6.9412,6.9412,6.9412,6.9559,6.9926,6.9926,7.033,7.1101,7.0293,7.0587,7.1798,7.0991,7.1064,7.1835,7.2312,7.2239,7.1872,7.2679,7.3266,7.3817,7.4955,7.5909,7.6607,7.6607,7.69,7.7304,7.7304,7.7304,7.7304,7.7304,7.7304,7.7304,7.7304,7.7304,7.7304,7.7304,7.7304,7.7304,7.7304,7.7304,7.7304,7.7304,7.7304,7.7378,7.7635,7.8713,7.9805,8.0158,8.2039,8.3483,8.3367,8.3548,8.3695,8.358,8.435,8.5087,8.5555,8.5901,8.6094,8.6094,8.6094,8.6094,8.6094,8.6094,8.6094,8.6094,8.5176,8.4099,8.2901,8.1708,8.1093,8.1093,8.1093,8.1093,8.1093,8.1093,8.1093,8.1093,8.1093,8.1093,6.4934,0.0,0.0,0.0,0.0,0.0,0.0,0.0,0.0,0.0,0.0,0.0,0.0,0.0,0.0,0.0,0.0,0.0,0.0,0.0,0.0,0.0,0.0,0.0,0.0,0.0,0.0,0.0,0.0,0.0,6.4237,6.6366,6.7687,6.7907,6.8348,6.8678,6.8898,6.8898,6.9302,7.0073,6.9302,6.9633,7.0954,7.0146,7.033,7.1358,7.1945,7.1982,7.1688,7.2275,7.2826,7.345,7.4258,7.5065,7.5836,7.6276,7.6827,7.7304,7.7304,7.7304,7.7304,7.7304,7.7304,7.7304,7.7304,7.7304,7.7304,7.7304,7.7304,7.7304,7.7304,7.7304,7.7304,7.7304,7.7488,7.7635,7.7635,7.8958,8.0246,8.08,8.2682,8.4116,8.3671,8.3785,8.3888,8.3625,8.435,8.512,8.5709,8.5978,8.6094,8.6094,8.6094,8.6094,8.6094,8.5901,8.567,8.5406,8.4253,8.3208,8.2355,8.1516,8.1093,8.1093,8.1093,8.1093,8.1093,8.1093,8.1093,8.1093,8.1093,8.1093,0.0,0.0,0.0,6.5411,0.0,0.0,0.0,0.0,6.2181,0.0,0.0,0.0,0.0,0.0,0.0,5.8253,0.0,0.0,0.0,0.0,0.0,0.0,0.0,0.0,0.0,0.0,0.0,0.0,0.0,0.0,6.1557,6.3319,6.4604,6.5411,6.6916,6.8091,6.8898,6.8898,6.9302,7.0073,6.9302,6.9339,7.011,6.9302,6.9816,7.1321,7.1358,7.1798,7.2459,7.2496,7.2532,7.2606,7.3413,7.4221,7.5139,7.6717,7.7304,7.7304,7.7304,7.7304,7.7304,7.7304,7.7304,7.7304,7.7304,7.7304,7.7304,7.7304,7.7304,7.7304,7.7304,7.7304,7.7304,7.7304,7.7953,7.8566,7.8566,7.9793,8.0997,8.0984,8.2745,8.3922,8.3072,8.401,8.4581,8.372,8.4335,8.4907,8.4945,8.5599,8.6094,8.6094,8.6094,8.6094,8.6094,8.5368,8.4566,8.3759,8.3664,8.3195,8.2317,8.1516,8.1093,8.1093,8.1093,8.1093,8.1093,8.1093,8.1093,8.1093,8.1093,8.1093,0.0,0.0,7.2863,6.776,0.0,0.0,0.0,0.0,0.0,0.0,0.0,0.0,0.0,0.0,6.0236,5.9685,5.8694,0.0,0.0,0.0,0.0,0.0,0.0,0.0,0.0,0.0,0.0,0.0,0.0,0.0,0.0,6.097,6.3062,6.4457,6.6072,6.7283,6.8091,6.8091,6.8238,6.8495,6.8238,6.8531,6.9302,6.9009,6.9486,7.055,7.1064,7.1468,7.1762,7.2275,7.2826,7.3377,7.4184,7.4992,7.5763,7.6313,7.6864,7.7304,7.7304,7.7304,7.7304,7.7304,7.7304,7.7304,7.7304,7.7304,7.7304,7.7304,7.7304,7.7304,7.7304,7.7304,7.7451,7.8027,7.8419,7.8725,7.9233,8.0214,8.1085,8.1571,8.3047,8.4242,8.432,8.5093,8.5434,8.4599,8.5176,8.5709,8.5709,8.594,8.6094,8.6094,8.6094,8.5901,8.533,8.4516,8.367,8.2803,8.2747,8.2355,8.1516,8.1246,8.1093,8.1093,8.1093,8.1093,8.1093,8.1093,8.1093,8.1093,8.1093,8.1093,7.1468,7.3083,0.0,0.0,6.8531,0.0,6.3135,0.0,0.0,0.0,0.0,0.0,0.0,0.0,0.0,6.1263,5.9648,5.796,0.0,5.5941,0.0,0.0,0.0,0.0,0.0,0.0,0.0,0.0,0.0,0.0,0.0,0.0,6.1484,6.3135,6.5338,6.688,6.7687,6.7687,6.7687,6.7687,6.7687,6.7944,6.8458,6.8458,6.8898,6.9706,7.0513,7.1064,7.1358,7.2165,7.2973,7.378,7.4588,7.5395,7.613,7.6423,7.6864,7.7304,7.7304,7.7304,7.7304,7.7304,7.7304,7.7304,7.7304,7.7304,7.7378,7.7708,7.7561,7.7378,7.7671,7.7806,7.7843,7.8063,7.8552,7.9187,7.9654,8.0166,8.0882,8.1929,8.2949,8.3988,8.4669,8.5483,8.594,8.5406,8.5786,8.6094,8.6094,8.6094,8.6094,8.6094,8.5863,8.5209,8.4093,8.4042,8.3433,8.199,8.2439,8.224,8.1131,8.1093,8.1516,8.2432,8.1554,8.1554,8.2432,8.1516,8.1093,8.1093,8.1093,8.1093]},{"header":{"parameterUnit":"m.s-1","parameterCategory":1,"la1":30.6,"la2":29.2853,"lo1":-89.7004,"lo2":-87.6739,"dy":0.0162,"dx":0.0183,"nx":112,"ny":82,"refTime":"2024-03-16T06:00:00:Z","depth":0,"parameterNumber":3,"parameterNumberName":"V-component_of_WINDS"},"data":[0.0,0.0,0.0,0.0,0.0,0.0,0.0,0.0,0.0,0.0,0.0,0.0,0.0,0.0,0.0,0.0,0.0,0.0,0.0,0.0,0.0,0.0,0.0,0.0,0.0,0.0,0.0,0.0,0.0,0.0,0.0,0.0,0.0,0.0,0.0,0.0,0.0,0.0,0.0,0.0,0.0,0.0,0.0,0.0,0.0,0.0,0.0,0.0,0.0,0.0,0.0,0.0,0.0,0.0,0.0,0.0,0.0,0.0,0.0,0.0,0.0,0.0,0.0,0.0,0.0,0.0,0.0,0.0,0.0,0.0,0.0,0.0,0.0,0.0,0.0,0.0,0.0,0.0,0.0,0.0,0.0,0.0,0.0,0.0,0.0,0.0,0.0,0.0,0.0,0.0,0.0,0.0,0.0,0.0,0.0,0.0,0.0,0.0,0.0,0.0,0.0,0.0,0.0,0.0,0.0,0.0,0.0,0.0,0.0,0.0,0.0,0.0,0.0,0.0,0.0,0.0,0.0,0.0,0.0,0.0,0.0,0.0,0.0,0.0,0.0,0.0,0.0,0.0,0.0,0.0,0.0,0.0,0.0,0.0,0.0,0.0,0.0,0.0,0.0,0.0,0.0,0.0,0.0,0.0,0.0,0.0,0.0,0.0,0.0,0.0,0.0,0.0,0.0,0.0,0.0,0.0,0.0,0.0,0.0,0.0,0.0,0.0,0.0,0.0,0.0,0.0,0.0,0.0,0.0,0.0,0.0,0.0,0.0,0.0,0.0,0.0,0.0,0.0,0.0,0.0,0.0,0.0,0.0,0.0,0.0,0.0,0.0,0.0,0.0,0.0,0.0,0.0,0.0,0.0,0.0,0.0,0.0,0.0,0.0,0.0,0.0,0.0,0.0,0.0,0.0,0.0,0.0,0.0,0.0,0.0,0.0,0.0,0.0,0.0,0.0,0.0,0.0,0.0,0.0,0.0,0.0,0.0,0.0,0.0,0.0,0.0,0.0,0.0,0.0,0.0,0.0,0.0,0.0,0.0,0.0,0.0,0.0,0.0,0.0,0.0,0.0,0.0,0.0,0.0,0.0,0.0,0.0,0.0,0.0,0.0,0.0,0.0,0.0,0.0,0.0,0.0,0.0,0.0,0.0,0.0,0.0,0.0,0.0,0.0,0.0,0.0,0.0,0.0,0.0,0.0,0.0,0.0,0.0,0.0,0.0,0.0,0.0,0.0,0.0,0.0,0.0,0.0,0.0,0.0,0.0,0.0,0.0,0.0,0.0,0.0,0.0,0.0,0.0,0.0,0.0,0.0,0.0,0.0,0.0,0.0,0.0,0.0,0.0,0.0,0.0,0.0,0.0,0.0,0.0,0.0,0.0,0.0,0.0,0.0,0.0,0.0,0.0,0.0,0.0,0.0,0.0,0.0,0.0,0.0,0.0,0.0,0.0,0.0,0.0,0.0,0.0,0.0,0.0,0.0,0.0,0.0,0.0,0.0,0.0,0.0,0.0,0.0,0.0,0.0,0.0,0.0,0.0,0.0,0.0,0.0,0.0,0.0,0.0,0.0,0.0,0.0,0.0,0.0,0.0,0.0,0.0,0.0,0.0,0.0,0.0,0.0,0.0,0.0,0.0,0.0,0.0,0.0,0.0,0.0,0.0,0.0,0.0,0.0,0.0,0.0,0.0,0.0,0.0,0.0,0.0,0.0,0.0,0.0,0.0,0.0,0.0,0.0,0.0,0.0,0.0,0.0,0.0,0.0,0.0,0.0,0.0,0.0,0.0,0.0,0.0,0.0,0.0,0.0,0.0,0.0,0.0,0.0,0.0,0.0,0.0,0.0,0.0,0.0,0.0,0.0,0.0,0.0,0.0,0.0,0.0,0.0,0.0,0.0,0.0,0.0,0.0,0.0,0.0,0.0,0.0,0.0,0.0,0.0,0.0,0.0,0.0,0.0,0.0,0.0,0.0,0.0,0.0,0.0,0.0,0.0,0.0,0.0,0.0,0.0,0.0,0.0,0.0,0.0,0.0,0.0,0.0,0.0,0.0,0.0,0.0,0.0,0.0,0.0,0.0,0.0,0.0,0.0,0.0,0.0,0.0,0.0,0.0,0.0,0.0,0.0,0.0,0.0,0.0,0.0,0.0,0.0,0.0,0.0,0.0,0.0,0.0,0.0,0.0,0.0,0.0,0.0,0.0,0.0,0.0,0.0,0.0,0.0,0.0,0.0,0.0,0.0,0.0,0.0,0.0,0.0,0.0,0.0,0.0,0.0,0.0,0.0,0.0,0.0,0.0,0.0,0.0,0.0,0.0,0.0,0.0,0.0,0.0,0.0,0.0,0.0,0.0,0.0,0.0,0.0,0.0,0.0,0.0,0.0,0.0,0.0,0.0,0.0,0.0,0.0,0.0,0.0,0.0,0.0,0.0,0.0,0.0,0.0,0.0,0.0,0.0,0.0,0.0,0.0,0.0,0.0,0.0,0.0,0.0,0.0,0.0,0.0,0.0,0.0,0.0,0.0,0.0,0.0,0.0,0.0,0.0,0.0,0.0,0.0,0.0,0.0,0.0,0.0,0.0,0.0,0.0,0.0,0.0,0.0,0.0,0.0,0.0,0.0,0.0,0.0,0.0,0.0,0.0,0.0,0.0,0.0,0.0,0.0,0.0,0.0,0.0,0.0,0.0,0.0,0.0,0.0,0.0,0.0,0.0,0.0,0.0,0.0,0.0,0.0,0.0,0.0,0.0,0.0,0.0,0.0,0.0,0.0,0.0,0.0,0.0,0.0,0.0,0.0,0.0,0.0,0.0,0.0,0.0,0.0,0.0,0.0,0.0,0.0,0.0,0.0,0.0,0.0,0.0,0.0,0.0,0.0,0.0,0.0,0.0,0.0,0.0,0.0,0.0,0.0,0.0,0.0,0.0,0.0,0.0,0.0,0.0,0.0,0.0,0.0,0.0,0.0,0.0,0.0,0.0,0.0,0.0,0.0,0.0,0.0,0.0,0.0,0.0,0.0,0.0,0.0,0.0,0.0,0.0,0.0,0.0,0.0,0.0,0.0,0.0,0.0,0.0,0.0,0.0,0.0,0.0,0.0,0.0,0.0,0.0,0.0,0.0,0.0,0.0,0.0,0.0,0.0,0.0,0.0,0.0,0.0,0.0,0.0,0.0,0.0,0.0,0.0,0.0,0.0,0.0,0.0,0.0,0.0,0.0,0.0,0.0,0.0,0.0,0.0,0.0,0.0,0.0,0.0,0.0,0.0,0.0,0.0,0.0,0.0,0.0,0.0,0.0,0.0,0.0,0.0,0.0,0.0,0.0,0.0,0.0,0.0,0.0,0.0,0.0,0.0,0.0,0.0,0.0,0.0,0.0,0.0,0.0,0.0,0.0,0.0,0.0,0.0,0.0,0.0,0.0,0.0,0.0,0.0,0.0,0.0,0.0,0.0,0.0,0.0,0.0,0.0,0.0,0.0,0.0,0.0,0.0,0.0,0.0,0.0,0.0,0.0,0.0,0.0,0.0,0.0,0.0,0.0,0.0,0.0,0.0,0.0,0.0,0.0,0.0,0.0,0.0,0.0,0.0,0.0,0.0,0.0,0.0,0.0,0.0,0.0,0.0,0.0,0.0,0.0,0.0,0.0,0.0,0.0,0.0,0.0,0.0,0.0,0.0,0.0,0.0,0.0,0.0,0.0,0.0,0.0,0.0,0.0,0.0,0.0,0.0,0.0,0.0,0.0,0.0,0.0,0.0,0.0,0.0,0.0,0.0,0.0,0.0,0.0,0.0,0.0,0.0,0.0,0.0,0.0,0.0,0.0,0.0,0.0,0.0,0.0,0.0,0.0,0.0,0.0,0.0,0.0,0.0,0.0,0.0,0.0,0.0,0.0,0.0,0.0,0.0,0.0,0.0,0.0,0.0,0.0,0.0,0.0,0.0,0.0,0.0,0.0,0.0,0.0,0.0,0.0,0.0,0.0,0.0,0.0,0.0,0.0,0.0,0.0,0.0,0.0,0.0,0.0,0.0,0.0,0.0,0.0,0.0,0.0,0.0,0.0,0.0,0.0,0.0,0.0,0.0,0.0,0.0,0.0,0.0,0.0,0.0,0.0,0.0,0.0,0.0,0.0,0.0,0.0,0.0,0.0,0.0,0.0,0.0,0.0,0.0,0.0,0.0,0.0,0.0,0.0,0.0,0.0,0.0,0.0,0.0,0.0,0.0,0.0,0.0,0.0,0.0,0.0,0.0,0.0,0.0,0.0,0.0,0.0,0.0,0.0,0.0,0.0,0.0,0.0,0.0,0.0,0.0,0.0,0.0,0.0,0.0,0.0,0.0,0.0,0.0,0.0,0.0,0.0,0.0,0.0,0.0,0.0,0.0,0.0,0.0,0.0,0.0,0.0,0.0,0.0,0.0,0.0,0.0,0.0,0.0,0.0,0.0,0.0,0.0,0.0,0.0,0.0,0.0,0.0,0.0,0.0,0.0,0.0,0.0,0.0,0.0,0.0,0.0,0.0,0.0,0.0,0.0,0.0,0.0,0.0,0.0,0.0,0.0,0.0,0.0,0.0,0.0,0.0,0.0,0.0,0.0,0.0,0.0,0.0,0.0,0.0,0.0,0.0,0.0,0.0,0.0,0.0,0.0,0.0,0.0,0.0,0.0,0.0,0.0,0.0,0.0,0.0,0.0,0.0,0.0,0.0,0.0,0.0,0.0,0.0,0.0,0.0,0.0,0.0,0.0,0.0,0.0,0.0,0.0,0.0,0.0,0.0,0.0,0.0,0.0,0.0,0.0,0.0,0.0,0.0,0.0,0.0,0.0,0.0,0.0,0.0,0.0,0.0,0.0,0.0,0.0,0.0,0.0,0.0,0.0,0.0,0.0,0.0,0.0,0.0,0.0,0.0,0.0,0.0,0.0,0.0,0.0,0.0,0.0,0.0,0.0,0.0,0.0,0.0,0.0,0.0,0.0,0.0,0.0,0.0,0.0,0.0,0.0,0.0,0.0,0.0,0.0,0.0,0.0,0.0,0.0,0.0,0.0,0.0,0.0,0.0,0.0,0.0,0.0,0.0,0.0,0.0,0.0,0.0,0.0,0.0,0.0,0.0,0.0,0.0,0.0,0.0,0.0,0.0,0.0,0.0,0.0,0.0,0.0,0.0,0.0,0.0,0.0,0.0,0.0,0.0,0.0,0.0,0.0,0.0,0.0,0.0,0.0,0.0,0.0,0.0,0.0,0.0,0.0,0.0,0.0,0.0,0.0,0.0,0.0,0.0,0.0,0.0,0.0,0.0,0.0,0.0,0.0,0.0,0.0,0.0,0.0,0.0,0.0,0.0,0.0,0.0,0.0,0.0,0.0,0.0,0.0,0.0,0.0,0.0,0.0,0.0,0.0,0.0,0.0,0.0,0.0,0.0,0.0,0.0,0.0,0.0,0.0,0.0,0.0,0.0,0.0,0.0,0.0,0.0,0.0,0.0,0.0,0.0,0.0,0.0,0.0,0.0,0.0,0.0,0.0,0.0,0.0,0.0,0.0,0.0,0.0,0.0,0.0,0.0,0.0,0.0,0.0,0.0,0.0,0.0,0.0,0.0,0.0,0.0,0.0,0.0,0.0,0.0,0.0,0.0,0.0,0.0,0.0,0.0,0.9148,0.0,0.0,0.0,0.0,0.0,0.0,0.0,0.0,0.0,0.0,0.0,0.0,0.0,0.0,0.0,0.0,0.0,0.0,0.0,0.0,0.0,0.0,0.0,0.0,0.0,0.0,0.0,0.0,0.0,0.0,0.0,0.0,0.0,0.0,0.0,0.0,0.0,0.0,0.0,0.0,0.0,0.0,0.0,0.0,0.0,0.0,0.0,0.0,0.0,0.0,0.0,0.0,0.0,0.0,0.0,0.0,0.0,0.0,0.0,0.0,0.0,0.0,0.0,0.0,0.0,0.0,0.0,0.0,0.0,0.0,0.0,0.0,0.0,0.0,0.0,0.0,0.0,0.0,0.0,0.0,0.0,0.0,0.0,0.0,0.0,0.0,0.0,0.0,0.0,0.0,0.0,0.0,0.0,0.0,0.0,0.0,0.0,0.0,0.0,0.0,0.0,0.0,0.0,0.0,0.0,0.0,0.0,0.0,0.0,0.0,0.0,0.0,0.9926,0.0,0.0,0.0,0.0,0.0,0.0,0.0,0.0,0.0,0.0,0.0,0.0,0.0,0.0,0.0,0.0,0.0,0.0,0.0,0.0,0.0,0.0,0.0,0.0,0.0,0.0,0.0,0.0,0.0,0.0,0.0,0.0,0.0,0.0,0.0,0.0,0.0,0.0,0.0,0.0,0.0,0.0,0.0,0.0,0.0,0.0,0.0,0.0,0.0,0.0,0.0,0.0,0.0,0.0,0.0,0.0,0.0,0.0,0.0,0.0,0.0,0.0,0.0,0.0,0.0,0.0,0.0,0.0,0.0,0.0,0.0,0.0,0.0,0.0,0.0,0.0,0.0,0.0,0.0,0.0,0.0,0.0,0.0,0.0,0.0,0.0,0.0,0.0,0.0,0.0,0.0,0.0,0.0,0.0,0.0,0.0,0.0,0.0,0.0,0.0,0.0,0.0,0.0,0.0,0.0,1.183,1.2333,1.234,1.2268,1.2213,1.1275,1.1102,1.1317,0.0,0.0,0.0,0.0,0.0,0.0,0.0,0.0,0.0,0.0,0.0,0.0,0.0,0.0,0.0,0.0,0.0,0.0,0.0,0.0,0.0,0.0,0.0,0.0,0.0,0.1066,0.0,0.0,0.0,0.0,0.0,0.0,0.0,0.0,0.0,0.0,0.0,0.0,0.0,0.0,0.0,0.0,0.0,0.0,0.0,0.0,0.0,0.0,0.0,0.0,0.0,0.0,0.0,0.0,0.0,0.0,0.0,0.0,0.0,0.0,0.0,0.0,0.0,0.0,0.0,0.0,0.0,0.0,0.0,0.0,0.0,0.0,0.0,0.0,0.0,0.0,0.0,0.0,0.0,0.0,0.0,0.0,0.0,1.0602,0.9721,0.0,0.0,0.0,0.0,0.0,0.0,0.0,0.0,0.0,0.0,0.0,0.0,0.0,0.0,1.138,1.1824,1.2542,1.3207,1.4249,1.4835,1.5504,1.5473,1.5154,1.4695,1.5061,0.0,1.3633,1.1543,0.0,0.0,0.0,0.0,0.0,0.0,0.0,0.0,0.0,0.0,0.0,0.0,0.0,0.0,0.0,0.0,0.0,0.0,0.0,0.0,0.0,0.0,0.9584,1.0595,0.5347,0.0,0.0,0.0,0.0,0.0,0.0,0.0,0.0,0.0,0.0,0.0,0.0,0.0,0.0,0.0,0.0,0.0,0.0,0.0,0.0,0.0,0.0,0.0,0.0,0.0,0.0,0.0,0.0,0.0,0.0,0.0,0.0,0.0,0.0,0.0,0.0,0.0,0.0,0.0,0.0,0.0,0.0,0.0,0.0,0.0,0.0,0.0,0.0,0.0,0.0,0.0,0.0,0.0,0.0,0.0,0.0,0.9484,1.0735,1.0149,1.0397,1.0353,0.0,0.0,0.0,0.0,0.0,0.0,0.0,0.0,0.0,1.1321,1.2548,1.3533,1.4076,1.4407,1.4764,1.5357,1.587,1.6337,1.6573,1.6551,1.6465,1.6265,1.6479,1.6263,1.5667,1.3173,1.1454,1.0248,0.0,0.0,0.0,0.0,0.0,1.0335,1.0946,0.0,0.0,0.0,0.0,0.0,0.0,0.0,0.0,0.0,0.0,0.0,0.0,0.0,0.0,1.2806,1.019,0.7452,0.7121,0.6757,0.5211,0.0,0.0,0.0,0.0,0.0,0.0,0.0,0.0,0.0,0.0,0.0,0.0,0.0,0.0,0.0,0.0,0.0,0.0,0.0,0.0,0.0,0.0,0.0,0.0,0.0,0.0,0.0,0.0,0.0,0.0,0.0,0.0,0.0,0.0,0.0,0.0,0.0,0.0,0.0,0.0,0.0,0.0,0.0,0.0,0.0,0.0,0.0,0.0,0.0,0.0,0.0,0.0,1.0487,1.0839,1.0236,1.1023,1.1206,0.0,0.0,0.0,0.0,0.0,0.0,1.0675,1.0732,1.1535,1.3345,1.4894,1.583,1.6241,1.6561,1.6767,1.7235,1.7305,1.7141,1.7133,1.719,1.7183,1.7058,1.7101,1.7006,1.6875,1.4482,1.2808,1.1421,1.1193,1.1188,1.1133,1.1018,1.1173,1.1488,1.2085,1.1965,1.1553,1.1428,0.0,1.3024,1.1191,0.0,0.0,0.0,0.0,1.0397,1.0947,0.0,1.281,1.329,1.3373,1.3269,1.2873,1.2325,0.9465,0.0,0.1427,0.2664,0.2544,0.0,0.0,0.0,0.0,0.2694,0.3092,0.1374,0.0,0.0,0.0,0.0,0.0,0.0,0.0,0.0,0.0,0.0,0.0,0.0,0.0,0.0,0.0,0.0,0.0,0.0,0.0,0.0,0.0,0.0,0.0,0.0,0.0,0.0,0.0,0.0,0.0,0.0,0.0,0.0,0.0,0.0,0.0,0.0,0.0,0.0,0.0,0.0,0.0,0.0,0.0,1.0588,1.1891,0.0,0.0,0.0,0.0,1.1952,1.2379,1.2827,1.3275,1.246,1.3176,1.5825,1.6645,1.6999,1.6852,1.758,1.7749,1.7784,1.7946,1.7815,1.7829,1.7889,1.76,1.6942,1.7005,1.6907,1.6827,1.4939,1.3846,1.3178,1.2657,1.2456,1.2304,1.1702,1.2225,1.3305,1.3974,1.4205,1.4094,1.352,1.2118,1.0937,1.0773,1.0722,0.0,0.0,1.1025,1.1681,1.2285,1.2944,1.3426,1.3401,1.3322,1.3415,1.3426,1.2824,0.9949,0.0,0.5498,1.0009,0.946,0.0,0.1902,0.7541,0.8881,0.9926,1.1667,0.488,0.0,0.0,0.0,0.0,0.0,0.0,0.0,0.0,0.0,0.0,0.0,0.0,0.0,0.0,0.0,0.0,0.0,0.0,0.0,0.0,0.0,0.0,0.0,0.0,0.0,0.0,0.0,0.0,0.0,0.0,0.0,0.0,0.0,0.0,0.0,0.0,0.0,0.0,0.0,0.0,0.0,0.0,0.0,1.2237,1.3247,0.0,0.0,1.2549,1.2745,1.3051,1.3573,1.4075,1.4709,1.4247,1.4977,1.7214,1.7433,1.7615,1.7545,1.7878,1.7975,1.7847,1.7909,1.793,1.793,1.7996,1.7487,1.7028,1.7003,1.7026,1.7044,1.6266,1.5684,1.5153,1.4402,1.402,1.3624,1.3492,1.3546,1.3964,1.4274,1.4302,1.421,1.4045,1.3318,1.2427,1.2018,1.1858,1.1817,1.1817,1.2299,1.2734,1.3089,1.3178,1.3384,1.3417,1.339,1.3432,1.3394,1.2868,1.1635,0.861,0.9798,1.1207,1.0946,0.8699,0.7652,0.9729,1.0617,0.9355,0.5057,0.1828,0.0,0.0,0.0,0.0,0.0,0.0,0.0,0.0,0.0,0.0,0.0,0.0,0.0,0.0,0.0,0.0,0.0,0.0,0.0,0.0,0.0,0.0,0.0,0.0,0.0,0.0,0.0,0.0,0.0,0.0,0.0,0.0,0.0,0.0,0.0,0.0,0.0,0.0,0.0,0.0,0.0,0.0,1.337,1.3464,1.4448,1.4767,1.3865,1.3912,1.4129,1.4434,1.4957,1.5445,1.6041,1.6062,1.6681,1.7706,1.7787,1.7792,1.7944,1.7944,1.7998,1.786,1.786,1.786,1.786,1.7944,1.765,1.7404,1.7324,1.7188,1.6949,1.7085,1.6668,1.6436,1.5768,1.5195,1.4558,1.4558,1.4558,1.4579,1.4543,1.4496,1.4278,1.4259,1.3959,1.3589,1.3275,1.3026,1.2834,1.2732,1.3047,1.3422,1.3672,1.3777,1.3672,1.3432,1.3338,1.3349,1.3478,1.303,1.2708,1.2562,1.2155,1.1789,1.1671,1.1295,1.1015,1.1028,1.1274,0.9862,0.4847,0.4292,0.4261,0.4273,0.1746,0.0,0.0,0.0,0.0,0.0,0.0,0.0,0.0,0.0,0.0,0.0,0.0,0.0,0.0,0.0,0.0,0.0,0.0,0.0,0.0,0.0,0.0,0.0,0.0,0.0,0.0,0.0,0.0,0.0,0.0,0.0,0.0,0.0,0.0,0.0,0.0,0.0,1.185,1.3424,1.4455,1.4197,1.5459,1.5893,1.4726,1.5276,1.5818,1.611,1.6537,1.691,1.7195,1.7629,1.7812,1.7663,1.7726,1.8016,1.786,1.786,1.786,1.786,1.786,1.786,1.786,1.7944,1.7875,1.7861,1.7988,1.7627,1.6949,1.7092,1.7085,1.6898,1.6439,1.5683,1.5194,1.5293,1.5183,1.5156,1.5174,1.4833,1.4309,1.4346,1.4277,1.4358,1.4387,1.3888,1.3451,1.3425,1.3465,1.3506,1.4166,1.4274,1.4168,1.3465,1.3351,1.3329,1.3367,1.3465,1.32,1.2576,1.2553,1.2313,1.1714,1.164,1.1633,1.1633,1.1636,0.0,1.2443,1.2488,1.2447,1.2454,0.526,0.0458,0.0301,0.0294,0.0286,0.0,0.0133,0.0259,0.0252,0.012,0.0,0.0,0.0,0.0,0.0,0.0,0.0,0.0,0.0,0.0,0.0,0.0,0.0,0.0,0.0,0.0,0.0,0.0,0.0,0.0,0.0,0.0,0.0,0.0,0.0,0.0,0.0,1.3078,1.3261,1.4468,1.5581,1.6252,1.6897,1.7188,1.6965,1.7039,1.7127,1.7209,1.7426,1.7595,1.767,1.7901,1.8191,1.804,1.8091,1.8124,1.786,1.7968,1.7968,1.786,1.786,1.786,1.786,1.7944,1.7875,1.7861,1.7988,1.7627,1.6962,1.6992,1.6975,1.6912,1.6357,1.59,1.5911,1.5918,1.5581,1.5235,1.5243,1.509,1.4826,1.4387,1.4245,1.4325,1.4354,1.4098,1.405,1.3981,1.4043,1.4132,1.418,1.4333,1.4098,1.3462,1.3323,1.3345,1.3322,1.3112,1.2769,1.2523,1.246,1.2372,1.2299,1.1858,1.1636,1.1636,0.0,0.0,1.245,1.2433,1.2427,1.2554,1.0442,0.8915,0.8435,0.7952,0.5494,0.027,0.4082,0.6494,0.6487,0.2334,0.0,0.0,0.0,0.0,0.0,0.0,0.0,0.0,0.0,0.0,0.0,0.0,0.0,0.0,0.0,0.0,0.0,0.0,0.0,0.0,0.0,0.0,0.0,0.0,0.0,0.0,1.3539,1.4577,1.516,1.5845,1.6605,1.7467,1.7846,1.8023,1.8057,1.7982,1.7928,1.7928,1.8002,1.8057,1.8057,1.8199,1.8179,1.8198,1.8253,1.8267,1.8198,1.8036,1.7813,1.7948,1.7894,1.786,1.786,1.7944,1.7656,0.0,1.7545,1.7408,1.6956,1.6971,1.6955,0.0,0.0,0.0,0.0,0.0,1.5643,1.5269,1.5142,1.4984,1.4706,1.4462,1.4346,1.4285,1.4373,1.4345,1.4331,1.4242,1.4277,1.4345,1.4345,1.4297,1.4208,1.3878,1.3559,1.3398,1.3356,1.3166,1.2842,1.2556,0.0,0.0,1.256,1.225,1.1998,1.1998,1.2237,1.2471,0.0,1.2454,1.2522,1.2569,1.2683,1.281,1.2452,1.1389,0.0,0.0,0.0,0.8908,0.8937,0.5564,0.0,0.0,0.0,0.0,0.0,0.0,0.0,0.0,0.0,0.0,0.0,0.0,0.0,0.0,0.0,0.0,0.0,0.0,0.0,0.0,0.0,0.0,0.0,0.0,0.0,0.0,1.4774,1.5974,1.7154,1.7365,1.7589,1.8111,1.8409,1.8531,1.8389,1.8375,1.8375,1.8375,1.8355,1.8335,1.8321,0.0,0.0,0.0,0.0,1.8409,1.8552,1.8111,1.788,1.786,1.7935,1.786,1.786,1.793,1.7623,1.6935,1.7076,1.6949,1.6929,1.7078,1.6865,1.6912,1.6252,1.5998,1.6021,1.5918,1.5702,0.0,0.0,0.0,0.0,1.435,1.4222,1.4299,1.4299,1.4299,1.4299,1.4299,1.4299,1.4299,1.4299,1.438,1.4235,1.4235,1.3919,1.3398,1.3432,1.3356,1.326,1.2668,1.2588,1.2527,1.2549,1.2567,1.2471,1.2471,1.2471,0.0,1.2488,1.2501,1.2461,1.2512,0.0,0.0,1.327,1.1614,1.0199,0.9111,0.8927,0.8891,0.8927,0.8947,0.6418,0.1065,0.0973,0.065,0.0,0.0,0.0,0.0,0.0,0.0,0.0,0.0,0.0,0.0,0.0,0.0,0.0,0.0,0.0,0.0,0.0,0.0,0.0,0.0,0.0,1.436,1.5628,1.687,1.7948,1.8409,1.864,1.864,1.8796,1.885,1.8694,1.8674,1.8674,1.8674,1.8565,1.8443,1.8321,1.8464,0.0,1.7914,1.843,1.8518,1.8091,1.8219,1.8213,1.786,0.0,0.0,1.7846,1.7813,1.7467,1.7001,1.6936,1.7019,1.7005,1.7037,1.6804,1.6327,1.6083,1.573,1.5413,1.5321,1.5316,1.5147,1.5257,1.4867,1.4343,1.4387,1.4319,1.4299,1.4299,1.4299,0.0,1.4299,1.4299,1.4299,1.4299,1.4278,1.4366,1.4263,1.3824,1.3369,1.3417,1.3425,1.3322,1.3267,1.2888,1.2561,1.2527,1.2562,1.2461,1.2461,1.2461,1.2467,1.2501,1.2501,1.2535,1.2474,1.2192,1.1974,1.1959,1.1147,1.0456,0.9627,0.9112,0.8852,0.8851,0.8891,0.8376,0.7205,0.7144,0.4822,0.0,0.0,0.0,0.0,0.0,0.0,0.0,0.0,0.0,0.0,0.0,0.0,0.0,0.0,0.0,0.0,0.0,1.1687,1.2284,0.0,1.4502,1.5472,1.6571,1.7595,1.8423,1.8796,1.8993,1.8993,1.9115,1.9149,1.8993,1.8993,1.8959,1.8884,1.8796,1.8687,1.8552,1.8599,1.8511,1.8213,1.8565,1.862,1.8321,1.8623,1.8362,1.8192,1.805,1.7935,1.786,1.7861,1.7494,1.6968,1.6962,1.7046,1.6965,1.6727,1.6299,1.6071,1.6172,1.5805,1.512,1.5294,1.512,1.514,1.4841,1.4504,1.4223,1.4367,1.4299,1.4299,1.4299,1.4299,1.4299,1.4299,1.4299,1.4299,1.4299,1.4299,1.4245,1.4368,1.378,1.3343,1.3405,1.3451,1.3356,1.337,1.3219,1.2901,1.2594,1.2507,1.2434,1.2515,1.2501,1.2501,1.2501,1.2501,1.2501,1.2508,1.228,1.1934,1.157,1.1001,1.0478,0.9787,0.9542,0.9367,0.9388,0.9033,0.8935,0.895,0.8897,0.7393,0.4463,0.4508,0.2955,0.0,0.0,0.0,0.0,0.0,0.0,0.0,0.0,0.0,0.0,0.0,1.0975,1.1457,1.2054,1.2779,1.3715,1.4624,1.5547,1.6497,1.7358,1.8111,1.8674,1.8918,1.9081,1.9237,1.9325,1.9345,1.9217,1.9203,1.9149,1.9006,1.9006,1.8938,1.8728,1.8782,1.8708,1.8498,1.8674,1.8694,1.8531,1.8768,1.8692,1.8321,1.7934,1.8002,1.786,1.7909,1.7541,1.719,1.7009,1.7066,1.6917,1.6426,1.6225,1.6078,1.6008,1.5805,1.5261,1.5281,1.5296,1.5106,1.4678,1.4368,1.4282,1.4236,1.4319,1.4299,1.4299,1.4299,1.4299,1.4299,1.4299,1.4299,1.4299,1.4299,1.4265,1.429,1.3894,1.3634,1.3519,1.3459,1.3378,1.3439,1.3363,1.3253,1.282,1.2588,1.2514,1.2522,1.2501,1.2501,1.2501,1.2501,1.2461,1.2498,1.2464,1.2265,1.166,1.1118,1.0677,0.9986,0.9962,1.0005,0.9954,0.942,0.9039,0.9124,0.8964,0.8891,0.8897,0.889,0.6381,0.1783,0.1785,0.1099,1.1497,1.0975,1.0656,1.0833,1.0772,1.0839,0.0,0.0,1.225,1.2827,1.3532,1.4204,1.4726,1.5554,1.6368,1.7012,1.765,1.8233,1.8694,1.9006,1.9237,1.9393,1.9305,1.9217,1.9203,1.9203,1.9149,1.9006,1.9115,1.8993,1.8586,1.8816,1.8776,1.8355,1.862,1.8694,1.8531,1.8531,1.8464,1.8321,1.7934,1.8002,1.7846,1.7799,1.7885,1.785,1.7127,1.6917,1.6975,1.7016,1.6646,1.6085,1.6123,1.5967,1.5993,1.5321,1.5235,1.5183,1.5149,1.4767,1.4343,1.4316,1.4222,1.4299,1.4299,1.4299,1.4299,1.4299,1.4299,1.4299,1.4299,1.4299,1.4265,1.429,1.4249,1.4167,1.4217,1.3803,1.3405,1.341,1.3432,1.345,1.329,1.282,1.2514,1.2522,1.2501,1.2501,1.2501,1.2501,1.2494,1.2481,1.2525,1.2265,1.166,1.1594,1.1267,1.069,1.0658,1.0572,1.0652,0.9998,0.972,0.9683,0.9171,0.8917,0.8897,0.8917,0.8523,0.7949,0.7856,0.5095,1.1599,1.1206,0.0,0.0,1.1484,1.1904,1.2481,1.2915,1.3363,1.396,1.4679,1.5343,1.5791,1.6537,1.7229,0.0,1.8145,1.8586,1.885,1.8918,1.8972,1.9027,1.883,1.8905,1.9413,1.9393,1.9271,1.9128,1.9257,1.9128,1.8694,1.8871,1.8864,1.8586,1.8782,1.8871,1.8796,1.8796,1.8728,1.8565,1.8335,1.7914,1.7982,1.7998,1.7813,1.785,1.7326,1.6944,1.7078,1.7044,1.6694,1.6199,1.6171,1.6186,1.6028,1.5421,1.5214,1.5201,1.5224,1.5018,1.4812,1.4356,1.4236,1.4299,1.4299,1.4299,1.4299,1.4299,1.4299,1.4299,1.4299,1.4299,1.4285,1.4224,1.4386,1.4325,1.4291,1.3817,1.3363,1.3392,1.341,1.3425,1.3443,1.2963,1.2483,1.2494,1.2556,1.2501,1.2501,1.2501,1.2501,1.2501,1.2532,1.2333,1.1596,1.1599,1.1447,1.1274,1.0839,1.0754,1.0714,1.051,1.0191,0.9861,0.9605,0.9215,0.8928,0.8911,0.8891,0.8856,0.893,0.7539,1.1619,0.0,0.0,1.183,1.2413,1.3051,1.3498,1.4014,1.4557,1.5113,1.5757,1.6347,1.6754,1.7311,1.7826,1.8158,1.8518,1.8816,1.8972,1.885,1.8708,1.8531,1.8253,1.8335,1.904,1.9183,1.9217,1.9149,1.9325,1.9237,1.8782,1.8993,1.9027,1.883,1.8972,1.9047,1.9047,1.9006,1.8918,1.8762,1.8457,1.8001,1.786,1.7846,1.7827,1.7566,1.7093,1.6978,1.6958,1.7071,1.6728,1.6075,1.6191,1.6015,1.6096,1.5555,1.5375,1.5174,1.5265,1.525,1.509,1.4557,1.4236,1.4299,1.4299,1.4299,1.4299,1.4299,1.4299,1.4299,1.4299,1.4299,1.4299,1.4299,1.4299,1.4258,1.4283,1.398,1.3673,1.3492,1.3372,1.3403,1.3377,1.3085,1.2635,1.2489,1.2534,1.244,1.2515,1.2501,1.2501,1.2501,1.2532,1.2244,1.1828,1.1697,1.1565,1.1594,1.1007,1.0657,1.0767,1.0713,1.0513,1.0012,0.9883,0.9593,0.9137,0.9191,0.9036,0.8897,0.9044,0.9057,1.1579,1.1823,1.2216,1.2935,1.3573,1.4143,1.459,1.5262,1.592,1.6374,1.6829,1.7249,1.7555,1.7738,1.8002,1.8443,1.8654,1.8816,1.8972,1.885,1.8552,1.7955,1.7629,1.7514,0.0,1.8355,1.885,1.8993,1.9271,1.9237,1.8782,1.9183,1.9291,1.8993,1.9115,1.9203,1.9203,1.9061,1.8918,1.8762,1.8464,1.8233,1.7847,1.7861,1.7573,1.6976,1.7046,1.6978,1.6958,1.7071,1.6728,1.6075,1.6191,1.6076,1.6056,1.6103,1.5662,1.5174,1.5265,1.525,1.509,1.4557,1.4236,1.4299,1.4299,1.4299,1.4299,1.4299,1.4299,1.4299,1.4299,1.4299,1.4299,1.4299,1.4299,1.4258,1.4283,1.4249,1.4153,1.3512,1.3452,1.3358,1.3391,1.3336,1.3119,1.2642,1.2455,1.2509,1.2542,1.2501,1.2501,1.2501,1.2532,1.2443,1.2443,1.1999,1.161,1.1613,1.1025,1.067,1.067,1.0658,1.0643,1.061,1.0046,0.9815,0.9808,0.9759,0.9497,0.8904,0.949,0.949,1.1898,1.2494,1.3308,1.4156,1.4814,1.5425,1.6076,1.6497,1.6788,1.6937,1.6931,1.6897,1.6897,1.7107,1.7453,1.8002,1.8552,1.8938,1.8993,1.9027,1.862,1.7419,1.7365,0.0,0.0,0.0,0.0,1.864,1.8972,1.9081,1.8918,1.9237,1.9291,1.9006,1.9217,1.9257,1.9061,1.9115,1.9061,1.8905,1.8511,1.8138,1.7785,1.7534,1.7338,1.6969,1.7039,1.6978,1.6965,1.6975,1.6612,1.6082,1.6098,1.6171,1.6062,1.611,1.5932,1.5732,1.5337,1.5031,1.4544,1.4309,1.4316,1.4299,1.4299,1.4299,1.4299,1.4299,1.4299,1.4299,1.4299,1.4299,1.4299,1.4299,1.4299,1.4285,1.4238,1.4325,1.4222,1.4119,1.3666,1.3356,1.3338,1.339,1.3404,1.3164,1.2795,1.2429,1.2489,1.2483,1.2443,1.2501,1.2454,1.2501,1.2464,1.2258,1.2031,1.1633,1.147,1.126,1.1247,1.09,1.0751,1.076,1.0479,1.0168,0.9848,0.9774,0.9673,0.9546,0.971,0.9724,1.2732,1.3587,1.4563,1.5466,1.6096,1.6625,1.7107,1.729,1.7297,1.708,1.6754,1.6449,1.6246,1.6191,1.6463,1.7324,1.7826,1.8287,1.8762,1.8728,1.8247,1.7182,1.708,1.6965,0.0,0.0,0.0,1.8301,1.8708,1.8905,1.8905,1.9291,1.9393,1.9149,1.9325,1.9345,1.9149,1.9081,1.8918,1.8674,1.8369,1.8057,1.7717,1.7514,1.715,1.7043,1.7066,1.6978,1.6971,1.703,1.6693,1.6379,1.6232,1.6118,1.6018,1.6069,1.6089,1.6077,1.5418,1.4879,1.4557,1.4368,1.4356,1.4306,1.436,1.434,1.4299,1.4299,1.4299,1.4299,1.4299,1.4299,1.4299,1.4299,1.4299,1.4299,1.4299,1.4224,1.4318,1.4263,1.3994,1.37,1.3729,1.358,1.3417,1.3398,1.3152,1.2747,1.2809,1.2795,1.2762,1.282,1.2601,1.2494,1.2461,1.2519,1.2282,1.1636,1.1586,1.1629,1.1603,1.1023,1.0745,1.0713,1.0658,1.0507,1.0134,0.9854,0.9747,0.9815,0.9751,0.9765,1.4027,1.5045,1.5947,1.6836,1.7372,1.7684,1.767,1.765,1.7446,1.6822,1.632,1.5893,0.0,0.0,1.5153,1.6476,1.6639,1.7053,1.8355,1.807,1.7609,0.0,0.0,0.0,0.0,0.0,0.0,1.8023,0.0,1.8742,1.8782,1.9345,1.959,1.9434,1.9434,1.9427,1.9413,1.8972,1.8531,1.8091,1.8091,1.8002,1.7846,1.7555,1.7197,1.6948,1.71,1.6978,1.6971,1.7037,1.6975,1.6948,1.6379,1.6108,1.6088,1.6152,1.6123,1.6,1.5357,1.5197,1.5132,1.4564,1.4363,1.4333,1.4289,1.4229,1.4299,1.4299,1.4299,1.4299,1.4299,1.4306,1.4306,1.4299,1.4306,1.4306,1.4299,1.4299,1.4258,1.429,1.4256,1.4381,1.4235,1.3906,1.3465,1.3459,1.3338,1.348,1.3353,1.3479,1.3472,1.3465,1.2834,1.2574,1.2568,1.2484,1.2223,1.1599,1.1636,1.164,1.1614,1.102,1.0743,1.0738,1.0713,1.0697,1.0686,1.0141,0.9744,0.9842,0.9842,0.9842,1.5289,1.6279,1.7154,1.7935,1.8145,1.8124,1.8002,1.7629,1.7046,1.6117,1.5296,1.4523,0.0,0.0,0.0,1.5757,1.6917,0.0,1.8606,1.8864,0.0,1.7494,0.0,1.75,1.7012,1.7209,0.0,0.0,1.8375,1.862,1.9061,1.9447,1.959,1.9434,1.9434,1.9325,1.9094,1.8762,1.8423,1.8091,1.8091,1.7948,1.7704,1.7507,1.7358,1.7016,1.706,1.6978,1.6978,1.6937,1.7071,1.6962,1.692,1.6831,1.6714,1.6779,1.6398,1.5974,1.5442,1.5255,1.5101,1.4534,1.4524,1.4833,1.4502,1.4229,1.4299,1.4299,1.4299,1.4299,1.4299,1.4373,1.4249,1.4326,1.438,1.4249,1.4319,1.4299,1.4285,1.4251,1.4331,1.4242,1.4374,1.4242,1.3926,1.3472,1.3425,1.3331,1.348,1.3453,1.3411,1.3464,1.3318,1.302,1.2581,1.2427,1.2182,1.1606,1.1583,1.164,1.1636,1.1074,1.0652,1.0752,1.0738,1.0719,1.0704,1.0134,0.978,0.9777,0.9777,0.9777,1.6639,1.7528,1.8233,1.8708,1.8674,1.8355,1.7738,1.7087,1.6218,1.4841,1.3946,0.0,1.2413,1.2901,0.0,0.0,0.0,0.0,1.8443,1.8776,1.8708,0.0,1.8179,0.0,1.7717,1.7894,1.8158,0.0,1.8511,1.8708,1.9183,1.9434,1.9522,1.9434,1.9305,1.9094,1.8796,1.8552,1.8321,1.8091,1.8023,1.7901,1.7738,1.7813,1.7655,1.7283,0.0,1.7039,1.6978,1.6978,1.6931,1.7065,1.7065,1.6975,1.703,1.7087,1.6682,1.6042,1.5744,1.5432,1.5153,1.4892,1.4862,1.5,1.4504,1.4243,1.4309,1.4309,1.4309,1.4309,1.4309,1.4363,1.439,1.4613,1.4455,1.4289,1.4326,1.4299,1.4299,1.4299,1.4231,1.4352,1.4352,1.4228,1.427,1.3838,1.3539,1.3425,1.3338,1.3444,1.3342,1.3356,1.338,1.3228,1.2581,1.2553,1.234,1.2005,1.1744,1.166,1.1646,1.128,1.0953,1.0677,1.0658,1.0649,1.076,1.0357,1.0154,1.0149,1.0149,1.0149,1.7968,1.8674,1.9128,1.9237,1.8993,1.8409,1.7195,1.6273,1.5174,1.339,1.2556,1.1959,1.1355,1.1803,1.2712,1.4102,0.0,1.6646,1.8199,1.8409,1.8511,1.8782,1.8708,1.8565,1.8443,1.8552,1.8687,1.883,1.885,1.8959,1.9183,1.9359,1.9447,1.9393,1.9128,1.885,1.8531,1.8389,1.8247,1.8091,1.7935,1.786,1.786,1.7909,1.7996,1.7857,0.0,0.0,1.6978,1.6978,1.6978,1.6978,1.6978,1.7099,1.6948,1.7002,1.6556,1.6069,1.6147,1.5753,1.5214,1.5235,1.519,1.5174,1.4547,1.4481,1.4368,1.4368,1.4368,1.4368,1.4368,1.4381,1.4537,1.5111,1.4716,1.4309,1.4333,1.4299,1.4299,1.4299,1.4299,1.4299,1.4299,1.4366,1.4277,1.4256,1.3851,1.3499,1.3459,1.3325,1.3349,1.3384,1.3387,1.3068,1.2608,1.2525,1.2477,1.2436,1.1904,1.1667,1.1647,1.1622,1.1386,1.0703,1.0672,1.0656,1.0658,1.0658,1.0725,1.0735,1.0735,1.0735,1.9006,1.9447,1.9698,1.961,1.9081,1.8233,1.6904,1.5635,0.0,0.0,1.1775,1.1179,1.0582,1.1362,1.2623,1.4217,1.5486,1.6876,1.862,1.8871,1.8938,0.0,1.9094,1.9081,0.0,0.0,0.0,0.0,0.0,1.9291,1.9203,1.9468,1.9501,1.9257,1.9081,1.885,1.8531,1.8389,1.8247,1.8091,1.7935,1.786,1.7846,1.7813,1.7892,1.785,0.0,0.0,1.6978,1.6978,1.6978,1.6978,1.6978,1.7099,1.6948,1.6366,1.6205,1.6004,1.6189,1.5622,1.5155,1.5269,1.5259,1.5128,1.5149,1.5053,1.5118,1.5118,1.5118,1.5118,1.5118,1.5025,1.5053,1.5139,1.4792,1.4256,1.436,1.4299,1.4299,1.4299,1.4299,1.4299,1.4299,1.4278,1.4217,1.427,1.4208,1.3905,1.3485,1.3325,1.339,1.3363,1.2956,1.2622,1.2429,1.2454,1.2233,1.1821,1.2101,1.2079,1.165,1.1537,1.1289,1.0698,1.0719,1.0711,1.0683,1.0683,1.067,1.0649,1.0649,1.0649,1.9732,1.9997,2.0051,1.982,1.8972,1.7758,1.609,0.0,0.0,1.1369,1.0785,1.0446,1.0012,1.1036,1.2277,1.3302,1.4536,1.5974,1.7704,1.8077,1.8423,1.9115,1.9345,1.9468,0.0,0.0,0.0,0.0,0.0,0.0,1.9447,1.9434,1.9257,1.8864,1.8864,1.8762,1.8531,1.8389,1.8287,1.8213,1.7968,1.786,1.786,1.7944,1.7792,1.7412,1.7056,0.0,1.6978,1.6978,1.6978,1.6978,1.6978,1.7099,1.6948,1.6366,1.6015,1.6051,1.6083,1.575,1.5113,1.5294,1.5262,1.5272,1.5272,1.5217,1.5162,1.5162,1.5162,1.5162,1.5162,1.5217,1.5217,1.5181,1.4685,1.4376,1.4346,1.4299,1.4299,1.4299,1.4299,1.4299,1.4299,1.4299,1.4278,1.438,1.4304,1.4174,1.3947,1.3607,1.3458,1.3466,1.3152,1.2842,1.2529,1.2474,1.2313,1.2086,1.234,1.2182,1.1649,1.1599,1.1362,1.0709,1.071,1.0705,1.0705,1.0758,1.0717,1.0717,1.0717,1.0717,2.0241,2.0397,2.0315,1.9888,1.8762,1.7249,1.5276,1.3668,0.0,1.0399,1.0025,0.9937,0.9741,1.0711,1.1762,0.0,1.3519,1.4896,1.668,1.7243,1.7894,0.0,1.9468,0.0,1.9854,0.0,0.0,0.0,0.0,0.0,1.961,1.9257,1.8918,1.8586,1.864,1.8606,1.8477,1.8335,1.8267,1.8267,1.7968,1.7826,1.786,1.7758,1.7609,1.6975,1.6915,0.0,0.0,1.6978,1.6978,1.6978,1.6978,1.7078,1.69,1.6564,1.6199,1.6018,1.6151,1.5852,1.5427,1.5482,1.5281,1.5276,1.5276,1.5276,1.5269,1.5242,1.5228,1.5221,1.5194,1.5181,1.5147,1.5197,1.4733,1.4296,1.4367,1.4319,1.4299,1.4299,1.4299,1.4299,1.4299,1.4299,1.4299,1.4299,1.438,1.4235,1.4222,1.3743,1.3385,1.3418,1.3363,1.3246,1.2682,1.2501,1.2549,1.2549,1.2436,1.2265,1.1802,1.1643,1.1415,1.0857,1.0862,1.0839,1.067,1.0692,1.0751,1.0717,1.0717,1.0717,2.0471,2.0627,2.0526,1.9678,1.8464,1.6917,1.4835,0.0,1.1728,1.0337,0.9937,0.9876,0.9985,1.0344,1.1077,1.2481,1.3152,1.4265,1.6463,1.7263,1.8023,1.9081,0.0,0.0,1.9854,0.0,0.0,0.0,0.0,0.0,0.0,1.8905,1.864,1.8742,1.8498,1.8355,1.8335,1.8199,1.8111,1.8111,1.7806,1.7738,1.7846,1.7662,1.7538,1.7405,0.0,0.0,0.0,1.6978,1.6978,1.6978,1.6978,1.7016,1.6967,1.6946,1.655,1.6076,1.611,1.6055,1.6028,1.6084,1.5622,1.5202,1.5202,1.5202,1.5175,1.5234,1.5194,1.516,1.5221,1.5181,1.5147,1.5197,1.4733,1.4323,1.4309,1.4209,1.4299,1.4299,1.4299,1.4299,1.4299,1.4299,1.4299,1.4299,1.4285,1.4352,1.4235,1.3831,1.3363,1.341,1.3425,1.3329,1.3301,1.2868,1.2548,1.2548,1.2433,1.2429,1.2422,1.185,1.1613,1.1456,1.158,1.1221,1.067,1.0657,1.0719,1.0717,1.0717,1.0717,2.0227,2.0594,2.0594,1.9875,1.8287,1.6429,1.4692,0.0,1.1212,1.0134,0.9863,0.9842,0.9897,1.008,1.0541,1.1504,1.1653,1.2338,1.4319,1.4964,1.5913,1.7772,1.8423,0.0,0.0,0.0,0.0,0.0,0.0,0.0,0.0,1.8796,1.8565,1.8375,1.8335,1.8267,1.8179,1.8124,1.8091,1.8091,1.788,1.7758,1.7717,1.7555,1.7405,1.7277,0.0,0.0,0.0,1.6978,1.6978,1.6978,1.6978,1.691,1.6989,1.6592,1.6239,1.6105,1.6076,1.6192,1.6179,1.6124,1.5906,1.5669,1.5696,1.5835,1.5822,1.5767,1.5479,1.52,1.514,1.5248,1.5147,1.5197,1.5066,1.476,1.4295,1.4343,1.4242,1.4242,1.436,1.4299,1.4299,1.4299,1.4299,1.4299,1.4299,1.4224,1.4361,1.38,1.3337,1.3398,1.3403,1.3439,1.3349,1.3226,1.2922,1.2574,1.246,1.2474,1.2457,1.2331,1.199,1.1596,1.1598,1.142,1.1212,1.0893,1.0644,1.0719,1.0758,1.0717,1.9678,2.0349,2.0594,1.9854,1.8091,1.611,1.4523,0.0,1.0907,1.0005,0.9822,0.9822,0.9822,0.991,1.0161,1.0724,1.0711,1.1226,1.2935,1.3553,1.4584,1.6619,0.0,0.0,0.0,0.0,0.0,0.0,0.0,0.0,0.0,1.8674,1.8464,1.8111,1.8145,1.8124,1.8023,1.7982,1.7968,1.7948,1.7758,1.7636,1.7582,1.7494,1.7358,1.7188,0.0,0.0,0.0,1.6978,1.6978,1.6978,1.6978,1.6924,1.6815,1.6393,1.6259,1.6152,1.6151,1.6083,1.6083,1.6083,1.6083,1.6042,1.6041,1.6168,1.6161,1.6119,1.5594,1.5267,1.5227,1.5133,1.5215,1.5259,1.519,1.5128,1.4644,1.4504,1.4563,1.4336,1.4249,1.4346,1.4306,1.4299,1.4299,1.4299,1.4299,1.4245,1.427,1.3894,1.3621,1.3715,1.3559,1.3403,1.3418,1.337,1.3246,1.2715,1.2615,1.2474,1.2433,1.2539,1.223,1.1663,1.1674,1.1646,1.1605,1.1158,1.0853,1.067,1.0658,1.0717,1.883,1.9875,2.0526,1.9468,1.786,1.6049,1.4258,1.2454,1.0907,1.0005,0.9822,0.9822,0.9822,0.9822,0.9971,1.0426,1.0751,1.1463,1.2963,1.3817,1.474,0.0,0.0,0.0,0.0,0.0,0.0,0.0,0.0,0.0,0.0,1.8477,1.8247,1.8091,1.7948,1.786,1.786,1.7717,1.765,1.765,1.7344,1.7277,1.7412,1.7121,1.706,0.0,0.0,0.0,0.0,1.6978,1.6978,1.6978,1.6978,1.6795,1.6524,1.6946,1.655,1.6083,1.6083,1.6083,1.6083,1.6083,1.6083,1.6083,1.6076,1.6076,1.6049,1.6096,1.5744,1.5208,1.5254,1.5214,1.5174,1.5215,1.5265,1.5162,1.5162,1.5222,1.507,1.4356,1.4323,1.4283,1.4326,1.4299,1.4299,1.4299,1.4299,1.4245,1.427,1.4249,1.4368,1.4215,1.3715,1.3392,1.341,1.3425,1.3343,1.3336,1.2888,1.2568,1.2561,1.2447,1.2284,1.1656,1.1528,1.161,1.1613,1.1601,1.1228,1.067,1.0658,1.0717,1.6809,1.7582,1.7948,1.7005,1.5649,1.4231,1.3051,1.1701,1.0534,0.9944,0.9822,0.9822,0.9822,0.9822,1.01,1.0968,1.1097,1.1477,1.2562,0.0,0.0,1.5927,1.7738,0.0,0.0,0.0,0.0,0.0,0.0,0.0,0.0,1.949,1.8247,1.8091,1.7948,1.7812,1.7717,1.767,1.7595,1.7494,1.7392,1.7317,1.7263,1.7168,0.0,0.0,0.0,0.0,0.0,1.6978,1.6978,1.6978,1.6978,1.6924,1.6809,1.6598,1.653,1.6497,1.6185,1.6151,1.6018,1.6117,1.6083,1.6083,1.6083,1.6008,1.6096,1.6147,1.5945,1.575,1.5808,1.5493,1.52,1.5154,1.5221,1.512,1.512,1.519,1.5073,1.5018,1.4652,1.4309,1.4269,1.436,1.4299,1.4299,1.4299,1.4285,1.4238,1.4231,1.4345,1.4368,1.4139,1.3831,1.3405,1.3417,1.3453,1.3349,1.3246,1.2942,1.2574,1.2542,1.2338,1.2292,1.2241,1.206,1.1619,1.1564,1.1331,1.067,1.0658,1.0717,1.5099,1.5934,1.6313,1.5635,1.4455,1.3234,1.24,1.1274,1.0297,0.9903,0.9822,0.9822,0.9822,0.9822,1.0053,1.0772,1.0853,0.0,0.0,0.0,0.0,1.6056,0.0,0.0,0.0,0.0,0.0,0.0,0.0,0.0,0.0,0.0,2.1574,2.1406,1.8985,1.8197,1.9235,1.7989,1.746,1.7419,1.7311,1.7202,1.7114,1.7114,0.0,0.0,0.0,0.0,0.0,1.6978,1.6978,1.6978,1.6917,1.6856,1.6775,1.6537,1.6469,1.6456,1.6385,1.6144,1.6004,1.611,1.6083,1.6069,1.6015,1.5967,1.5723,1.6035,1.6035,1.6021,1.6077,1.5725,1.5398,1.5337,1.5248,1.5181,1.5181,1.5113,1.5224,1.5176,1.4956,1.4577,1.4336,1.4216,1.4299,1.4299,1.4299,1.4299,1.4299,1.4299,1.4265,1.4345,1.4283,1.4153,1.3729,1.3573,1.3424,1.3439,1.337,1.3233,1.2827,1.2671,1.2474,1.2539,1.2331,1.2024,1.1636,1.1667,1.124,1.067,1.0712,1.0638,0.0,1.4692,1.5276,1.495,1.3919,1.2793,1.2081,1.1056,0.0,0.9883,0.9822,0.9822,0.9836,0.9829,0.989,1.0093,1.0256,0.0,0.0,1.2969,0.0,0.0,0.0,0.0,0.0,0.0,0.0,0.0,0.0,0.0,0.0,0.0,2.7295,2.7269,2.1456,1.9424,2.2168,1.9318,1.7676,1.7385,1.7319,1.7188,1.6978,1.6978,0.0,0.0,0.0,0.0,0.0,1.6978,1.6978,1.6965,1.6809,1.6666,1.6524,1.6577,1.6433,1.611,1.6295,1.6295,1.6096,1.6083,1.6083,1.6056,1.6103,1.5756,1.5459,1.5864,1.6165,1.6028,1.6091,1.6124,1.5962,1.5423,1.5194,1.5181,1.5181,1.5181,1.514,1.519,1.5222,1.5063,1.4356,1.4216,1.4299,1.4299,1.4299,1.4299,1.4299,1.4299,1.4299,1.4299,1.4352,1.4381,1.4228,1.3722,1.3392,1.341,1.3432,1.3457,1.3479,1.2827,1.2507,1.2508,1.1901,1.1593,1.1586,1.1613,1.126,1.0703,1.069,1.0745,1.1592,0.0,1.2433,1.1904,1.1443,1.1016,0.0,1.0304,1.0053,0.9863,0.9822,0.9856,0.9971,0.9897,1.0059,1.0785,0.0,0.0,1.2277,0.0,0.0,0.0,0.0,0.0,0.0,0.0,0.0,0.0,0.0,0.0,0.0,0.0,2.8728,3.2822,2.7155,2.3214,2.1993,2.297,2.1323,1.7087,1.9082,1.9044,1.6978,1.6978,0.0,0.0,0.0,0.0,1.6978,1.6978,1.6978,1.6965,1.6809,1.6727,1.6666,1.6408,1.6354,1.6388,1.6164,1.6157,1.6239,1.6123,1.6083,1.6056,1.6103,1.5961,1.585,1.6138,1.6083,1.6048,1.5609,1.5408,1.5404,1.5174,1.5269,1.5181,1.5181,1.5181,1.514,1.519,1.5222,1.5063,1.4356,1.4216,1.4299,1.4299,1.4299,1.4299,1.4299,1.4299,1.4299,1.4299,1.4272,1.4366,1.4388,1.3777,1.3392,1.341,1.337,1.3446,1.3464,1.2816,1.2456,1.2508,1.1901,1.1547,1.1583,1.1667,1.147,1.1427,1.0882,1.0672,1.0819,1.1023,1.1145,1.0887,1.0609,1.0351,1.0188,1.0046,0.9924,0.9836,0.9822,0.9842,0.993,0.993,1.0107,0.0,1.1056,0.0,0.0,0.0,0.0,0.0,0.0,0.0,0.0,0.0,0.0,0.0,0.0,0.0,0.0,0.0,3.1972,3.4776,3.1377,2.8279,2.5651,2.534,2.372,2.0812,2.0937,2.0279,1.8843,1.7601,0.0,0.0,0.0,0.0,1.6978,1.6978,1.6978,1.6958,1.6734,1.6646,1.6612,1.6313,1.6252,1.6293,1.6137,1.6137,1.6191,1.611,1.6083,1.6069,1.6186,1.5967,1.5756,1.6076,1.6154,1.587,1.5334,1.5136,1.5113,1.5113,1.5242,1.5181,1.5181,1.5181,1.514,1.519,1.4903,1.4591,1.4363,1.4263,1.4373,1.4312,1.4299,1.4299,1.4299,1.4299,1.4299,1.4299,1.4299,1.4211,1.434,1.4057,1.3736,1.3351,1.3437,1.3336,1.3349,1.3037,1.2786,1.2567,1.2244,1.1938,1.1938,1.171,1.1563,1.164,1.1268,1.1147,1.0806,1.0806,1.0806,1.0867,1.0575,1.0276,1.0249,1.0046,0.9849,0.9829,0.9822,0.9836,0.9883,1.0032,0.0,0.0,0.0,0.0,0.0,0.0,0.0,0.0,0.0,0.0,0.0,0.0,0.0,0.0,0.0,0.0,0.0,0.0,0.0,3.471,3.4175,3.2724,3.0586,2.7869,2.6129,2.527,2.3239,2.1924,2.1103,1.8634,0.0,0.0,0.0,0.0,1.8222,1.8222,1.7999,1.7538,1.7242,1.6912,1.6456,1.6185,1.6083,1.6083,1.6083,1.6083,1.6083,1.6083,1.6083,1.6076,1.6029,1.5716,1.542,1.5818,1.6036,1.5876,1.5408,1.5234,1.5208,1.5187,1.5181,1.5181,1.5181,1.5181,1.514,1.519,1.4758,1.4284,1.4403,1.4343,1.4296,1.438,1.4346,1.4333,1.4333,1.4312,1.4299,1.4299,1.4299,1.4373,1.4291,1.4167,1.3939,1.3539,1.3532,1.3356,1.3349,1.3367,1.3096,1.2525,1.2491,1.256,1.2557,1.1945,1.1804,1.1687,1.166,1.166,1.1185,1.1192,1.1009,1.0649,1.0419,1.0249,1.0114,1.0046,0.9978,0.9849,0.9822,0.9903,1.0161,1.0432,1.0751,0.0,0.0,0.0,0.0,0.0,0.0,0.0,0.0,0.0,0.0,0.0,0.0,0.0,0.0,0.0,0.0,0.0,0.0,3.4402,3.4055,3.3572,3.293,3.2423,2.9736,2.5265,2.7079,2.5625,2.1103,2.0696,2.0488,0.0,0.0,2.1717,2.3981,2.3981,2.2446,2.0233,2.002,1.845,1.632,1.6144,1.6083,1.6083,1.6083,1.6083,1.6083,1.6083,1.6083,1.6035,1.5784,1.589,1.587,1.5468,1.5642,1.6008,1.5435,1.5116,1.5147,1.5215,1.5181,1.5181,1.5181,1.5181,1.514,1.519,1.4678,1.4388,1.4901,1.4597,1.4363,1.4282,1.4376,1.4296,1.4296,1.4373,1.4299,1.4299,1.4299,1.4278,1.4238,1.3834,1.3733,1.4174,1.3743,1.3464,1.3356,1.2869,1.2542,1.2507,1.2535,1.2553,1.2567,1.2409,1.2319,1.2296,1.1857,1.1623,1.0873,1.0853,1.0772,1.0649,1.0629,1.0582,1.0344,1.0229,1.0154,1.0086,1.0066,1.0531,1.1993,0.0,1.4272,1.7105,0.0,0.0,0.0,0.0,0.0,0.0,0.0,0.0,0.0,0.0,0.0,0.0,0.0,0.0,0.0,0.0,0.0,0.0,3.3788,3.3561,3.3414,3.3414,3.2183,2.9712,2.9319,2.7884,2.541,2.3856,2.3194,2.3184,0.0,2.3625,2.4638,2.4638,2.3972,2.2654,2.266,2.1732,2.0249,1.8679,1.8228,1.8031,1.6672,1.6083,1.6083,1.6083,1.6083,1.6042,1.5818,1.5703,1.5835,1.5241,1.5719,1.6025,1.5794,1.5466,1.5269,1.5201,1.5181,1.5181,1.5181,1.5181,1.514,1.519,1.4977,1.4738,1.4767,1.4753,1.4753,1.4746,1.4798,1.4695,1.433,1.4387,1.4299,1.4299,1.4299,1.4265,1.4366,1.4122,1.3807,1.3899,1.3485,1.3325,1.3356,1.3112,1.2802,1.2574,1.2501,1.2549,1.256,1.256,1.2484,1.2491,1.2265,1.1884,1.0649,1.0595,1.0582,1.0738,1.0806,1.0826,1.0772,1.103,1.1214,1.0809,1.1578,1.2405,0.0,1.4945,0.0,0.0,0.0,0.0,0.0,0.0,0.0,0.0,0.0,0.0,0.0,0.0,0.0,0.0,0.0,0.0,0.0,0.0,0.0,0.0,3.3574,3.3414,3.3414,3.3414,3.3414,3.3414,3.1365,2.9939,2.9307,2.6797,2.5669,2.5659,2.5429,2.5723,2.632,2.632,2.5901,2.5231,2.5064,2.4577,2.372,2.1594,2.0951,2.0559,1.784,1.7055,1.6864,1.6275,1.6056,1.6001,1.5845,1.5703,1.5588,1.5195,1.5588,1.5828,1.5911,1.5609,1.5228,1.5194,1.5181,1.5181,1.5181,1.5181,1.5153,1.5231,1.5272,1.5072,1.4501,1.4916,1.5135,1.5236,1.5279,1.4979,1.4383,1.4256,1.4333,1.4306,1.4299,1.4238,1.4263,1.4217,1.4055,1.3492,1.3358,1.3471,1.3404,1.3363,1.3233,1.2675,1.2601,1.2507,1.2556,1.2522,1.2447,1.2498,1.2464,1.223,1.1002,1.0914,1.0744,1.0894,1.0724,1.0704,1.1382,1.3091,1.4072,1.2283,1.5119,0.0,0.0,1.5023,0.0,0.0,0.0,0.0,0.0,0.0,0.0,0.0,0.0,0.0,0.0,0.0,0.0,0.0,0.0,0.0,0.0,0.0,0.0,0.0,0.0,3.3414,3.3414,3.3414,3.3414,3.3414,3.32,3.1768,2.9307,2.8836,2.8507,2.8496,2.8241,2.9529,3.1946,3.1946,3.0386,2.7984,2.7973,2.6243,2.39,2.3686,2.3676,2.3296,2.0559,1.9782,1.9396,1.6864,1.5988,1.5845,1.5696,1.5554,1.5622,1.5234,1.5309,1.5221,1.5194,1.5214,1.516,1.5215,1.5181,1.5181,1.5181,1.5181,1.5181,1.5167,1.5259,1.521,1.5133,1.5238,1.5204,1.5133,1.5217,1.4889,1.4368,1.4223,1.4263,1.4312,1.4299,1.4238,1.4263,1.4217,1.4102,1.3465,1.3318,1.341,1.3383,1.3418,1.3329,1.3308,1.2868,1.2561,1.2548,1.2569,1.2494,1.2488,1.2512,1.2443,1.0588,1.0663,1.0711,1.0677,1.0785,1.1439,1.3467,1.3512,1.3519,1.4517,1.6335,0.0,0.0,0.0,0.0,0.0,0.0,0.0,0.0,0.0,0.0,0.0,0.0,0.0,0.0,0.0,0.0,0.0,0.0,0.0,0.0,0.0,0.0,0.0,0.0,3.2959,3.3146,3.2959,3.2959,3.3146,3.3146,3.2445,3.1247,3.0967,3.0827,3.0814,3.0535,3.0907,3.1744,3.1917,3.1133,2.9772,2.9937,2.9467,2.8548,2.6987,2.6409,2.6023,2.3296,2.2516,2.1912,1.9273,1.8419,1.7928,1.6138,1.565,1.5588,1.5296,1.5228,1.5215,1.5174,1.5147,1.5255,1.5194,1.5181,1.5181,1.5181,1.5181,1.5181,1.5181,1.514,1.512,1.5174,1.514,1.512,1.5174,1.5169,1.5181,1.4936,1.4529,1.436,1.4306,1.4299,1.4278,1.4224,1.4359,1.4263,1.3919,1.3673,1.3343,1.341,1.3437,1.337,1.3343,1.3226,1.2795,1.2542,1.2489,1.2463,1.2463,1.2568,1.2494,1.0249,1.0317,1.0548,1.0998,1.1115,1.2219,1.6798,1.64,1.5433,1.6888,1.8009,1.9933,2.4186,0.0,0.0,0.0,0.0,0.0,0.0,0.0,0.0,0.0,0.0,0.0,0.0,0.0,0.0,0.0,0.0,0.0,0.0,0.0,0.0,0.0,0.0,3.2639,3.2839,3.2652,3.2599,3.2706,3.2706,3.2652,3.2532,3.2238,3.2051,3.1944,3.165,3.1356,3.1102,3.1316,3.1156,3.0822,3.1116,3.1356,3.1341,2.9683,2.8943,2.8548,2.5935,2.4939,2.4511,2.1798,2.0159,1.9296,1.717,1.6131,1.5513,1.5215,1.5181,1.5208,1.512,1.5262,1.5181,1.5181,1.5181,1.5181,1.5181,1.5181,1.5181,1.5181,1.5181,1.5181,1.5181,1.5181,1.5181,1.5181,1.5162,1.5174,1.4936,1.4523,1.4346,1.4306,1.4299,1.4299,1.4299,1.438,1.4304,1.4256,1.3934,1.376,1.3665,1.3573,1.3338,1.3418,1.3363,1.3125,1.2856,1.2816,1.2795,1.2795,1.2795,1.2715,1.0093,0.9937,1.0221,1.2086,1.1789,1.3098,2.1231,2.1975,2.0683,1.9419,2.0476,2.2524,2.4858,0.0,0.0,0.0,0.0,0.0,0.0,0.0,0.0,0.0,0.0,0.0,0.0,0.0,0.0,0.0,0.0,0.0,0.0,0.0,0.0,0.0,0.0,0.0,3.2532,3.2532,3.2385,3.2091,3.2091,3.2251,3.2519,3.2225,3.1931,3.1637,3.1343,3.1049,3.0795,3.0782,3.0782,3.0822,3.1116,3.1223,3.1263,3.1557,3.1664,3.1231,2.8436,2.7392,2.6766,2.3852,2.1178,1.915,1.915,1.7162,1.5181,1.5181,1.5181,1.5181,1.5181,1.5181,1.5181,1.5181,1.5181,1.5181,1.5181,1.5181,1.5181,1.5181,1.5181,1.5181,1.5181,1.5181,1.5181,1.5181,1.5252,1.4916,1.4381,1.4236,1.4269,1.4312,1.4299,1.4299,1.4299,1.4299,1.4238,1.4263,1.4217,1.4277,1.4344,1.3634,1.3392,1.3403,1.3418,1.3343,1.3343,1.3367,1.3457,1.3457,1.3457,1.338,1.012,1.0915,1.1869,1.1519,0.0,1.6758,1.8969,1.8947,1.9533,2.3878,2.5291,2.6323,2.8808,0.0,0.0,0.0,0.0,0.0,0.0,0.0,0.0,0.0,0.0,0.0,0.0,0.0,0.0,0.0,0.0,0.0,0.0,0.0,0.0,0.0,0.0,0.0,3.1931,3.1517,3.137,3.149,3.1276,3.133,3.161,3.153,3.133,3.1049,3.0955,3.0755,3.0474,3.0261,3.0421,3.0795,3.0889,3.0929,3.0955,3.1249,3.1223,3.0849,3.0,2.9775,2.8967,2.456,2.2566,2.118,1.7515,1.5772,1.5181,1.5181,1.5181,1.5181,1.5181,1.5181,1.5181,1.5181,1.5181,1.5181,1.5181,1.5181,1.5215,1.5127,1.5255,1.5215,1.5133,1.5255,1.5181,1.5181,1.5252,1.5059,1.4423,1.4269,1.4346,1.4306,1.4299,1.4299,1.4299,1.4299,1.4278,1.4238,1.4278,1.4277,1.4344,1.3653,1.3416,1.341,1.3458,1.3437,1.3336,1.3459,1.3439,1.3439,1.3439,1.3356,1.1076,1.1894,1.3189,1.4458,1.6211,1.8329,2.0938,0.0,0.0,0.0,2.9239,2.9444,3.1102,0.0,0.0,0.0,0.0,0.0,0.0,0.0,0.0,0.0,0.0,0.0,0.0,0.0,0.0,0.0,0.0,0.0,0.0,0.0,0.0,0.0,0.0,0.0,3.1316,3.0862,3.0768,3.1049,3.0635,3.0541,3.0715,3.0942,3.0889,3.0608,3.0381,3.01,2.9833,2.9766,2.9953,3.0301,3.0528,3.0621,3.0662,3.0942,3.0942,3.0755,3.0528,3.0528,2.9965,2.6494,2.4204,2.2238,1.9569,1.7142,1.5113,1.5167,1.5181,1.5194,1.5255,1.5228,1.5181,1.5181,1.5181,1.5181,1.5181,1.5181,1.5208,1.5107,1.5437,1.541,1.5303,1.5194,1.5286,1.5286,1.5114,1.4888,1.4455,1.4353,1.4299,1.4299,1.4299,1.4299,1.4299,1.4299,1.4299,1.4299,1.4299,1.4331,1.4344,1.3794,1.3555,1.3755,1.3492,1.3465,1.3325,1.3325,1.3458,1.3403,1.3403,1.3322,1.2636,1.3052,1.4642,1.922,1.9145,0.0,2.5889,2.8162,2.9836,3.2736,0.0,3.1904,0.0,0.0,0.0,0.0,0.0,0.0,0.0,0.0,0.0,0.0,0.0,0.0,0.0,0.0,0.0,0.0,0.0,0.0,0.0,0.0,0.0,0.0,0.0,0.0,3.0675,3.0381,3.0368,0.0,3.0087,2.9833,2.986,3.0421,3.0515,3.0207,2.9673,2.9285,2.9058,2.9325,2.9446,2.9499,3.006,3.0261,3.0274,3.0568,3.0662,3.0555,3.002,3.002,3.01,2.8947,2.5973,2.2744,2.3359,1.9541,1.5176,1.5126,1.5167,1.5201,1.514,1.5262,1.5348,1.5167,1.5174,1.5181,1.5181,1.5181,1.5187,1.5201,1.5577,1.5772,1.5201,1.5265,1.5156,1.5142,1.5077,1.484,1.434,1.4306,1.4299,1.4299,1.4299,1.4299,1.4299,1.4299,1.4299,1.4299,1.4299,1.4238,1.4277,1.3733,1.366,1.4372,1.368,1.3435,1.3459,1.3465,1.3392,1.3403,1.3417,1.3342,1.3074,1.5503,1.8161,1.9702,2.2754,2.6617,3.0509,3.1777,3.2379,3.2284,3.2732,0.0,0.0,0.0,0.0,0.0,0.0,0.0,0.0,0.0,0.0,0.0,0.0,0.0,0.0,0.0,0.0,0.0,0.0,0.0,0.0,0.0,0.0,0.0,0.0,2.9766,2.9766,2.9472,2.9352,0.0,2.9285,2.9232,2.9245,2.9606,2.9606,2.9312,2.9192,2.9098,2.9045,2.9112,2.9138,2.9179,2.9526,2.9526,2.9366,2.9659,2.9619,2.9392,2.9272,2.9272,2.8934,2.677,2.5501,2.3742,1.8459,1.6022,1.5236,1.5176,1.5217,1.5245,1.5272,1.5582,1.5704,1.5217,1.512,1.5181,1.5181,1.5181,1.5215,1.5147,1.5269,1.541,1.5147,1.5147,1.5114,1.4618,1.4443,1.4502,1.4283,1.4367,1.4299,1.4299,1.4299,1.4299,1.4299,1.4299,1.4299,1.4299,1.4299,1.4285,1.4251,1.4251,1.4122,1.4372,1.4139,1.4071,1.4154,1.3566,1.3485,1.3403,1.3351,1.3325,1.4356,1.6968,2.0215,2.2474,2.645,3.0472,3.2377,3.3093,3.328,3.2826,0.0,0.0,0.0,0.0,0.0,0.0,0.0,0.0,0.0,0.0,0.0,0.0,0.0,0.0,0.0,0.0,0.0,0.0,0.0,0.0,0.0,0.0,0.0,0.0,2.9432,2.9272,2.9272,2.8978,2.8898,2.9032,2.8751,2.8604,2.8617,2.9072,2.9112,2.8831,2.8831,2.8751,2.8617,2.8764,2.8831,2.8858,2.9152,2.9179,2.9058,2.9219,2.9179,2.9018,2.8885,2.8925,2.8818,2.7292,2.5346,2.3336,2.163,1.8211,1.4812,1.5202,1.5229,1.6368,2.1002,2.2502,2.2626,2.231,1.8599,1.5113,1.5167,1.5181,1.5187,1.5201,1.5194,1.5187,1.5201,1.5011,1.4598,1.4376,1.4276,1.4229,1.4229,1.4346,1.4299,1.4299,1.4299,1.4299,1.4299,1.4299,1.4299,1.4299,1.4299,1.4299,1.4299,1.4299,1.4224,1.4242,1.4318,1.4249,1.4372,1.374,1.3619,1.386,1.3492,1.3472,1.582,1.8517,2.2271,2.6117,2.9474,0.0,3.2826,3.316,3.3334,3.3334,0.0,0.0,0.0,0.0,0.0,0.0,0.0,0.0,0.0,0.0,0.0,0.0,0.0,0.0,0.0,0.0,0.0,0.0,0.0,0.0,0.0,0.0,2.9472,2.8978,2.8911,2.8885,2.8885,2.8644,2.8644,2.8885,2.8377,2.8136,2.8163,2.8657,2.8751,2.8524,2.8524,2.8377,2.8163,2.8417,2.8524,2.8551,2.8791,2.8885,2.8885,2.8885,2.8885,2.8845,2.8617,2.8684,2.8804,2.831,2.5689,2.3294,2.62,2.1585,1.5824,1.7278,1.7648,1.9328,2.7634,2.9192,2.8711,2.9775,2.2417,1.5162,1.512,1.5147,1.5293,1.5149,1.5217,1.5252,1.5107,1.478,1.4243,1.434,1.4299,1.4299,1.4299,1.4299,1.4299,1.4299,1.4299,1.4299,1.4299,1.4299,1.4299,1.4299,1.4299,1.4299,1.4299,1.4299,1.4299,1.4299,1.4299,1.4224,1.4249,1.374,1.378,1.4365,1.364,1.3455,1.6891,2.1094,2.5964,2.8789,3.061,3.1944,0.0,0.0,3.304,0.0,0.0,0.0,0.0,0.0,0.0,0.0,0.0,0.0,0.0,0.0,0.0,0.0,0.0,0.0,0.0,0.0,0.0,0.0,0.0,0.0,0.0,2.8925,2.8751,2.8671,2.8404,2.8257,2.8257,2.823,2.823,2.8257,2.8177,2.8136,2.815,2.823,2.8243,2.8203,2.8203,2.8177,2.815,2.819,2.8203,2.8203,2.8243,2.8257,2.8257,2.8257,2.8257,2.8257,2.8217,2.823,2.8257,2.8163,2.7825,2.6613,2.322,2.1211,2.1269,2.6508,2.7281,2.6815,2.8706,2.6187,2.4308,2.8771,2.2372,1.5251,1.5135,1.519,1.5149,1.5181,1.5167,1.5132,1.516,1.4744,1.4303,1.4326,1.4299,1.4299,1.4299,1.4299,1.4299,1.4299,1.4299,1.4299,1.4299,1.4299,1.4299,1.4299,1.4299,1.4299,1.4299,1.4299,1.4299,1.4299,1.4299,1.4224,1.4249,1.4204,1.429,1.4344,1.3614,1.3607,1.9966,2.2933,2.5932,2.8925,3.0434,3.141,3.2291,3.2746,3.2933,0.0,0.0,0.0,0.0,0.0,0.0,0.0,0.0,0.0,0.0,0.0,0.0,0.0,0.0,0.0,0.0,0.0,0.0,0.0,0.0,2.9245,2.8818,2.8671,2.8524,2.835,2.8217,2.8136,2.8136,2.8136,2.8136,2.8136,2.8136,2.8136,2.8136,2.8136,2.8136,2.8136,2.8136,2.8136,2.8136,2.8136,2.8136,2.8136,2.8136,2.8136,2.8136,2.8136,2.8136,2.8136,2.8136,2.8136,2.8136,2.8136,2.7279,2.6078,2.5409,2.3835,2.342,2.7785,2.8736,2.8644,2.8732,2.6042,2.3578,2.5155,2.4543,2.179,1.6007,1.478,1.4638,1.4753,1.4672,1.4778,1.4709,1.4509,1.4283,1.4319,1.4299,1.4299,1.4299,1.4299,1.4299,1.4299,1.4299,1.4299,1.4299,1.4299,1.4299,1.4299,1.4299,1.4299,1.4299,1.4299,1.4299,1.4299,1.4299,1.4265,1.438,1.4265,1.4366,1.4333,1.3948,1.4116,2.145,2.3126,2.469,2.7722,2.9299,3.0408,0.0,0.0,3.2519,0.0,0.0,0.0,0.0,0.0,0.0,0.0,0.0,0.0,0.0,0.0,0.0,0.0,0.0,0.0,0.0,0.0,0.0,0.0,0.0,2.8804,2.8497,2.8484,2.8377,2.815,2.8136,2.8136,2.8136,2.8136,2.8136,2.8136,2.8136,2.8136,2.8136,2.8136,2.8136,2.8136,2.8136,2.8136,2.8136,2.8136,2.8136,2.8136,2.8136,2.8136,2.8136,2.8136,2.8136,2.8136,2.8136,2.8136,2.8136,2.8136,2.7109,2.5921,2.7643,2.6506,2.5227,2.7612,2.8486,2.8577,2.7952,2.5814,2.3655,2.2142,2.4029,2.377,1.5995,1.4383,1.4256,1.4256,1.435,1.4276,1.4276,1.4276,1.4242,1.4312,1.4299,1.4299,1.4299,1.4299,1.4299,1.4299,1.4299,1.4299,1.4299,1.4299,1.4299,1.4299,1.4299,1.4299,1.4299,1.4299,1.4299,1.4299,1.4299,1.4299,1.4299,1.4299,1.4245,1.4311,1.4251,1.4238,1.9305,2.0815,2.2699,2.5117,2.7014,2.8738,0.0,0.0,0.0,0.0,0.0,0.0,0.0,0.0,0.0,0.0,0.0,0.0,0.0,0.0,0.0,0.0,0.0,0.0,0.0,0.0,0.0,0.0,0.0,2.8497,2.8177,2.8163,2.8163,2.8136,2.8136,2.8136,2.8136,2.8136,2.8136,2.8136,2.8136,2.8136,2.8136,2.8136,2.8136,2.8136,2.8136,2.8136,2.8136,2.8136,2.8136,2.8136,2.8136,2.8136,2.8136,2.8136,2.8136,2.8136,2.8136,2.8136,2.8136,2.8136,2.8136,2.7968,2.815,2.815,2.8034,2.8537,2.8404,2.7722,2.5723,2.4465,2.3162,2.1689,1.81,1.49,1.4482,1.4229,1.4319,1.4319,1.4312,1.4312,1.4312,1.4312,1.4306,1.4299,1.4299,1.4299,1.4299,1.4299,1.4299,1.4299,1.4299,1.4299,1.4299,1.4299,1.4299,1.4299,1.4299,1.4299,1.4299,1.4299,1.4299,1.4299,1.4299,1.4299,1.4299,1.4299,1.4299,1.4285,1.4299,1.4299,1.992,2.0535,2.147,2.4035,2.5718,2.7054,2.8257,2.978,3.0902,0.0,0.0,0.0,0.0,0.0,0.0,0.0,0.0,0.0,0.0,0.0,0.0,0.0,0.0,0.0,0.0,0.0,0.0,0.0,0.0,0.0,2.815,2.8136,2.8136,2.8136,2.8136,2.8056,2.7856,2.7669,2.7669,2.7856,2.7856,2.7963,2.8136,2.8136,2.8136,2.8136,2.8136,2.8136,2.8136,2.8136,2.8136,2.8136,2.8136,2.8136,2.8136,2.8136,2.8136,2.8136,2.8136,2.8136,2.8136,2.8136,2.8136,2.8136,2.8136,2.8136,2.8163,2.8283,2.823,2.8021,2.7221,2.4523,2.1108,1.768,1.5491,1.4224,1.4346,1.4333,1.4299,1.4299,1.4373,1.4229,1.4312,1.4373,1.4222,1.4312,1.4299,1.4299,1.4299,1.4299,1.4299,1.4299,1.4299,1.4299,1.4299,1.4299,1.4299,1.4299,1.4299,1.4299,1.4299,1.4299,1.4299,1.4299,1.4299,1.4299,1.4299,1.4299,1.4299,1.4299,1.4299,1.4299,1.976,2.0013,2.0681,2.314,2.4262,2.5237,2.7001,0.0,2.9486,0.0,0.0,0.0,0.0,0.0,0.0,0.0,0.0,0.0,0.0,0.0,0.0,0.0,0.0,0.0,0.0,0.0,0.0,0.0,0.0,0.0,2.8136,2.8136,2.8096,2.8003,2.7989,2.7856,2.7562,2.7362,2.7415,2.7696,2.7696,2.7856,2.8136,2.8043,2.8043,2.8136,2.803,2.8056,2.8136,2.8136,2.8136,2.8136,2.8136,2.8136,2.8136,2.8136,2.8136,2.8136,2.8136,2.8136,2.8136,2.8136,2.8136,2.8136,2.8136,2.8136,2.8136,2.8136,2.819,2.7931,2.6828,2.2848,1.8026,1.5067,1.4304,1.5184,1.8242,1.6432,1.4251,1.4292,1.4373,1.4407,1.4503,1.438,1.4242,1.4373,1.4326,1.4319,1.4367,1.4326,1.4299,1.4299,1.4299,1.4299,1.4299,1.4299,1.4299,1.4299,1.4299,1.4299,1.4299,1.4299,1.4299,1.4299,1.4299,1.4299,1.4299,1.4299,1.4299,1.4299,1.4299,1.4299,0.0,0.0,0.0,2.2271,2.2579,2.3287,2.6734,0.0,2.7161,0.0,0.0,0.0,0.0,0.0,0.0,0.0,0.0,0.0,0.0,0.0,0.0,0.0,0.0,0.0,0.0,0.0,0.0,0.0,0.0,2.8136,2.8136,2.8136,2.8003,2.7709,2.7682,2.7535,2.7255,2.7241,2.7388,2.7669,2.7669,2.7829,2.8123,2.7829,2.7856,2.8123,2.7843,2.7883,2.8136,2.8136,2.8136,2.8136,2.8136,2.8136,2.8136,2.8136,2.8136,2.8136,2.8136,2.8136,2.8136,2.8136,2.8136,2.8136,2.8136,2.8136,2.8136,2.8136,2.8127,2.7393,2.4155,1.8931,1.4639,1.4707,1.4678,1.7231,2.6187,2.09,1.4338,1.4278,1.4306,1.4489,1.5034,1.4666,1.4353,1.4303,1.4387,1.4353,1.4309,1.4387,1.4299,1.4306,1.4306,1.4306,1.4306,1.4306,1.4306,1.4299,1.4299,1.4299,1.4299,1.4299,1.4299,1.4299,1.4299,1.4299,1.4299,1.4299,1.4299,1.4299,1.4299,1.4299,1.9145,0.0,0.0,0.0,0.0,0.0,2.2979,2.4115,2.5291,0.0,0.0,0.0,0.0,0.0,0.0,0.0,0.0,0.0,0.0,0.0,0.0,0.0,0.0,0.0,0.0,0.0,0.0,0.0,2.8136,2.8136,2.8136,2.7936,2.7789,2.7696,2.7281,2.7028,2.6947,2.6734,2.6774,2.7068,2.7068,2.7335,2.7816,2.7736,2.7856,2.8136,2.8056,2.807,2.8136,2.8136,2.8136,2.8136,2.8136,2.8136,2.8136,2.8136,2.8136,2.8136,2.8136,2.8136,2.8136,2.8136,2.8136,2.8136,2.8136,2.8136,2.8136,2.8136,2.819,2.6393,1.8821,2.0614,2.4281,2.4408,2.4396,2.5031,2.7721,2.09,1.4338,1.4278,1.438,1.4421,1.4503,1.4387,1.4283,1.4323,1.4757,1.4722,1.4309,1.4387,1.434,1.4263,1.4269,1.4269,1.4269,1.4269,1.4229,1.4306,1.4299,1.4299,1.4299,1.4299,1.4299,1.4299,1.4299,1.4299,1.4299,1.4299,1.4299,1.4299,1.4299,1.4299,0.0,0.0,1.9666,0.0,0.0,0.0,2.1871,2.2619,2.3434,0.0,0.0,0.0,0.0,0.0,0.0,0.0,0.0,0.0,0.0,0.0,0.0,0.0,0.0,0.0,0.0,0.0,0.0,2.8136,2.8136,2.8083,2.7963,2.7682,2.7468,2.7335,2.7001,2.676,2.664,2.6466,2.6533,2.6827,2.6827,2.7068,2.7509,2.7388,2.7495,2.7776,2.7642,2.7669,2.7789,2.7909,2.803,2.8136,2.8136,2.8136,2.8136,2.8136,2.8136,2.8136,2.8136,2.8136,2.8136,2.8136,2.8136,2.8136,2.8136,2.8136,2.8136,2.8136,2.8203,2.6978,2.1501,2.4201,2.8261,2.8182,2.8221,2.719,2.3206,1.8087,1.4338,1.4278,1.4367,1.4216,1.4312,1.4367,1.4283,1.4223,1.4847,1.5019,1.4302,1.439,1.433,1.4229,1.4604,1.4611,1.4611,1.4363,1.4316,1.4303,1.4242,1.4236,1.4296,1.4242,1.4387,1.4387,1.4326,1.4299,1.4299,1.4299,1.4299,1.4299,1.4299,1.4299,0.0,0.0,0.0,0.0,0.0,0.0,2.2138,2.1991,2.1817,2.2913,0.0,0.0,0.0,0.0,0.0,0.0,0.0,0.0,0.0,0.0,0.0,0.0,0.0,0.0,0.0,2.8136,2.8123,2.8096,2.8056,2.7923,2.7669,2.7375,2.7094,2.6827,2.6787,2.6653,2.6386,2.6386,2.652,2.6774,2.6774,2.6934,2.7201,2.6947,2.6987,2.7255,2.6987,2.7028,2.7281,2.7575,2.7856,2.8096,2.8136,2.8136,2.8136,2.8136,2.8136,2.8136,2.8136,2.8136,2.8136,2.8136,2.8136,2.8136,2.8136,2.8136,2.8136,2.8136,2.8283,2.826,2.826,2.826,2.8207,2.819,2.814,2.5677,1.627,1.4228,1.4338,1.4258,1.4292,1.4306,1.4319,1.4326,1.4249,1.4342,1.4819,1.5014,1.4547,1.4454,1.4375,1.4388,1.495,1.5146,1.5146,1.4645,1.4423,1.4355,1.4423,1.4403,1.4335,1.4397,1.4323,1.4303,1.436,1.4299,1.4299,1.4299,1.4299,1.4299,1.4299,1.4299,0.0,0.0,0.0,0.0,0.0,0.0,2.0575,2.0815,2.1336,0.0,0.0,0.0,0.0,0.0,0.0,0.0,0.0,0.0,0.0,0.0,0.0,0.0,0.0,0.0,0.0,2.8136,2.8043,2.7802,2.7562,2.7415,2.7348,2.7068,2.6881,2.6827,2.66,2.6453,2.6386,2.6386,2.6413,2.6466,2.6466,2.6627,2.6907,2.6854,2.6987,2.7268,2.7201,2.7215,2.7281,2.7575,2.7736,2.7802,2.8043,2.8136,2.8136,2.8136,2.8136,2.8136,2.8136,2.8136,2.8136,2.8136,2.8136,2.8136,2.8136,2.8136,2.8136,2.8136,2.8177,2.8203,2.8203,2.8203,2.819,2.815,2.814,2.5677,1.627,1.4228,1.4311,1.4331,1.4251,1.436,1.4269,1.4309,1.4236,1.4316,1.4794,1.5139,1.495,1.5025,1.4977,1.5101,1.5114,1.5121,1.5121,1.5087,1.4841,1.4368,1.4713,1.5028,1.4937,1.5082,1.4826,1.4346,1.4312,1.4299,1.4299,1.4299,1.4299,1.4299,1.4299,1.4299,0.0,0.0,0.0,2.0895,0.0,0.0,0.0,2.0454,2.0588,2.1029,0.0,0.0,0.0,0.0,0.0,0.0,0.0,0.0,0.0,0.0,0.0,0.0,0.0,0.0,0.0,2.7615,2.7575,2.7281,2.7121,2.6987,2.6841,2.668,2.6547,2.64,2.6253,2.6172,2.6172,2.6172,2.6239,2.6386,2.6239,2.6319,2.66,2.6453,2.6547,2.6827,2.6827,2.6827,2.6854,2.7134,2.7348,2.7522,2.7976,2.8136,2.8136,2.8136,2.8136,2.8136,2.8136,2.8136,2.8136,2.8136,2.8136,2.8136,2.8136,2.8136,2.8136,2.8136,2.8136,2.8136,2.8136,2.8136,2.8136,2.8136,2.814,2.6986,2.2192,1.7628,1.4331,1.4331,1.8017,2.1373,2.1975,1.8076,1.4716,1.4814,1.4977,1.5202,1.5238,1.5204,1.5183,1.5259,1.5265,1.5265,1.5265,1.5204,1.5156,1.4772,1.508,1.5202,1.5118,1.4853,1.4529,1.4306,1.4299,1.4299,1.4299,1.4299,1.4299,1.4299,1.4299,1.4299,0.0,0.0,0.0,0.0,0.0,2.1363,0.0,0.0,0.0,0.0,0.0,0.0,0.0,0.0,0.0,0.0,0.0,0.0,0.0,0.0,0.0,0.0,0.0,0.0,0.0,2.6747,2.6734,2.6653,2.644,2.6293,2.6226,2.6226,2.6119,2.5879,2.5865,2.5892,2.5959,2.5959,2.6106,2.6386,2.6092,2.6106,2.6373,2.6092,2.6119,2.6386,2.6386,2.6386,2.6413,2.6707,2.6961,2.7241,2.7829,2.8096,2.8136,2.8136,2.8136,2.8136,2.8136,2.8136,2.8136,2.8136,2.8136,2.8136,2.8136,2.8136,2.8136,2.8136,2.8136,2.8136,2.8136,2.8136,2.8136,2.8136,2.827,2.8247,2.8286,2.2362,1.7055,1.7238,2.3408,2.8155,2.7058,2.0242,1.5026,1.5077,1.5139,1.525,1.5113,1.5167,1.5181,1.5181,1.5181,1.5181,1.5181,1.5265,1.5252,1.5174,1.5265,1.5176,1.5121,1.4564,1.4356,1.4306,1.4299,1.4299,1.4299,1.4299,1.4299,1.4299,1.4299,1.4299,0.0,0.0,0.0,0.0,2.326,0.0,0.0,0.0,0.0,0.0,0.0,0.0,0.0,0.0,0.0,0.0,0.0,0.0,0.0,0.0,0.0,0.0,0.0,0.0,0.0,0.0,2.5251,2.5999,2.509,2.4823,2.5571,2.5611,2.5598,2.5558,2.5558,2.5692,2.5959,2.5959,2.6106,2.6386,2.6092,2.6106,2.6373,2.6092,2.6119,2.6386,2.6386,2.6386,2.6413,2.6707,2.6841,2.6934,2.7522,2.7909,2.8136,2.8136,2.8136,2.8136,2.8136,2.8136,2.8136,2.8136,2.8136,2.8136,2.8136,2.8136,2.8136,2.8136,2.8136,2.8136,2.8136,2.8136,2.8136,2.8136,2.8163,2.823,2.8247,2.7388,2.6835,2.7991,2.8968,2.6822,1.769,1.5195,1.4362,1.4368,1.4855,1.5149,1.5183,1.5106,1.5181,1.5181,1.5181,1.5181,1.5181,1.5167,1.5167,1.5181,1.5167,1.5231,1.516,1.4682,1.4333,1.4299,1.4299,1.4299,1.4299,1.4299,1.4299,1.4299,1.4299,1.4299,0.0,0.0,0.0,0.0,0.0,0.0,0.0,0.0,2.1136,0.0,0.0,0.0,0.0,0.0,0.0,0.0,0.0,0.0,0.0,0.0,0.0,0.0,0.0,0.0,0.0,0.0,0.0,0.0,0.0,2.4115,2.4476,2.4983,2.5264,2.5264,2.5264,2.5317,2.5451,2.5451,2.5598,2.5879,2.5585,2.5692,2.6132,2.5838,2.5865,2.6146,2.6319,2.6293,2.6159,2.6453,2.6667,2.6867,2.7281,2.7629,2.7883,2.7883,2.7989,2.8136,2.8136,2.8136,2.8136,2.8136,2.8136,2.8136,2.8136,2.8136,2.8136,2.8136,2.8136,2.8136,2.8136,2.8136,2.8136,2.8136,2.8136,2.8163,2.8257,2.8261,2.8456,2.9771,2.986,2.6723,1.6583,1.4544,1.4381,1.4362,1.4494,1.4812,1.5086,1.5147,1.5181,1.5181,1.5181,1.5181,1.5181,1.5181,1.5181,1.5181,1.521,1.5018,1.4618,1.4407,1.4299,1.4299,1.4299,1.4299,1.4299,1.4299,1.4299,1.4299,1.4299,1.4299,2.3634,0.0,0.0,0.0,0.0,0.0,0.0,0.0,0.0,0.0,0.0,0.0,0.0,0.0,0.0,0.0,0.0,0.0,0.0,0.0,0.0,0.0,0.0,0.0,0.0,0.0,0.0,0.0,0.0,0.0,2.338,2.4155,2.4636,2.4716,2.4877,2.4997,2.5077,2.5077,2.5224,2.5504,2.5224,2.5344,2.5825,2.5531,2.5598,2.5972,2.6186,2.6199,2.6092,2.6306,2.6507,2.6734,2.7028,2.7321,2.7602,2.7762,2.7963,2.8136,2.8136,2.8136,2.8136,2.8136,2.8136,2.8136,2.8136,2.8136,2.8136,2.8136,2.8136,2.8136,2.8136,2.8136,2.8136,2.8136,2.8203,2.8257,2.8257,2.8155,2.8614,2.9609,2.7665,2.3525,1.6453,1.4774,1.4415,1.4557,1.4494,1.4626,1.5113,1.516,1.5181,1.5181,1.5181,1.5181,1.5181,1.5147,1.5106,1.5252,1.5046,1.4672,1.4336,1.4373,1.4299,1.4299,1.4299,1.4299,1.4299,1.4299,1.4299,1.4299,1.4299,1.4299,0.0,0.0,0.0,2.3808,0.0,0.0,0.0,0.0,2.2632,0.0,0.0,0.0,0.0,0.0,0.0,2.1203,0.0,0.0,0.0,0.0,0.0,0.0,0.0,0.0,0.0,0.0,0.0,0.0,0.0,0.0,2.2405,2.3046,2.3514,2.3808,2.4356,2.4783,2.5077,2.5077,2.5224,2.5504,2.5224,2.5237,2.5518,2.5224,2.5411,2.5959,2.5972,2.6132,2.6373,2.6386,2.64,2.6426,2.672,2.7014,2.7348,2.7923,2.8136,2.8136,2.8136,2.8136,2.8136,2.8136,2.8136,2.8136,2.8136,2.8136,2.8136,2.8136,2.8136,2.8136,2.8136,2.8136,2.8136,2.8136,2.818,2.8208,2.8208,2.8256,2.8484,2.9676,2.2171,1.5554,1.5209,1.4624,1.4534,1.5139,1.525,1.5162,1.5169,1.5286,1.5181,1.5181,1.5181,1.5181,1.5181,1.5245,1.5292,1.5146,1.4564,1.4295,1.433,1.4373,1.4299,1.4299,1.4299,1.4299,1.4299,1.4299,1.4299,1.4299,1.4299,1.4299,0.0,0.0,2.652,2.4663,0.0,0.0,0.0,0.0,0.0,0.0,0.0,0.0,0.0,0.0,2.1924,2.1724,2.1363,0.0,0.0,0.0,0.0,0.0,0.0,0.0,0.0,0.0,0.0,0.0,0.0,0.0,0.0,2.2191,2.2953,2.346,2.4048,2.4489,2.4783,2.4783,2.4836,2.493,2.4836,2.4943,2.5224,2.5117,2.5291,2.5678,2.5865,2.6012,2.6119,2.6306,2.6507,2.6707,2.7001,2.7295,2.7575,2.7776,2.7976,2.8136,2.8136,2.8136,2.8136,2.8136,2.8136,2.8136,2.8136,2.8136,2.8136,2.8136,2.8136,2.8136,2.8136,2.8136,2.819,2.8207,2.8155,2.8459,2.9231,2.9394,2.9513,2.9891,2.7184,2.277,1.639,1.5004,1.4872,1.5107,1.521,1.5113,1.5113,1.5153,1.5181,1.5181,1.5181,1.5147,1.5238,1.4903,1.4753,1.516,1.459,1.4336,1.4373,1.4326,1.4299,1.4299,1.4299,1.4299,1.4299,1.4299,1.4299,1.4299,1.4299,1.4299,2.6012,2.66,0.0,0.0,2.4943,0.0,2.2979,0.0,0.0,0.0,0.0,0.0,0.0,0.0,0.0,2.2298,2.171,2.1096,0.0,2.0361,0.0,0.0,0.0,0.0,0.0,0.0,0.0,0.0,0.0,0.0,0.0,0.0,2.2378,2.2979,2.3781,2.4342,2.4636,2.4636,2.4636,2.4636,2.4636,2.473,2.4917,2.4917,2.5077,2.5371,2.5665,2.5865,2.5972,2.6266,2.656,2.6854,2.7148,2.7442,2.7709,2.7816,2.7976,2.8136,2.8136,2.8136,2.8136,2.8136,2.8136,2.8136,2.8136,2.8136,2.8163,2.8283,2.823,2.8163,2.827,2.8127,2.814,2.822,2.8591,2.9017,2.9781,2.9973,2.9839,2.982,2.9986,2.6683,1.6842,1.5265,1.5153,1.5252,1.5126,1.5181,1.5181,1.5181,1.5181,1.5181,1.514,1.5025,1.4828,1.4441,1.4524,1.4826,1.4536,1.4316,1.4306,1.4299,1.4373,1.435,1.438,1.438,1.435,1.4373,1.4299,1.4299,1.4299,1.4299]}]]